| time (UTC) | temp F | wind direction | speed MPH | gust MPH | rain 1hr in | rain 24hr in | rain mn in | humidity % | barometer mb |
| 20260906014733 | 97 | 244 | 3.0 | 6.0 | 0.00 | 0.00 | 0.00 | 29 | 1010.4 |
| 20260906014656 | 97 | 244 | 1.0 | 6.0 | 0.00 | 0.00 | 0.00 | 29 | 1010.4 |
| 20260906014526 | 97 | 244 | 1.0 | 6.0 | 0.00 | 0.00 | 0.00 | 29 | 1010.4 |
| 20260906014429 | 97 | 244 | 2.0 | 7.0 | 0.00 | 0.00 | 0.00 | 29 | 1010.4 |
| 20260906014330 | 97 | 244 | 3.0 | 7.0 | 0.00 | 0.00 | 0.00 | 29 | 1010.4 |
| 20260906014240 | 97 | 244 | 3.0 | 7.0 | 0.00 | 0.00 | 0.00 | 29 | 1010.3 |
| 20260906014122 | 97 | 244 | 1.0 | 7.0 | 0.00 | 0.00 | 0.00 | 29 | 1010.4 |
| 20260906014024 | 97 | 244 | 2.0 | 7.0 | 0.00 | 0.00 | 0.00 | 29 | 1010.4 |
| 20260906013931 | 97 | 244 | 2.0 | 7.0 | 0.00 | 0.00 | 0.00 | 29 | 1010.4 |
| 20260906013839 | 97 | 243 | 3.0 | 7.0 | 0.00 | 0.00 | 0.00 | 29 | 1010.4 |
| 20260906013722 | 97 | 243 | 3.0 | 7.0 | 0.00 | 0.00 | 0.00 | 29 | 1010.4 |
| 20260906013644 | 97 | 239 | 2.0 | 5.0 | 0.00 | 0.00 | 0.00 | 29 | 1010.4 |
| 20260906013534 | 97 | 239 | 2.0 | 6.0 | 0.00 | 0.00 | 0.00 | 29 | 1010.4 |
| 20260906013503 | 97 | 238 | 1.0 | 6.0 | 0.00 | 0.00 | 0.00 | 29 | 1010.4 |
| 20260906013316 | 97 | 238 | 1.0 | 7.0 | 0.00 | 0.00 | 0.00 | 29 | 1010.4 |
| 20260906013230 | 97 | 238 | 2.0 | 7.0 | 0.00 | 0.00 | 0.00 | 29 | 1010.4 |
| 20260906013132 | 97 | 238 | 1.0 | 7.0 | 0.00 | 0.00 | 0.00 | 29 | 1010.4 |
| 20260906013040 | 97 | 240 | 1.0 | 7.0 | 0.00 | 0.00 | 0.00 | 29 | 1010.4 |
| 20260906012922 | 97 | 240 | 1.0 | 7.0 | 0.00 | 0.00 | 0.00 | 29 | 1010.4 |
| 20260906012824 | 97 | 242 | 1.0 | 7.0 | 0.00 | 0.00 | 0.00 | 29 | 1010.4 |
| 20260906012734 | 98 | 242 | 2.0 | 7.0 | 0.00 | 0.00 | 0.00 | 28 | 1010.4 |
| 20260906012621 | 97 | 241 | 3.0 | 7.0 | 0.00 | 0.00 | 0.00 | 28 | 1010.5 |
| 20260906012523 | 98 | 242 | 3.0 | 8.0 | 0.00 | 0.00 | 0.00 | 28 | 1010.5 |
| 20260906012454 | 97 | 245 | 2.0 | 8.0 | 0.00 | 0.00 | 0.00 | 28 | 1010.5 |
| 20260906012335 | 97 | 246 | 1.0 | 8.0 | 0.00 | 0.00 | 0.00 | 28 | 1010.5 |
| 20260906012216 | 97 | 246 | 1.0 | 10.0 | 0.00 | 0.00 | 0.00 | 28 | 1010.6 |
| 20260906012119 | 97 | 246 | 2.0 | 10.0 | 0.00 | 0.00 | 0.00 | 28 | 1010.6 |
| 20260906012030 | 97 | 246 | 3.0 | 10.0 | 0.00 | 0.00 | 0.00 | 28 | 1010.6 |
| 20260906011932 | 97 | 247 | 3.0 | 10.0 | 0.00 | 0.00 | 0.00 | 28 | 1010.6 |
| 20260906011841 | 97 | 247 | 3.0 | 10.0 | 0.00 | 0.00 | 0.00 | 28 | 1010.6 |
| 20260906011723 | 98 | 249 | 3.0 | 10.0 | 0.00 | 0.00 | 0.00 | 28 | 1010.6 |
| 20260906011625 | 97 | 249 | 3.0 | 10.0 | 0.00 | 0.00 | 0.00 | 28 | 1010.7 |
| 20260906011527 | 97 | 249 | 4.0 | 10.0 | 0.00 | 0.00 | 0.00 | 29 | 1010.7 |
| 20260906011419 | 97 | 249 | 4.0 | 10.0 | 0.00 | 0.00 | 0.00 | 28 | 1010.7 |
| 20260906011320 | 97 | 248 | 3.0 | 8.0 | 0.00 | 0.00 | 0.00 | 28 | 1010.7 |
| 20260906011222 | 97 | 248 | 4.0 | 8.0 | 0.00 | 0.00 | 0.00 | 29 | 1010.6 |
| 20260906011133 | 97 | 248 | 3.0 | 8.0 | 0.00 | 0.00 | 0.00 | 29 | 1010.6 |
| 20260906011034 | 97 | 247 | 2.0 | 8.0 | 0.00 | 0.00 | 0.00 | 29 | 1010.6 |
| 20260906010916 | 97 | 247 | 1.0 | 8.0 | 0.00 | 0.00 | 0.00 | 29 | 1010.7 |
| 20260906010822 | 97 | 247 | 1.0 | 8.0 | 0.00 | 0.00 | 0.00 | 29 | 1010.6 |
| 20260906010733 | 97 | 247 | 2.0 | 9.0 | 0.00 | 0.00 | 0.00 | 29 | 1010.6 |
| 20260906010633 | 97 | 252 | 3.0 | 9.0 | 0.00 | 0.00 | 0.00 | 29 | 1010.6 |
| 20260906010516 | 97 | 256 | 3.0 | 9.0 | 0.00 | 0.00 | 0.00 | 29 | 1010.7 |
| 20260906010418 | 97 | 254 | 2.0 | 9.0 | 0.00 | 0.00 | 0.00 | 29 | 1010.6 |
| 20260906010327 | 97 | 254 | 3.0 | 9.0 | 0.00 | 0.00 | 0.00 | 29 | 1010.7 |
| 20260906010235 | 97 | 255 | 3.0 | 9.0 | 0.00 | 0.00 | 0.00 | 29 | 1010.7 |
| 20260906010204 | 97 | 255 | 3.0 | 9.0 | 0.00 | 0.00 | 0.00 | 29 | 1010.7 |
| 20260906010036 | 97 | 255 | 3.0 | 9.0 | 0.00 | 0.00 | 0.00 | 29 | 1010.6 |
| 20260906005954 | 97 | 257 | 3.0 | 9.0 | 0.00 | 0.00 | 0.00 | 29 | 1010.7 |
| 20260906005855 | 97 | 258 | 2.0 | 9.0 | 0.00 | 0.00 | 0.00 | 29 | 1010.6 |
| 20260906005743 | 97 | 257 | 1.0 | 8.0 | 0.00 | 0.00 | 0.00 | 29 | 1010.6 |
| 20260906005624 | 98 | 257 | 2.0 | 11.0 | 0.00 | 0.00 | 0.00 | 29 | 1010.5 |
| 20260906005526 | 98 | 257 | 3.0 | 11.0 | 0.00 | 0.00 | 0.00 | 29 | 1010.5 |
| 20260906005440 | 98 | 256 | 3.0 | 11.0 | 0.00 | 0.00 | 0.00 | 29 | 1010.5 |
| 20260906005322 | 98 | 263 | 3.0 | 11.0 | 0.00 | 0.00 | 0.00 | 28 | 1010.5 |
| 20260906005224 | 98 | 268 | 2.0 | 11.0 | 0.00 | 0.00 | 0.00 | 28 | 1010.5 |
| 20260906005125 | 98 | 269 | 3.0 | 11.0 | 0.00 | 0.00 | 0.00 | 28 | 1010.4 |
| 20260906005036 | 98 | 244 | 3.0 | 11.0 | 0.00 | 0.00 | 0.00 | 28 | 1010.4 |
| 20260906004921 | 98 | 244 | 5.0 | 11.0 | 0.00 | 0.00 | 0.00 | 28 | 1010.4 |
| 20260906004852 | 98 | 243 | 5.0 | 11.0 | 0.00 | 0.00 | 0.00 | 28 | 1010.4 |
| 20260906004732 | 98 | 240 | 3.0 | 8.0 | 0.00 | 0.00 | 0.00 | 28 | 1010.4 |
| 20260906004615 | 98 | 240 | 3.0 | 8.0 | 0.00 | 0.00 | 0.00 | 28 | 1010.5 |
| 20260906004517 | 98 | 242 | 3.0 | 8.0 | 0.00 | 0.00 | 0.00 | 28 | 1010.4 |
| 20260906004427 | 98 | 245 | 2.0 | 8.0 | 0.00 | 0.00 | 0.00 | 28 | 1010.5 |
| 20260906004330 | 98 | 244 | 1.0 | 8.0 | 0.00 | 0.00 | 0.00 | 29 | 1010.5 |
| 20260906004216 | 98 | 244 | 2.0 | 8.0 | 0.00 | 0.00 | 0.00 | 28 | 1010.4 |
| 20260906004118 | 98 | 244 | 3.0 | 8.0 | 0.00 | 0.00 | 0.00 | 28 | 1010.4 |
| 20260906004027 | 98 | 244 | 3.0 | 8.0 | 0.00 | 0.00 | 0.00 | 28 | 1010.4 |
| 20260906003929 | 98 | 244 | 2.0 | 8.0 | 0.00 | 0.00 | 0.00 | 28 | 1010.5 |
| 20260906003830 | 99 | 244 | 3.0 | 9.0 | 0.00 | 0.00 | 0.00 | 28 | 1010.5 |
| 20260906003740 | 98 | 244 | 3.0 | 9.0 | 0.00 | 0.00 | 0.00 | 28 | 1010.5 |
| 20260906003625 | 98 | 241 | 2.0 | 9.0 | 0.00 | 0.00 | 0.00 | 28 | 1010.5 |
| 20260906003527 | 99 | 238 | 2.0 | 9.0 | 0.00 | 0.00 | 0.00 | 28 | 1010.5 |
| 20260906003436 | 99 | 238 | 1.0 | 9.0 | 0.00 | 0.00 | 0.00 | 29 | 1010.5 |
| 20260906003319 | 99 | 237 | 2.0 | 9.0 | 0.00 | 0.00 | 0.00 | 28 | 1010.4 |
| 20260906003221 | 99 | 236 | 3.0 | 9.0 | 0.00 | 0.00 | 0.00 | 28 | 1010.5 |
| 20260906003130 | 99 | 236 | 4.0 | 11.0 | 0.00 | 0.00 | 0.00 | 28 | 1010.5 |
| 20260906003015 | 99 | 235 | 3.0 | 11.0 | 0.00 | 0.00 | 0.00 | 28 | 1010.5 |
| 20260906002924 | 99 | 235 | 2.0 | 11.0 | 0.00 | 0.00 | 0.00 | 28 | 1010.5 |
| 20260906002825 | 99 | 245 | 2.0 | 11.0 | 0.00 | 0.00 | 0.00 | 28 | 1010.5 |
| 20260906002755 | 99 | 247 | 3.0 | 11.0 | 0.00 | 0.00 | 0.00 | 28 | 1010.5 |
| 20260906002537 | 99 | 248 | 3.0 | 11.0 | 0.00 | 0.00 | 0.00 | 28 | 1010.5 |
| 20260906002439 | 99 | 249 | 4.0 | 11.0 | 0.00 | 0.00 | 0.00 | 28 | 1010.5 |
| 20260906002320 | 99 | 249 | 4.0 | 11.0 | 0.00 | 0.00 | 0.00 | 28 | 1010.4 |
| 20260906002234 | 99 | 250 | 3.0 | 11.0 | 0.00 | 0.00 | 0.00 | 28 | 1010.4 |
| 20260906002117 | 99 | 260 | 3.0 | 11.0 | 0.00 | 0.00 | 0.00 | 28 | 1010.5 |
| 20260906002020 | 99 | 265 | 3.0 | 11.0 | 0.00 | 0.00 | 0.00 | 28 | 1010.4 |
| 20260906001922 | 99 | 268 | 2.0 | 11.0 | 0.00 | 0.00 | 0.00 | 28 | 1010.3 |
| 20260906001831 | 99 | 265 | 3.0 | 11.0 | 0.00 | 0.00 | 0.00 | 28 | 1010.3 |
| 20260906001733 | 99 | 265 | 3.0 | 11.0 | 0.00 | 0.00 | 0.00 | 28 | 1010.3 |
| 20260906001619 | 99 | 243 | 3.0 | 11.0 | 0.00 | 0.00 | 0.00 | 28 | 1010.3 |
| 20260906001529 | 99 | 245 | 3.0 | 11.0 | 0.00 | 0.00 | 0.00 | 28 | 1010.3 |
| 20260906001430 | 99 | 245 | 3.0 | 11.0 | 0.00 | 0.00 | 0.00 | 28 | 1010.3 |
| 20260906001331 | 99 | 247 | 2.0 | 11.0 | 0.00 | 0.00 | 0.00 | 28 | 1010.3 |
| 20260906001222 | 99 | 247 | 4.0 | 11.0 | 0.00 | 0.00 | 0.00 | 28 | 1010.4 |
| 20260906001123 | 99 | 249 | 5.0 | 11.0 | 0.00 | 0.00 | 0.00 | 28 | 1010.4 |
| 20260906001035 | 99 | 250 | 3.0 | 8.0 | 0.00 | 0.00 | 0.00 | 28 | 1010.4 |
| 20260906000916 | 99 | 248 | 2.0 | 7.0 | 0.00 | 0.00 | 0.00 | 28 | 1010.5 |
| 20260906000819 | 100 | 248 | 2.0 | 6.0 | 0.00 | 0.00 | 0.00 | 28 | 1010.4 |
| 20260906000716 | 100 | 248 | 3.0 | 6.0 | 0.00 | 0.00 | 0.00 | 28 | 1010.5 |
| 20260906000618 | 100 | 248 | 2.0 | 6.0 | 0.00 | 0.00 | 0.00 | 27 | 1010.5 |
| 20260906000520 | 100 | 262 | 2.0 | 6.0 | 0.00 | 0.00 | 0.00 | 27 | 1010.5 |
| 20260906000430 | 100 | 259 | 2.0 | 6.0 | 0.00 | 0.00 | 0.00 | 27 | 1010.5 |
| 20260906000356 | 100 | 259 | 1.0 | 6.0 | 0.00 | 0.00 | 0.00 | 27 | 1010.4 |
| 20260906000242 | 100 | 258 | 1.0 | 6.0 | 0.00 | 0.00 | 0.00 | 27 | 1010.4 |
| 20260906000120 | 100 | 257 | 1.0 | 6.0 | 0.00 | 0.00 | 0.00 | 27 | 1010.5 |
| 20260906000034 | 100 | 257 | 1.0 | 6.0 | 0.00 | 0.00 | 0.00 | 27 | 1010.5 |
| 20260905235930 | 100 | 257 | 2.0 | 6.0 | 0.00 | 0.00 | 0.00 | 27 | 1010.4 |
| 20260905235832 | 100 | 257 | 1.0 | 6.0 | 0.00 | 0.00 | 0.00 | 27 | 1010.4 |
| 20260905235720 | 100 | 257 | 1.0 | 6.0 | 0.00 | 0.00 | 0.00 | 27 | 1010.5 |
| 20260905235626 | 100 | 257 | 1.0 | 6.0 | 0.00 | 0.00 | 0.00 | 27 | 1010.3 |
| 20260905235527 | 100 | 255 | 1.0 | 7.0 | 0.00 | 0.00 | 0.00 | 27 | 1010.4 |
| 20260905235438 | 100 | 255 | 1.0 | 8.0 | 0.00 | 0.00 | 0.00 | 27 | 1010.4 |
| 20260905235320 | 99 | 253 | 2.0 | 8.0 | 0.00 | 0.00 | 0.00 | 27 | 1010.4 |
| 20260905235222 | 99 | 254 | 2.0 | 8.0 | 0.00 | 0.00 | 0.00 | 27 | 1010.4 |
| 20260905235125 | 99 | 253 | 3.0 | 8.0 | 0.00 | 0.00 | 0.00 | 27 | 1010.4 |
| 20260905235037 | 99 | 255 | 1.0 | 8.0 | 0.00 | 0.00 | 0.00 | 27 | 1010.4 |
| 20260905234919 | 99 | 255 | 1.0 | 8.0 | 0.00 | 0.00 | 0.00 | 27 | 1010.5 |
| 20260905234820 | 99 | 255 | 2.0 | 8.0 | 0.00 | 0.00 | 0.00 | 27 | 1010.4 |
| 20260905234725 | 100 | 255 | 3.0 | 8.0 | 0.00 | 0.00 | 0.00 | 26 | 1010.4 |
| 20260905234627 | 100 | 255 | 2.0 | 8.0 | 0.00 | 0.00 | 0.00 | 26 | 1010.4 |
| 20260905234557 | 100 | 256 | 3.0 | 6.0 | 0.00 | 0.00 | 0.00 | 26 | 1010.4 |
| 20260905234442 | 100 | 257 | 2.0 | 6.0 | 0.00 | 0.00 | 0.00 | 26 | 1010.5 |
| 20260905234333 | 100 | 257 | 2.0 | 6.0 | 0.00 | 0.00 | 0.00 | 26 | 1010.4 |
| 20260905234240 | 100 | 257 | 2.0 | 8.0 | 0.00 | 0.00 | 0.00 | 26 | 1010.4 |
| 20260905234143 | 100 | 257 | 2.0 | 8.0 | 0.00 | 0.00 | 0.00 | 26 | 1010.4 |
| 20260905234112 | 100 | 255 | 2.0 | 8.0 | 0.00 | 0.00 | 0.00 | 26 | 1010.5 |
| 20260905233925 | 100 | 255 | 1.0 | 8.0 | 0.00 | 0.00 | 0.00 | 26 | 1010.5 |
| 20260905233827 | 100 | 255 | 2.0 | 8.0 | 0.00 | 0.00 | 0.00 | 26 | 1010.5 |
| 20260905233734 | 100 | 255 | 2.0 | 8.0 | 0.00 | 0.00 | 0.00 | 25 | 1010.5 |
| 20260905233615 | 101 | 255 | 2.0 | 8.0 | 0.00 | 0.00 | 0.00 | 25 | 1010.6 |
| 20260905233544 | 101 | 254 | 3.0 | 8.0 | 0.00 | 0.00 | 0.00 | 25 | 1010.6 |
| 20260905233434 | 101 | 252 | 3.0 | 8.0 | 0.00 | 0.00 | 0.00 | 25 | 1010.6 |
| 20260905233336 | 101 | 252 | 3.0 | 8.0 | 0.00 | 0.00 | 0.00 | 25 | 1010.6 |
| 20260905233219 | 101 | 246 | 2.0 | 8.0 | 0.00 | 0.00 | 0.00 | 25 | 1010.5 |
| 20260905233125 | 101 | 248 | 2.0 | 8.0 | 0.00 | 0.00 | 0.00 | 26 | 1010.5 |
| 20260905233035 | 101 | 248 | 2.0 | 8.0 | 0.00 | 0.00 | 0.00 | 25 | 1010.5 |
| 20260905232937 | 101 | 247 | 1.0 | 8.0 | 0.00 | 0.00 | 0.00 | 25 | 1010.5 |
| 20260905232818 | 101 | 247 | 1.0 | 8.0 | 0.00 | 0.00 | 0.00 | 26 | 1010.4 |
| 20260905232727 | 101 | 246 | 2.0 | 8.0 | 0.00 | 0.00 | 0.00 | 25 | 1010.4 |
| 20260905232647 | 101 | 246 | 3.0 | 8.0 | 0.00 | 0.00 | 0.00 | 25 | 1010.5 |
| 20260905232535 | 101 | 247 | 3.0 | 8.0 | 0.00 | 0.00 | 0.00 | 25 | 1010.5 |
| 20260905232421 | 101 | 250 | 2.0 | 7.0 | 0.00 | 0.00 | 0.00 | 25 | 1010.4 |
| 20260905232323 | 102 | 250 | 2.0 | 7.0 | 0.00 | 0.00 | 0.00 | 25 | 1010.5 |
| 20260905232254 | 102 | 249 | 2.0 | 8.0 | 0.00 | 0.00 | 0.00 | 25 | 1010.5 |
| 20260905232133 | 102 | 238 | 2.0 | 8.0 | 0.00 | 0.00 | 0.00 | 25 | 1010.5 |
| 20260905232016 | 102 | 235 | 2.0 | 8.0 | 0.00 | 0.00 | 0.00 | 25 | 1010.5 |
| 20260905231924 | 102 | 235 | 2.0 | 9.0 | 0.00 | 0.00 | 0.00 | 25 | 1010.5 |
| 20260905231830 | 102 | 234 | 3.0 | 9.0 | 0.00 | 0.00 | 0.00 | 25 | 1010.5 |
| 20260905231738 | 102 | 235 | 3.0 | 9.0 | 0.00 | 0.00 | 0.00 | 25 | 1010.5 |
| 20260905231619 | 102 | 234 | 2.0 | 11.0 | 0.00 | 0.00 | 0.00 | 25 | 1010.5 |
| 20260905231548 | 102 | 234 | 3.0 | 11.0 | 0.00 | 0.00 | 0.00 | 25 | 1010.5 |
| 20260905231429 | 101 | 240 | 4.0 | 11.0 | 0.00 | 0.00 | 0.00 | 25 | 1010.5 |
| 20260905231357 | 101 | 238 | 4.0 | 11.0 | 0.00 | 0.00 | 0.00 | 25 | 1010.5 |
| 20260905231218 | 101 | 233 | 5.0 | 11.0 | 0.00 | 0.00 | 0.00 | 25 | 1010.5 |
| 20260905231125 | 102 | 233 | 5.0 | 11.0 | 0.00 | 0.00 | 0.00 | 25 | 1010.5 |
| 20260905231026 | 102 | 217 | 5.0 | 11.0 | 0.00 | 0.00 | 0.00 | 25 | 1010.5 |
| 20260905230936 | 102 | 217 | 5.0 | 11.0 | 0.00 | 0.00 | 0.00 | 25 | 1010.5 |
| 20260905230819 | 102 | 217 | 5.0 | 11.0 | 0.00 | 0.00 | 0.00 | 24 | 1010.6 |
| 20260905230720 | 102 | 224 | 3.0 | 9.0 | 0.00 | 0.00 | 0.00 | 25 | 1010.6 |
| 20260905230629 | 103 | 263 | 3.0 | 9.0 | 0.00 | 0.00 | 0.00 | 24 | 1010.6 |
| 20260905230530 | 103 | 269 | 3.0 | 6.0 | 0.00 | 0.00 | 0.00 | 24 | 1010.7 |
| 20260905230416 | 103 | 271 | 2.0 | 8.0 | 0.00 | 0.00 | 0.00 | 24 | 1010.7 |
| 20260905230326 | 103 | 270 | 2.0 | 8.0 | 0.00 | 0.00 | 0.00 | 25 | 1010.8 |
| 20260905230227 | 103 | 271 | 2.0 | 8.0 | 0.00 | 0.00 | 0.00 | 24 | 1010.7 |
| 20260905230130 | 103 | 270 | 2.0 | 8.0 | 0.00 | 0.00 | 0.00 | 25 | 1010.7 |
| 20260905230030 | 103 | 270 | 2.0 | 11.0 | 0.00 | 0.00 | 0.00 | 24 | 1010.7 |
| 20260905225920 | 103 | 265 | 2.0 | 11.0 | 0.00 | 0.00 | 0.00 | 25 | 1010.7 |
| 20260905225826 | 102 | 265 | 2.0 | 11.0 | 0.00 | 0.00 | 0.00 | 25 | 1010.8 |
| 20260905225736 | 102 | 265 | 3.0 | 11.0 | 0.00 | 0.00 | 0.00 | 25 | 1010.8 |
| 20260905225619 | 102 | 266 | 3.0 | 11.0 | 0.00 | 0.00 | 0.00 | 25 | 1010.7 |
| 20260905225521 | 102 | 263 | 3.0 | 11.0 | 0.00 | 0.00 | 0.00 | 26 | 1010.7 |
| 20260905225423 | 102 | 264 | 3.0 | 11.0 | 0.00 | 0.00 | 0.00 | 26 | 1010.6 |
| 20260905225333 | 101 | 264 | 3.0 | 11.0 | 0.00 | 0.00 | 0.00 | 26 | 1010.6 |
| 20260905225219 | 101 | 264 | 4.0 | 11.0 | 0.00 | 0.00 | 0.00 | 26 | 1010.6 |
| 20260905225141 | 101 | 256 | 3.0 | 8.0 | 0.00 | 0.00 | 0.00 | 26 | 1010.7 |
| 20260905225049 | 101 | 257 | 3.0 | 10.0 | 0.00 | 0.00 | 0.00 | 26 | 1010.7 |
| 20260905224937 | 101 | 252 | 3.0 | 10.0 | 0.00 | 0.00 | 0.00 | 26 | 1010.6 |
| 20260905224818 | 101 | 257 | 2.0 | 10.0 | 0.00 | 0.00 | 0.00 | 26 | 1010.7 |
| 20260905224720 | 101 | 259 | 3.0 | 10.0 | 0.00 | 0.00 | 0.00 | 26 | 1010.6 |
| 20260905224630 | 101 | 262 | 2.0 | 10.0 | 0.00 | 0.00 | 0.00 | 26 | 1010.6 |
| 20260905224516 | 101 | 274 | 1.0 | 10.0 | 0.00 | 0.00 | 0.00 | 26 | 1010.7 |
| 20260905224419 | 101 | 275 | 2.0 | 10.0 | 0.00 | 0.00 | 0.00 | 26 | 1010.7 |
| 20260905224322 | 100 | 275 | 3.0 | 10.0 | 0.00 | 0.00 | 0.00 | 26 | 1010.7 |
| 20260905224230 | 100 | 273 | 4.0 | 10.0 | 0.00 | 0.00 | 0.00 | 26 | 1010.7 |
| 20260905224133 | 100 | 271 | 3.0 | 8.0 | 0.00 | 0.00 | 0.00 | 26 | 1010.7 |
| 20260905224019 | 100 | 269 | 2.0 | 9.0 | 0.00 | 0.00 | 0.00 | 26 | 1010.7 |
| 20260905223921 | 100 | 273 | 2.0 | 9.0 | 0.00 | 0.00 | 0.00 | 26 | 1010.7 |
| 20260905223832 | 100 | 273 | 3.0 | 9.0 | 0.00 | 0.00 | 0.00 | 26 | 1010.7 |
| 20260905223715 | 101 | 274 | 4.0 | 9.0 | 0.00 | 0.00 | 0.00 | 25 | 1010.8 |
| 20260905223617 | 101 | 276 | 3.0 | 9.0 | 0.00 | 0.00 | 0.00 | 25 | 1010.8 |
| 20260905223525 | 101 | 278 | 3.0 | 9.0 | 0.00 | 0.00 | 0.00 | 25 | 1010.7 |
| 20260905223427 | 101 | 280 | 4.0 | 9.0 | 0.00 | 0.00 | 0.00 | 25 | 1010.8 |
| 20260905223342 | 101 | 280 | 3.0 | 9.0 | 0.00 | 0.00 | 0.00 | 25 | 1010.8 |
| 20260905223224 | 101 | 285 | 2.0 | 8.0 | 0.00 | 0.00 | 0.00 | 25 | 1010.8 |
| 20260905223126 | 101 | 287 | 2.0 | 8.0 | 0.00 | 0.00 | 0.00 | 26 | 1010.8 |
| 20260905223026 | 101 | 284 | 2.0 | 8.0 | 0.00 | 0.00 | 0.00 | 25 | 1010.8 |
| 20260905222934 | 101 | 282 | 3.0 | 8.0 | 0.00 | 0.00 | 0.00 | 25 | 1010.8 |
| 20260905222836 | 101 | 282 | 2.0 | 8.0 | 0.00 | 0.00 | 0.00 | 25 | 1010.8 |
| 20260905222723 | 101 | 283 | 2.0 | 7.0 | 0.00 | 0.00 | 0.00 | 25 | 1010.8 |
| 20260905222636 | 101 | 283 | 2.0 | 7.0 | 0.00 | 0.00 | 0.00 | 25 | 1010.8 |
| 20260905222517 | 101 | 284 | 3.0 | 7.0 | 0.00 | 0.00 | 0.00 | 25 | 1010.9 |
| 20260905222420 | 101 | 285 | 2.0 | 8.0 | 0.00 | 0.00 | 0.00 | 25 | 1011.0 |
| 20260905222321 | 101 | 285 | 2.0 | 8.0 | 0.00 | 0.00 | 0.00 | 25 | 1011.0 |
| 20260905222232 | 101 | 285 | 2.0 | 8.0 | 0.00 | 0.00 | 0.00 | 25 | 1011.0 |
| 20260905222134 | 101 | 285 | 2.0 | 8.0 | 0.00 | 0.00 | 0.00 | 25 | 1010.9 |
| 20260905222040 | 101 | 286 | 1.0 | 8.0 | 0.00 | 0.00 | 0.00 | 25 | 1011.1 |
| 20260905221928 | 101 | 286 | 2.0 | 8.0 | 0.00 | 0.00 | 0.00 | 25 | 1011.1 |
| 20260905221830 | 101 | 285 | 2.0 | 8.0 | 0.00 | 0.00 | 0.00 | 25 | 1011.0 |
| 20260905221732 | 101 | 285 | 2.0 | 8.0 | 0.00 | 0.00 | 0.00 | 25 | 1011.1 |
| 20260905221640 | 101 | 285 | 3.0 | 8.0 | 0.00 | 0.00 | 0.00 | 25 | 1011.0 |
| 20260905221521 | 101 | 284 | 2.0 | 8.0 | 0.00 | 0.00 | 0.00 | 24 | 1011.1 |
| 20260905221429 | 102 | 283 | 1.0 | 7.0 | 0.00 | 0.00 | 0.00 | 25 | 1011.1 |
| 20260905221337 | 102 | 283 | 2.0 | 7.0 | 0.00 | 0.00 | 0.00 | 25 | 1011.1 |
| 20260905221240 | 102 | 281 | 3.0 | 9.0 | 0.00 | 0.00 | 0.00 | 24 | 1011.1 |
| 20260905221119 | 102 | 281 | 3.0 | 9.0 | 0.00 | 0.00 | 0.00 | 25 | 1011.0 |
| 20260905221030 | 102 | 281 | 2.0 | 9.0 | 0.00 | 0.00 | 0.00 | 24 | 1011.0 |
| 20260905220933 | 102 | 281 | 2.0 | 9.0 | 0.00 | 0.00 | 0.00 | 25 | 1011.0 |
| 20260905220902 | 102 | 281 | 2.0 | 9.0 | 0.00 | 0.00 | 0.00 | 25 | 1010.9 |
| 20260905220747 | 102 | 280 | 1.0 | 9.0 | 0.00 | 0.00 | 0.00 | 25 | 1011.0 |
| 20260905220628 | 102 | 279 | 1.0 | 9.0 | 0.00 | 0.00 | 0.00 | 25 | 1011.0 |
| 20260905220536 | 102 | 279 | 3.0 | 10.0 | 0.00 | 0.00 | 0.00 | 25 | 1011.0 |
| 20260905220418 | 102 | 278 | 2.0 | 11.0 | 0.00 | 0.00 | 0.00 | 24 | 1011.0 |
| 20260905220345 | 102 | 278 | 2.0 | 11.0 | 0.00 | 0.00 | 0.00 | 25 | 1011.0 |
| 20260905220225 | 102 | 280 | 2.0 | 11.0 | 0.00 | 0.00 | 0.00 | 24 | 1011.0 |
| 20260905220154 | 103 | 280 | 1.0 | 11.0 | 0.00 | 0.00 | 0.00 | 26 | 1011.0 |
| 20260905220029 | 103 | 279 | 2.0 | 11.0 | 0.00 | 0.00 | 0.00 | 25 | 1011.0 |
| 20260905215947 | 103 | 277 | 2.0 | 11.0 | 0.00 | 0.00 | 0.00 | 24 | 1011.1 |
| 20260905215829 | 103 | 276 | 3.0 | 11.0 | 0.00 | 0.00 | 0.00 | 25 | 1011.1 |
| 20260905215730 | 102 | 276 | 4.0 | 11.0 | 0.00 | 0.00 | 0.00 | 24 | 1011.1 |
| 20260905215640 | 103 | 270 | 4.0 | 11.0 | 0.00 | 0.00 | 0.00 | 24 | 1011.1 |
| 20260905215543 | 102 | 249 | 2.0 | 6.0 | 0.00 | 0.00 | 0.00 | 25 | 1011.1 |
| 20260905215451 | 102 | 249 | 1.0 | 6.0 | 0.00 | 0.00 | 0.00 | 26 | 1011.1 |
| 20260905215316 | 102 | 249 | 1.0 | 6.0 | 0.00 | 0.00 | 0.00 | 25 | 1011.2 |
| 20260905215219 | 102 | 248 | 2.0 | 7.0 | 0.00 | 0.00 | 0.00 | 25 | 1011.2 |
| 20260905215129 | 102 | 248 | 2.0 | 7.0 | 0.00 | 0.00 | 0.00 | 25 | 1011.2 |
| 20260905215031 | 102 | 248 | 2.0 | 7.0 | 0.00 | 0.00 | 0.00 | 25 | 1011.1 |
| 20260905214933 | 102 | 253 | 2.0 | 7.0 | 0.00 | 0.00 | 0.00 | 25 | 1011.2 |
| 20260905214815 | 102 | 254 | 2.0 | 7.0 | 0.00 | 0.00 | 0.00 | 25 | 1011.2 |
| 20260905214729 | 102 | 262 | 1.0 | 7.0 | 0.00 | 0.00 | 0.00 | 26 | 1011.2 |
| 20260905214631 | 102 | 262 | 2.0 | 7.0 | 0.00 | 0.00 | 0.00 | 24 | 1011.2 |
| 20260905214533 | 102 | 262 | 3.0 | 7.0 | 0.00 | 0.00 | 0.00 | 25 | 1011.1 |
| 20260905214415 | 102 | 262 | 3.0 | 7.0 | 0.00 | 0.00 | 0.00 | 24 | 1011.2 |
| 20260905214324 | 103 | 266 | 2.0 | 6.0 | 0.00 | 0.00 | 0.00 | 25 | 1011.3 |
| 20260905214226 | 102 | 269 | 2.0 | 7.0 | 0.00 | 0.00 | 0.00 | 25 | 1011.2 |
| 20260905214132 | 102 | 270 | 1.0 | 7.0 | 0.00 | 0.00 | 0.00 | 25 | 1011.2 |
| 20260905214041 | 102 | 273 | 1.0 | 7.0 | 0.00 | 0.00 | 0.00 | 25 | 1011.2 |
| 20260905213923 | 102 | 273 | 0.0 | 7.0 | 0.00 | 0.00 | 0.00 | 26 | 1011.2 |
| 20260905213822 | 102 | 273 | 1.0 | 7.0 | 0.00 | 0.00 | 0.00 | 24 | 1011.3 |
| 20260905213731 | 102 | 273 | 2.0 | 7.0 | 0.00 | 0.00 | 0.00 | 25 | 1011.3 |
| 20260905213630 | 102 | 273 | 2.0 | 7.0 | 0.00 | 0.00 | 0.00 | 25 | 1011.3 |
| 20260905213540 | 102 | 273 | 2.0 | 9.0 | 0.00 | 0.00 | 0.00 | 26 | 1011.3 |
| 20260905213445 | 102 | 273 | 2.0 | 9.0 | 0.00 | 0.00 | 0.00 | 25 | 1011.3 |
| 20260905213355 | 103 | 270 | 2.0 | 9.0 | 0.00 | 0.00 | 0.00 | 25 | 1011.3 |
| 20260905213216 | 103 | 268 | 1.0 | 9.0 | 0.00 | 0.00 | 0.00 | 25 | 1011.3 |
| 20260905213118 | 102 | 266 | 1.0 | 9.0 | 0.00 | 0.00 | 0.00 | 26 | 1011.3 |
| 20260905213026 | 102 | 262 | 2.0 | 9.0 | 0.00 | 0.00 | 0.00 | 25 | 1011.3 |
| 20260905212929 | 103 | 262 | 2.0 | 9.0 | 0.00 | 0.00 | 0.00 | 25 | 1011.3 |
| 20260905212829 | 102 | 263 | 2.0 | 9.0 | 0.00 | 0.00 | 0.00 | 26 | 1011.4 |
| 20260905212720 | 102 | 262 | 2.0 | 9.0 | 0.00 | 0.00 | 0.00 | 25 | 1011.3 |
| 20260905212640 | 102 | 262 | 2.0 | 6.0 | 0.00 | 0.00 | 0.00 | 25 | 1011.4 |
| 20260905212550 | 103 | 286 | 1.0 | 6.0 | 0.00 | 0.00 | 0.00 | 25 | 1011.4 |
| 20260905212457 | 103 | 287 | 1.0 | 6.0 | 0.00 | 0.00 | 0.00 | 25 | 1011.4 |
| 20260905212318 | 103 | 287 | 1.0 | 6.0 | 0.00 | 0.00 | 0.00 | 24 | 1011.5 |
| 20260905212220 | 103 | 287 | 1.0 | 6.0 | 0.00 | 0.00 | 0.00 | 25 | 1011.5 |
| 20260905212125 | 103 | 287 | 1.0 | 6.0 | 0.00 | 0.00 | 0.00 | 25 | 1011.5 |
| 20260905212027 | 103 | 287 | 1.0 | 6.0 | 0.00 | 0.00 | 0.00 | 25 | 1011.5 |
| 20260905211939 | 103 | 286 | 1.0 | 8.0 | 0.00 | 0.00 | 0.00 | 27 | 1011.6 |
| 20260905211848 | 103 | 285 | 1.0 | 8.0 | 0.00 | 0.00 | 0.00 | 26 | 1011.5 |
| 20260905211750 | 103 | 284 | 0.0 | 8.0 | 0.00 | 0.00 | 0.00 | 25 | 1011.5 |
| 20260905211637 | 104 | 284 | 0.0 | 8.0 | 0.00 | 0.00 | 0.00 | 24 | 1011.7 |
| 20260905211520 | 105 | 284 | 1.0 | 8.0 | 0.00 | 0.00 | 0.00 | 24 | 1011.8 |
| 20260905211422 | 105 | 284 | 1.0 | 8.0 | 0.00 | 0.00 | 0.00 | 25 | 1011.7 |
| 20260905211325 | 105 | 284 | 1.0 | 8.0 | 0.00 | 0.00 | 0.00 | 24 | 1011.7 |
| 20260905211217 | 104 | 282 | 2.0 | 8.0 | 0.00 | 0.00 | 0.00 | 25 | 1011.7 |
| 20260905211119 | 103 | 282 | 2.0 | 8.0 | 0.00 | 0.00 | 0.00 | 25 | 1011.7 |
| 20260905211020 | 103 | 281 | 1.0 | 2.0 | 0.00 | 0.00 | 0.00 | 24 | 1011.7 |
| 20260905210929 | 103 | 281 | 1.0 | 2.0 | 0.00 | 0.00 | 0.00 | 24 | 1011.7 |
| 20260905210851 | 103 | 281 | 1.0 | 2.0 | 0.00 | 0.00 | 0.00 | 26 | 1011.7 |
| 20260905210739 | 103 | 281 | 0.0 | 2.0 | 0.00 | 0.00 | 0.00 | 26 | 1011.8 |
| 20260905210621 | 102 | 281 | 0.0 | 2.0 | 0.00 | 0.00 | 0.00 | 27 | 1011.8 |
| 20260905210529 | 101 | 281 | 0.0 | 2.0 | 0.00 | 0.00 | 0.00 | 27 | 1011.8 |
| 20260905210438 | 101 | 281 | 0.0 | 2.0 | 0.00 | 0.00 | 0.00 | 28 | 1011.7 |
| 20260905210320 | 101 | 281 | 0.0 | 2.0 | 0.00 | 0.00 | 0.00 | 27 | 1011.8 |
| 20260905210222 | 100 | 281 | 0.0 | 4.0 | 0.00 | 0.00 | 0.00 | 27 | 1011.8 |
| 20260905210124 | 100 | 281 | 0.0 | 4.0 | 0.00 | 0.00 | 0.00 | 26 | 1011.8 |
| 20260905210047 | 100 | 281 | 0.0 | 4.0 | 0.00 | 0.00 | 0.00 | 26 | 1011.8 |
| 20260905205940 | 100 | 281 | 0.0 | 4.0 | 0.00 | 0.00 | 0.00 | 27 | 1011.8 |
| 20260905205831 | 101 | 281 | 0.0 | 4.0 | 0.00 | 0.00 | 0.00 | 27 | 1011.8 |
| 20260905205731 | 101 | 281 | 1.0 | 4.0 | 0.00 | 0.00 | 0.00 | 27 | 1011.8 |
| 20260905205634 | 101 | 281 | 1.0 | 4.0 | 0.00 | 0.00 | 0.00 | 26 | 1011.9 |
| 20260905205516 | 101 | 281 | 1.0 | 4.0 | 0.00 | 0.00 | 0.00 | 26 | 1011.9 |
| 20260905205425 | 101 | 281 | 1.0 | 4.0 | 0.00 | 0.00 | 0.00 | 27 | 1011.9 |
| 20260905205330 | 101 | 281 | 1.0 | 4.0 | 0.00 | 0.00 | 0.00 | 27 | 1011.9 |
| 20260905205234 | 101 | 281 | 1.0 | 4.0 | 0.00 | 0.00 | 0.00 | 26 | 1011.8 |
| 20260905205141 | 101 | 281 | 1.0 | 4.0 | 0.00 | 0.00 | 0.00 | 28 | 1011.8 |
| 20260905205021 | 101 | 281 | 1.0 | 4.0 | 0.00 | 0.00 | 0.00 | 26 | 1011.9 |
| 20260905204923 | 101 | 281 | 1.0 | 4.0 | 0.00 | 0.00 | 0.00 | 27 | 1011.9 |
| 20260905204833 | 101 | 281 | 1.0 | 4.0 | 0.00 | 0.00 | 0.00 | 26 | 1011.9 |
| 20260905204718 | 101 | 281 | 1.0 | 5.0 | 0.00 | 0.00 | 0.00 | 26 | 1011.9 |
| 20260905204619 | 101 | 281 | 2.0 | 5.0 | 0.00 | 0.00 | 0.00 | 27 | 1012.0 |
| 20260905204529 | 101 | 281 | 1.0 | 5.0 | 0.00 | 0.00 | 0.00 | 26 | 1012.0 |
| 20260905204430 | 102 | 281 | 1.0 | 5.0 | 0.00 | 0.00 | 0.00 | 27 | 1012.0 |
| 20260905204333 | 102 | 281 | 1.0 | 5.0 | 0.00 | 0.00 | 0.00 | 27 | 1012.0 |
| 20260905204214 | 102 | 281 | 1.0 | 5.0 | 0.00 | 0.00 | 0.00 | 26 | 1012.2 |
| 20260905204129 | 102 | 281 | 1.0 | 5.0 | 0.00 | 0.00 | 0.00 | 27 | 1012.2 |
| 20260905204031 | 102 | 281 | 1.0 | 5.0 | 0.00 | 0.00 | 0.00 | 26 | 1012.1 |
| 20260905203942 | 102 | 281 | 1.0 | 5.0 | 0.00 | 0.00 | 0.00 | 26 | 1012.2 |
| 20260905203825 | 102 | 281 | 2.0 | 5.0 | 0.00 | 0.00 | 0.00 | 26 | 1012.2 |
| 20260905203727 | 102 | 280 | 2.0 | 5.0 | 0.00 | 0.00 | 0.00 | 26 | 1012.2 |
| 20260905203629 | 103 | 276 | 2.0 | 5.0 | 0.00 | 0.00 | 0.00 | 26 | 1012.2 |
| 20260905203543 | 103 | 273 | 2.0 | 5.0 | 0.00 | 0.00 | 0.00 | 27 | 1012.2 |
| 20260905203422 | 102 | 266 | 1.0 | 5.0 | 0.00 | 0.00 | 0.00 | 26 | 1012.3 |
| 20260905203324 | 102 | 262 | 1.0 | 7.0 | 0.00 | 0.00 | 0.00 | 27 | 1012.3 |
| 20260905203233 | 102 | 262 | 1.0 | 7.0 | 0.00 | 0.00 | 0.00 | 26 | 1012.3 |
| 20260905203155 | 102 | 262 | 1.0 | 7.0 | 0.00 | 0.00 | 0.00 | 26 | 1012.3 |
| 20260905203043 | 102 | 262 | 2.0 | 7.0 | 0.00 | 0.00 | 0.00 | 27 | 1012.3 |
| 20260905202923 | 102 | 259 | 2.0 | 7.0 | 0.00 | 0.00 | 0.00 | 27 | 1012.3 |
| 20260905202830 | 102 | 259 | 1.0 | 7.0 | 0.00 | 0.00 | 0.00 | 26 | 1012.3 |
| 20260905202716 | 102 | 255 | 1.0 | 7.0 | 0.00 | 0.00 | 0.00 | 26 | 1012.4 |
| 20260905202618 | 102 | 255 | 1.0 | 7.0 | 0.00 | 0.00 | 0.00 | 26 | 1012.4 |
| 20260905202519 | 102 | 255 | 1.0 | 5.0 | 0.00 | 0.00 | 0.00 | 27 | 1012.4 |
| 20260905202430 | 103 | 255 | 1.0 | 5.0 | 0.00 | 0.00 | 0.00 | 26 | 1012.4 |
| 20260905202331 | 103 | 257 | 1.0 | 5.0 | 0.00 | 0.00 | 0.00 | 27 | 1012.4 |
| 20260905202231 | 103 | 257 | 1.0 | 5.0 | 0.00 | 0.00 | 0.00 | 26 | 1012.4 |
| 20260905202124 | 103 | 260 | 1.0 | 5.0 | 0.00 | 0.00 | 0.00 | 27 | 1012.4 |
| 20260905202026 | 103 | 260 | 2.0 | 5.0 | 0.00 | 0.00 | 0.00 | 26 | 1012.5 |
| 20260905201955 | 103 | 260 | 2.0 | 6.0 | 0.00 | 0.00 | 0.00 | 26 | 1012.5 |
| 20260905201837 | 103 | 260 | 2.0 | 6.0 | 0.00 | 0.00 | 0.00 | 26 | 1012.4 |
| 20260905201719 | 103 | 260 | 2.0 | 6.0 | 0.00 | 0.00 | 0.00 | 29 | 1012.4 |
| 20260905201629 | 103 | 258 | 2.0 | 7.0 | 0.00 | 0.00 | 0.00 | 27 | 1012.4 |
| 20260905201516 | 102 | 257 | 2.0 | 7.0 | 0.00 | 0.00 | 0.00 | 28 | 1012.5 |
| 20260905201417 | 102 | 233 | 1.0 | 8.0 | 0.00 | 0.00 | 0.00 | 30 | 1012.5 |
| 20260905201325 | 101 | 233 | 1.0 | 8.0 | 0.00 | 0.00 | 0.00 | 27 | 1012.5 |
| 20260905201226 | 102 | 233 | 2.0 | 8.0 | 0.00 | 0.00 | 0.00 | 27 | 1012.4 |
| 20260905201127 | 102 | 233 | 2.0 | 8.0 | 0.00 | 0.00 | 0.00 | 27 | 1012.4 |
| 20260905201036 | 102 | 233 | 3.0 | 8.0 | 0.00 | 0.00 | 0.00 | 27 | 1012.5 |
| 20260905200916 | 103 | 233 | 4.0 | 8.0 | 0.00 | 0.00 | 0.00 | 27 | 1012.5 |
| 20260905200850 | 103 | 232 | 3.0 | 8.0 | 0.00 | 0.00 | 0.00 | 27 | 1012.5 |
| 20260905200729 | 103 | 230 | 3.0 | 8.0 | 0.00 | 0.00 | 0.00 | 27 | 1012.6 |
| 20260905200639 | 103 | 230 | 3.0 | 8.0 | 0.00 | 0.00 | 0.00 | 27 | 1012.5 |
| 20260905200521 | 103 | 229 | 1.0 | 5.0 | 0.00 | 0.00 | 0.00 | 28 | 1012.5 |
| 20260905200422 | 102 | 229 | 0.0 | 5.0 | 0.00 | 0.00 | 0.00 | 28 | 1012.4 |
| 20260905200352 | 102 | 229 | 0.0 | 5.0 | 0.00 | 0.00 | 0.00 | 29 | 1012.4 |
| 20260905200216 | 101 | 229 | 0.0 | 5.0 | 0.00 | 0.00 | 0.00 | 29 | 1012.5 |
| 20260905200137 | 101 | 229 | 1.0 | 5.0 | 0.00 | 0.00 | 0.00 | 28 | 1012.5 |
| 20260905200037 | 101 | 229 | 2.0 | 5.0 | 0.00 | 0.00 | 0.00 | 29 | 1012.5 |
| 20260905195935 | 101 | 229 | 2.0 | 5.0 | 0.00 | 0.00 | 0.00 | 29 | 1012.5 |
| 20260905195818 | 100 | 232 | 1.0 | 6.0 | 0.00 | 0.00 | 0.00 | 29 | 1012.5 |
| 20260905195720 | 100 | 232 | 1.0 | 9.0 | 0.00 | 0.00 | 0.00 | 29 | 1012.5 |
| 20260905195651 | 101 | 232 | 1.0 | 9.0 | 0.00 | 0.00 | 0.00 | 28 | 1012.5 |
| 20260905195515 | 101 | 232 | 1.0 | 9.0 | 0.00 | 0.00 | 0.00 | 28 | 1012.5 |
| 20260905195416 | 101 | 232 | 1.0 | 9.0 | 0.00 | 0.00 | 0.00 | 29 | 1012.6 |
| 20260905195326 | 101 | 232 | 2.0 | 9.0 | 0.00 | 0.00 | 0.00 | 29 | 1012.6 |
| 20260905195228 | 101 | 232 | 3.0 | 9.0 | 0.00 | 0.00 | 0.00 | 28 | 1012.6 |
| 20260905195129 | 101 | 232 | 4.0 | 9.0 | 0.00 | 0.00 | 0.00 | 29 | 1012.6 |
| 20260905195039 | 101 | 232 | 4.0 | 9.0 | 0.00 | 0.00 | 0.00 | 28 | 1012.6 |
| 20260905194921 | 102 | 233 | 4.0 | 9.0 | 0.00 | 0.00 | 0.00 | 28 | 1012.6 |
| 20260905194848 | 102 | 237 | 3.0 | 9.0 | 0.00 | 0.00 | 0.00 | 29 | 1012.7 |
| 20260905194736 | 101 | 237 | 3.0 | 9.0 | 0.00 | 0.00 | 0.00 | 29 | 1012.7 |
| 20260905194619 | 101 | 237 | 3.0 | 9.0 | 0.00 | 0.00 | 0.00 | 30 | 1012.6 |
| 20260905194519 | 100 | 237 | 2.0 | 9.0 | 0.00 | 0.00 | 0.00 | 30 | 1012.6 |
| 20260905194450 | 100 | 245 | 0.0 | 4.0 | 0.00 | 0.00 | 0.00 | 30 | 1012.6 |
| 20260905194330 | 100 | 245 | 0.0 | 4.0 | 0.00 | 0.00 | 0.00 | 30 | 1012.7 |
| 20260905194225 | 99 | 246 | 0.0 | 4.0 | 0.00 | 0.00 | 0.00 | 30 | 1012.7 |
| 20260905194117 | 99 | 246 | 0.0 | 4.0 | 0.00 | 0.00 | 0.00 | 30 | 1012.7 |
| 20260905194019 | 100 | 246 | 1.0 | 4.0 | 0.00 | 0.00 | 0.00 | 30 | 1012.8 |
| 20260905193921 | 100 | 137 | 2.0 | 4.0 | 0.00 | 0.00 | 0.00 | 29 | 1012.8 |
| 20260905193852 | 100 | 137 | 2.0 | 4.0 | 0.00 | 0.00 | 0.00 | 30 | 1012.8 |
| 20260905193738 | 100 | 137 | 2.0 | 4.0 | 0.00 | 0.00 | 0.00 | 29 | 1012.9 |
| 20260905193619 | 100 | 137 | 2.0 | 4.0 | 0.00 | 0.00 | 0.00 | 30 | 1012.9 |
| 20260905193520 | 100 | 137 | 1.0 | 5.0 | 0.00 | 0.00 | 0.00 | 30 | 1012.9 |
| 20260905193434 | 99 | 137 | 1.0 | 5.0 | 0.00 | 0.00 | 0.00 | 30 | 1012.9 |
| 20260905193317 | 99 | 137 | 2.0 | 5.0 | 0.00 | 0.00 | 0.00 | 30 | 1012.9 |
| 20260905193218 | 99 | 135 | 2.0 | 5.0 | 0.00 | 0.00 | 0.00 | 30 | 1012.9 |
| 20260905193126 | 100 | 135 | 2.0 | 5.0 | 0.00 | 0.00 | 0.00 | 30 | 1012.8 |
| 20260905193029 | 100 | 134 | 1.0 | 5.0 | 0.00 | 0.00 | 0.00 | 30 | 1012.8 |
| 20260905192931 | 100 | 134 | 2.0 | 5.0 | 0.00 | 0.00 | 0.00 | 30 | 1012.9 |
| 20260905192817 | 100 | 134 | 3.0 | 5.0 | 0.00 | 0.00 | 0.00 | 29 | 1012.8 |
| 20260905192747 | 100 | 134 | 3.0 | 5.0 | 0.00 | 0.00 | 0.00 | 30 | 1012.9 |
| 20260905192632 | 100 | 136 | 3.0 | 5.0 | 0.00 | 0.00 | 0.00 | 29 | 1012.9 |
| 20260905192601 | 100 | 141 | 3.0 | 5.0 | 0.00 | 0.00 | 0.00 | 30 | 1012.7 |
| 20260905192422 | 99 | 141 | 1.0 | 4.0 | 0.00 | 0.00 | 0.00 | 30 | 1012.8 |
| 20260905192343 | 99 | 141 | 0.0 | 3.0 | 0.00 | 0.00 | 0.00 | 30 | 1012.8 |
| 20260905192233 | 99 | 141 | 1.0 | 3.0 | 0.00 | 0.00 | 0.00 | 30 | 1012.8 |
| 20260905192134 | 99 | 141 | 1.0 | 3.0 | 0.00 | 0.00 | 0.00 | 30 | 1012.9 |
| 20260905192018 | 99 | 141 | 0.0 | 1.0 | 0.00 | 0.00 | 0.00 | 30 | 1012.9 |
| 20260905191928 | 99 | 141 | 0.0 | 1.0 | 0.00 | 0.00 | 0.00 | 30 | 1012.9 |
| 20260905191830 | 99 | 141 | 0.0 | 1.0 | 0.00 | 0.00 | 0.00 | 30 | 1013.0 |
| 20260905191732 | 99 | 141 | 0.0 | 0.0 | 0.00 | 0.00 | 0.00 | 29 | 1013.0 |
| 20260905191640 | 100 | 141 | 0.0 | 0.0 | 0.00 | 0.00 | 0.00 | 29 | 1013.0 |
| 20260905191523 | 100 | 141 | 0.0 | 0.0 | 0.00 | 0.00 | 0.00 | 29 | 1013.0 |
| 20260905191427 | 100 | 139 | 0.0 | 1.0 | 0.00 | 0.00 | 0.00 | 29 | 1013.0 |
| 20260905191315 | 100 | 139 | 0.0 | 1.0 | 0.00 | 0.00 | 0.00 | 31 | 1013.0 |
| 20260905191244 | 100 | 139 | 0.0 | 1.0 | 0.00 | 0.00 | 0.00 | 30 | 1013.0 |
| 20260905191126 | 100 | 139 | 0.0 | 4.0 | 0.00 | 0.00 | 0.00 | 30 | 1013.1 |
| 20260905191026 | 100 | 139 | 0.0 | 4.0 | 0.00 | 0.00 | 0.00 | 30 | 1013.1 |
| 20260905190936 | 99 | 139 | 0.0 | 4.0 | 0.00 | 0.00 | 0.00 | 31 | 1013.1 |
| 20260905190839 | 99 | 139 | 0.0 | 5.0 | 0.00 | 0.00 | 0.00 | 31 | 1013.1 |
| 20260905190724 | 99 | 138 | 0.0 | 5.0 | 0.00 | 0.00 | 0.00 | 32 | 1013.2 |
| 20260905190635 | 99 | 139 | 0.0 | 5.0 | 0.00 | 0.00 | 0.00 | 32 | 1013.2 |
| 20260905190517 | 98 | 187 | 0.0 | 5.0 | 0.00 | 0.00 | 0.00 | 33 | 1013.3 |
| 20260905190417 | 98 | 178 | 2.0 | 5.0 | 0.00 | 0.00 | 0.00 | 31 | 1013.3 |
| 20260905190326 | 98 | 178 | 3.0 | 5.0 | 0.00 | 0.00 | 0.00 | 31 | 1013.3 |
| 20260905190229 | 98 | 178 | 2.0 | 5.0 | 0.00 | 0.00 | 0.00 | 31 | 1013.3 |
| 20260905190137 | 98 | 178 | 2.0 | 5.0 | 0.00 | 0.00 | 0.00 | 31 | 1013.4 |
| 20260905190035 | 98 | 178 | 1.0 | 5.0 | 0.00 | 0.00 | 0.00 | 31 | 1013.4 |
| 20260905185926 | 98 | 178 | 1.0 | 5.0 | 0.00 | 0.00 | 0.00 | 32 | 1013.5 |
| 20260905185856 | 98 | 178 | 1.0 | 5.0 | 0.00 | 0.00 | 0.00 | 31 | 1013.5 |
| 20260905185717 | 98 | 178 | 2.0 | 5.0 | 0.00 | 0.00 | 0.00 | 32 | 1013.5 |
| 20260905185618 | 98 | 178 | 3.0 | 5.0 | 0.00 | 0.00 | 0.00 | 31 | 1013.6 |
| 20260905185529 | 98 | 178 | 3.0 | 5.0 | 0.00 | 0.00 | 0.00 | 31 | 1013.6 |
| 20260905185451 | 99 | 177 | 3.0 | 5.0 | 0.00 | 0.00 | 0.00 | 31 | 1013.6 |
| 20260905185317 | 99 | 176 | 2.0 | 5.0 | 0.00 | 0.00 | 0.00 | 32 | 1013.6 |
| 20260905185226 | 98 | 176 | 1.0 | 5.0 | 0.00 | 0.00 | 0.00 | 32 | 1013.6 |
| 20260905185129 | 98 | 177 | 2.0 | 5.0 | 0.00 | 0.00 | 0.00 | 32 | 1013.7 |
| 20260905185037 | 98 | 177 | 3.0 | 5.0 | 0.00 | 0.00 | 0.00 | 31 | 1013.8 |
| 20260905184919 | 98 | 178 | 1.0 | 5.0 | 0.00 | 0.00 | 0.00 | 33 | 1013.7 |
| 20260905184822 | 97 | 197 | 0.0 | 5.0 | 0.00 | 0.00 | 0.00 | 33 | 1013.7 |
| 20260905184736 | 97 | 198 | 0.0 | 5.0 | 0.00 | 0.00 | 0.00 | 32 | 1013.7 |
| 20260905184639 | 97 | 198 | 2.0 | 5.0 | 0.00 | 0.00 | 0.00 | 33 | 1013.8 |
| 20260905184518 | 97 | 198 | 2.0 | 5.0 | 0.00 | 0.00 | 0.00 | 32 | 1013.7 |
| 20260905184429 | 97 | 198 | 2.0 | 5.0 | 0.00 | 0.00 | 0.00 | 33 | 1013.7 |
| 20260905184350 | 97 | 197 | 2.0 | 5.0 | 0.00 | 0.00 | 0.00 | 32 | 1013.7 |
| 20260905184238 | 98 | 197 | 1.0 | 4.0 | 0.00 | 0.00 | 0.00 | 33 | 1013.8 |
| 20260905184118 | 98 | 197 | 2.0 | 4.0 | 0.00 | 0.00 | 0.00 | 33 | 1013.8 |
| 20260905184024 | 98 | 207 | 3.0 | 4.0 | 0.00 | 0.00 | 0.00 | 35 | 1013.7 |
| 20260905183934 | 97 | 207 | 2.0 | 4.0 | 0.00 | 0.00 | 0.00 | 32 | 1013.7 |
| 20260905183837 | 97 | 207 | 1.0 | 4.0 | 0.00 | 0.00 | 0.00 | 33 | 1013.7 |
| 20260905183717 | 97 | 207 | 1.0 | 4.0 | 0.00 | 0.00 | 0.00 | 33 | 1013.7 |
| 20260905183626 | 97 | 207 | 1.0 | 4.0 | 0.00 | 0.00 | 0.00 | 33 | 1013.7 |
| 20260905183529 | 97 | 207 | 1.0 | 4.0 | 0.00 | 0.00 | 0.00 | 33 | 1013.7 |
| 20260905183422 | 97 | 207 | 0.0 | 3.0 | 0.00 | 0.00 | 0.00 | 34 | 1013.7 |
| 20260905183343 | 96 | 207 | 0.0 | 3.0 | 0.00 | 0.00 | 0.00 | 34 | 1013.7 |
| 20260905183233 | 97 | 207 | 1.0 | 3.0 | 0.00 | 0.00 | 0.00 | 33 | 1013.7 |
| 20260905183135 | 97 | 207 | 1.0 | 3.0 | 0.00 | 0.00 | 0.00 | 33 | 1013.7 |
| 20260905183017 | 97 | 209 | 1.0 | 3.0 | 0.00 | 0.00 | 0.00 | 33 | 1013.7 |
| 20260905182919 | 97 | 209 | 0.0 | 3.0 | 0.00 | 0.00 | 0.00 | 34 | 1013.7 |
| 20260905182827 | 97 | 209 | 1.0 | 5.0 | 0.00 | 0.00 | 0.00 | 34 | 1013.8 |
| 20260905182733 | 97 | 209 | 1.0 | 6.0 | 0.00 | 0.00 | 0.00 | 33 | 1013.8 |
| 20260905182642 | 97 | 210 | 1.0 | 6.0 | 0.00 | 0.00 | 0.00 | 36 | 1013.8 |
| 20260905182543 | 96 | 210 | 1.0 | 6.0 | 0.00 | 0.00 | 0.00 | 34 | 1013.9 |
| 20260905182431 | 96 | 210 | 1.0 | 6.0 | 0.00 | 0.00 | 0.00 | 33 | 1013.9 |
| 20260905182332 | 96 | 210 | 1.0 | 6.0 | 0.00 | 0.00 | 0.00 | 34 | 1013.9 |
| 20260905182301 | 96 | 210 | 1.0 | 6.0 | 0.00 | 0.00 | 0.00 | 33 | 1013.9 |
| 20260905182142 | 96 | 210 | 2.0 | 6.0 | 0.00 | 0.00 | 0.00 | 34 | 1013.9 |
| 20260905182052 | 96 | 211 | 2.0 | 6.0 | 0.00 | 0.00 | 0.00 | 34 | 1013.9 |
| 20260905181939 | 96 | 211 | 3.0 | 6.0 | 0.00 | 0.00 | 0.00 | 34 | 1013.9 |
| 20260905181822 | 96 | 216 | 3.0 | 6.0 | 0.00 | 0.00 | 0.00 | 33 | 1014.0 |
| 20260905181724 | 96 | 217 | 2.0 | 5.0 | 0.00 | 0.00 | 0.00 | 33 | 1014.0 |
| 20260905181653 | 96 | 217 | 2.0 | 4.0 | 0.00 | 0.00 | 0.00 | 33 | 1014.0 |
| 20260905181535 | 96 | 217 | 2.0 | 4.0 | 0.00 | 0.00 | 0.00 | 33 | 1013.9 |
| 20260905181417 | 96 | 207 | 2.0 | 4.0 | 0.00 | 0.00 | 0.00 | 33 | 1013.9 |
| 20260905181345 | 96 | 207 | 2.0 | 4.0 | 0.00 | 0.00 | 0.00 | 34 | 1014.0 |
| 20260905181227 | 96 | 207 | 2.0 | 4.0 | 0.00 | 0.00 | 0.00 | 34 | 1014.0 |
| 20260905181141 | 96 | 207 | 1.0 | 4.0 | 0.00 | 0.00 | 0.00 | 35 | 1014.0 |
| 20260905181040 | 95 | 207 | 1.0 | 5.0 | 0.00 | 0.00 | 0.00 | 35 | 1013.9 |
| 20260905180921 | 95 | 207 | 1.0 | 5.0 | 0.00 | 0.00 | 0.00 | 34 | 1013.9 |
| 20260905180830 | 95 | 207 | 2.0 | 5.0 | 0.00 | 0.00 | 0.00 | 34 | 1013.9 |
| 20260905180733 | 95 | 207 | 2.0 | 5.0 | 0.00 | 0.00 | 0.00 | 35 | 1013.9 |
| 20260905180642 | 95 | 208 | 1.0 | 5.0 | 0.00 | 0.00 | 0.00 | 34 | 1013.9 |
| 20260905180526 | 95 | 208 | 1.0 | 5.0 | 0.00 | 0.00 | 0.00 | 35 | 1014.0 |
| 20260905180429 | 95 | 208 | 1.0 | 5.0 | 0.00 | 0.00 | 0.00 | 35 | 1014.0 |
| 20260905180331 | 95 | 208 | 1.0 | 5.0 | 0.00 | 0.00 | 0.00 | 35 | 1014.0 |
| 20260905180241 | 95 | 208 | 0.0 | 4.0 | 0.00 | 0.00 | 0.00 | 36 | 1014.0 |
| 20260905180123 | 95 | 208 | 0.0 | 4.0 | 0.00 | 0.00 | 0.00 | 36 | 1014.1 |
| 20260905180038 | 95 | 208 | 0.0 | 4.0 | 0.00 | 0.00 | 0.00 | 36 | 1014.1 |
| 20260905175940 | 95 | 208 | 1.0 | 4.0 | 0.00 | 0.00 | 0.00 | 35 | 1014.1 |
| 20260905175819 | 95 | 208 | 2.0 | 4.0 | 0.00 | 0.00 | 0.00 | 36 | 1014.2 |
| 20260905175721 | 95 | 208 | 3.0 | 4.0 | 0.00 | 0.00 | 0.00 | 36 | 1014.1 |
| 20260905175651 | 95 | 208 | 3.0 | 4.0 | 0.00 | 0.00 | 0.00 | 36 | 1014.1 |
| 20260905175533 | 95 | 208 | 2.0 | 4.0 | 0.00 | 0.00 | 0.00 | 35 | 1014.2 |
| 20260905175414 | 95 | 208 | 1.0 | 4.0 | 0.00 | 0.00 | 0.00 | 35 | 1014.1 |
| 20260905175329 | 95 | 208 | 1.0 | 4.0 | 0.00 | 0.00 | 0.00 | 36 | 1014.1 |
| 20260905175231 | 95 | 208 | 1.0 | 4.0 | 0.00 | 0.00 | 0.00 | 36 | 1014.2 |
| 20260905175132 | 95 | 208 | 1.0 | 4.0 | 0.00 | 0.00 | 0.00 | 36 | 1014.1 |
| 20260905175037 | 95 | 208 | 1.0 | 4.0 | 0.00 | 0.00 | 0.00 | 37 | 1014.2 |
| 20260905174950 | 94 | 208 | 1.0 | 4.0 | 0.00 | 0.00 | 0.00 | 36 | 1014.2 |
| 20260905174837 | 94 | 208 | 1.0 | 4.0 | 0.00 | 0.00 | 0.00 | 37 | 1014.1 |
| 20260905174717 | 94 | 208 | 1.0 | 4.0 | 0.00 | 0.00 | 0.00 | 37 | 1014.1 |
| 20260905174647 | 94 | 208 | 1.0 | 4.0 | 0.00 | 0.00 | 0.00 | 37 | 1014.0 |
| 20260905174553 | 94 | 213 | 1.0 | 4.0 | 0.00 | 0.00 | 0.00 | 37 | 1014.0 |
| 20260905174440 | 94 | 213 | 2.0 | 4.0 | 0.00 | 0.00 | 0.00 | 37 | 1014.0 |
| 20260905174321 | 94 | 213 | 2.0 | 4.0 | 0.00 | 0.00 | 0.00 | 38 | 1014.0 |
| 20260905174252 | 94 | 213 | 2.0 | 4.0 | 0.00 | 0.00 | 0.00 | 37 | 1014.0 |
| 20260905174133 | 94 | 213 | 1.0 | 4.0 | 0.00 | 0.00 | 0.00 | 38 | 1014.1 |
| 20260905174042 | 93 | 213 | 1.0 | 4.0 | 0.00 | 0.00 | 0.00 | 38 | 1014.1 |
| 20260905173923 | 93 | 213 | 1.0 | 4.0 | 0.00 | 0.00 | 0.00 | 38 | 1014.0 |
| 20260905173832 | 93 | 213 | 2.0 | 4.0 | 0.00 | 0.00 | 0.00 | 38 | 1014.0 |
| 20260905173737 | 93 | 213 | 1.0 | 4.0 | 0.00 | 0.00 | 0.00 | 38 | 1014.1 |
| 20260905173646 | 93 | 213 | 1.0 | 4.0 | 0.00 | 0.00 | 0.00 | 38 | 1014.1 |
| 20260905173546 | 93 | 213 | 1.0 | 4.0 | 0.00 | 0.00 | 0.00 | 39 | 1014.1 |
| 20260905173435 | 93 | 213 | 1.0 | 3.0 | 0.00 | 0.00 | 0.00 | 39 | 1014.1 |
| 20260905173318 | 93 | 213 | 1.0 | 3.0 | 0.00 | 0.00 | 0.00 | 38 | 1014.1 |
| 20260905173220 | 93 | 213 | 1.0 | 3.0 | 0.00 | 0.00 | 0.00 | 38 | 1014.1 |
| 20260905173122 | 93 | 215 | 1.0 | 3.0 | 0.00 | 0.00 | 0.00 | 39 | 1014.1 |
| 20260905173017 | 93 | 215 | 1.0 | 3.0 | 0.00 | 0.00 | 0.00 | 38 | 1014.1 |
| 20260905172918 | 93 | 217 | 1.0 | 3.0 | 0.00 | 0.00 | 0.00 | 40 | 1014.0 |
| 20260905172820 | 92 | 231 | 1.0 | 3.0 | 0.00 | 0.00 | 0.00 | 40 | 1014.1 |
| 20260905172750 | 92 | 231 | 1.0 | 3.0 | 0.00 | 0.00 | 0.00 | 39 | 1014.1 |
| 20260905172658 | 92 | 231 | 1.0 | 3.0 | 0.00 | 0.00 | 0.00 | 39 | 1014.1 |
| 20260905172519 | 92 | 231 | 1.0 | 3.0 | 0.00 | 0.00 | 0.00 | 39 | 1014.1 |
| 20260905172426 | 92 | 231 | 1.0 | 3.0 | 0.00 | 0.00 | 0.00 | 39 | 1014.1 |
| 20260905172329 | 92 | 231 | 1.0 | 3.0 | 0.00 | 0.00 | 0.00 | 40 | 1014.1 |
| 20260905172237 | 92 | 231 | 1.0 | 3.0 | 0.00 | 0.00 | 0.00 | 40 | 1014.1 |
| 20260905172120 | 92 | 231 | 1.0 | 3.0 | 0.00 | 0.00 | 0.00 | 40 | 1014.0 |
| 20260905172022 | 92 | 231 | 0.0 | 3.0 | 0.00 | 0.00 | 0.00 | 39 | 1013.9 |
| 20260905171921 | 92 | 231 | 1.0 | 3.0 | 0.00 | 0.00 | 0.00 | 39 | 1014.0 |
| 20260905171835 | 92 | 231 | 1.0 | 3.0 | 0.00 | 0.00 | 0.00 | 40 | 1014.0 |
| 20260905171715 | 92 | 231 | 1.0 | 3.0 | 0.00 | 0.00 | 0.00 | 40 | 1014.0 |
| 20260905171618 | 92 | 231 | 1.0 | 3.0 | 0.00 | 0.00 | 0.00 | 40 | 1014.0 |
| 20260905171520 | 92 | 231 | 1.0 | 3.0 | 0.00 | 0.00 | 0.00 | 40 | 1014.0 |
| 20260905171451 | 92 | 246 | 0.0 | 2.0 | 0.00 | 0.00 | 0.00 | 40 | 1014.0 |
| 20260905171332 | 91 | 257 | 0.0 | 2.0 | 0.00 | 0.00 | 0.00 | 40 | 1014.1 |
| 20260905171226 | 92 | 257 | 0.0 | 2.0 | 0.00 | 0.00 | 0.00 | 40 | 1014.1 |
| 20260905171126 | 92 | 257 | 0.0 | 3.0 | 0.00 | 0.00 | 0.00 | 40 | 1014.1 |
| 20260905171028 | 92 | 257 | 0.0 | 3.0 | 0.00 | 0.00 | 0.00 | 40 | 1014.1 |
| 20260905170937 | 91 | 257 | 0.0 | 3.0 | 0.00 | 0.00 | 0.00 | 40 | 1014.1 |
| 20260905170819 | 91 | 257 | 0.0 | 3.0 | 0.00 | 0.00 | 0.00 | 40 | 1014.1 |
| 20260905170720 | 91 | 257 | 0.0 | 3.0 | 0.00 | 0.00 | 0.00 | 40 | 1014.0 |
| 20260905170651 | 91 | 257 | 0.0 | 3.0 | 0.00 | 0.00 | 0.00 | 40 | 1014.0 |
| 20260905170517 | 91 | 257 | 0.0 | 3.0 | 0.00 | 0.00 | 0.00 | 40 | 1014.0 |
| 20260905170419 | 91 | 257 | 1.0 | 3.0 | 0.00 | 0.00 | 0.00 | 40 | 1013.9 |
| 20260905170348 | 91 | 257 | 1.0 | 3.0 | 0.00 | 0.00 | 0.00 | 40 | 1013.9 |
| 20260905170250 | 91 | 257 | 0.0 | 2.0 | 0.00 | 0.00 | 0.00 | 40 | 1013.9 |
| 20260905170137 | 91 | 257 | 0.0 | 2.0 | 0.00 | 0.00 | 0.00 | 40 | 1014.0 |
| 20260905170030 | 91 | 257 | 1.0 | 2.0 | 0.00 | 0.00 | 0.00 | 41 | 1013.9 |
| 20260905165924 | 91 | 257 | 1.0 | 2.0 | 0.00 | 0.00 | 0.00 | 40 | 1013.9 |
| 20260905165854 | 91 | 257 | 1.0 | 2.0 | 0.00 | 0.00 | 0.00 | 40 | 1013.9 |
| 20260905165735 | 91 | 257 | 0.0 | 1.0 | 0.00 | 0.00 | 0.00 | 41 | 1013.9 |
| 20260905165617 | 91 | 257 | 0.0 | 1.0 | 0.00 | 0.00 | 0.00 | 41 | 1013.9 |
| 20260905165526 | 91 | 257 | 0.0 | 1.0 | 0.00 | 0.00 | 0.00 | 41 | 1013.8 |
| 20260905165445 | 91 | 257 | 0.0 | 1.0 | 0.00 | 0.00 | 0.00 | 41 | 1013.8 |
| 20260905165334 | 91 | 257 | 0.0 | 1.0 | 0.00 | 0.00 | 0.00 | 41 | 1013.8 |
| 20260905165220 | 91 | 257 | 0.0 | 1.0 | 0.00 | 0.00 | 0.00 | 40 | 1013.8 |
| 20260905165140 | 91 | 257 | 0.0 | 1.0 | 0.00 | 0.00 | 0.00 | 41 | 1013.8 |
| 20260905165029 | 91 | 257 | 0.0 | 1.0 | 0.00 | 0.00 | 0.00 | 41 | 1013.8 |
| 20260905164932 | 91 | 257 | 0.0 | 1.0 | 0.00 | 0.00 | 0.00 | 41 | 1013.8 |
| 20260905164833 | 91 | 257 | 0.0 | 2.0 | 0.00 | 0.00 | 0.00 | 41 | 1013.8 |
| 20260905164714 | 91 | 257 | 0.0 | 3.0 | 0.00 | 0.00 | 0.00 | 41 | 1013.8 |
| 20260905164630 | 91 | 257 | 0.0 | 3.0 | 0.00 | 0.00 | 0.00 | 41 | 1013.8 |
| 20260905164529 | 91 | 257 | 0.0 | 3.0 | 0.00 | 0.00 | 0.00 | 42 | 1013.9 |
| 20260905164439 | 90 | 257 | 0.0 | 3.0 | 0.00 | 0.00 | 0.00 | 41 | 1013.9 |
| 20260905164340 | 90 | 257 | 0.0 | 3.0 | 0.00 | 0.00 | 0.00 | 41 | 1014.0 |
| 20260905164223 | 90 | 257 | 0.0 | 3.0 | 0.00 | 0.00 | 0.00 | 41 | 1014.0 |
| 20260905164124 | 90 | 257 | 0.0 | 3.0 | 0.00 | 0.00 | 0.00 | 41 | 1014.0 |
| 20260905164038 | 90 | 257 | 1.0 | 3.0 | 0.00 | 0.00 | 0.00 | 42 | 1014.0 |
| 20260905163921 | 90 | 257 | 1.0 | 3.0 | 0.00 | 0.00 | 0.00 | 41 | 1014.0 |
| 20260905163824 | 90 | 257 | 1.0 | 2.0 | 0.00 | 0.00 | 0.00 | 41 | 1013.9 |
| 20260905163725 | 90 | 257 | 1.0 | 2.0 | 0.00 | 0.00 | 0.00 | 42 | 1014.0 |
| 20260905163635 | 90 | 257 | 1.0 | 2.0 | 0.00 | 0.00 | 0.00 | 42 | 1014.0 |
| 20260905163518 | 90 | 257 | 1.0 | 2.0 | 0.00 | 0.00 | 0.00 | 42 | 1013.9 |
| 20260905163424 | 90 | 257 | 1.0 | 2.0 | 0.00 | 0.00 | 0.00 | 42 | 1014.0 |
| 20260905163355 | 90 | 257 | 0.0 | 3.0 | 0.00 | 0.00 | 0.00 | 42 | 1014.0 |
| 20260905163215 | 90 | 257 | 0.0 | 3.0 | 0.00 | 0.00 | 0.00 | 42 | 1013.9 |
| 20260905163117 | 90 | 257 | 0.0 | 3.0 | 0.00 | 0.00 | 0.00 | 42 | 1013.8 |
| 20260905163046 | 90 | 257 | 0.0 | 3.0 | 0.00 | 0.00 | 0.00 | 43 | 1013.7 |
| 20260905162947 | 90 | 257 | 0.0 | 3.0 | 0.00 | 0.00 | 0.00 | 42 | 1013.8 |
| 20260905162835 | 89 | 257 | 1.0 | 3.0 | 0.00 | 0.00 | 0.00 | 43 | 1013.8 |
| 20260905162719 | 89 | 257 | 1.0 | 3.0 | 0.00 | 0.00 | 0.00 | 43 | 1013.8 |
| 20260905162621 | 89 | 257 | 1.0 | 3.0 | 0.00 | 0.00 | 0.00 | 43 | 1013.9 |
| 20260905162522 | 89 | 257 | 0.0 | 2.0 | 0.00 | 0.00 | 0.00 | 43 | 1013.9 |
| 20260905162433 | 89 | 257 | 0.0 | 3.0 | 0.00 | 0.00 | 0.00 | 43 | 1013.9 |
| 20260905162338 | 89 | 257 | 0.0 | 3.0 | 0.00 | 0.00 | 0.00 | 43 | 1013.9 |
| 20260905162240 | 89 | 257 | 0.0 | 3.0 | 0.00 | 0.00 | 0.00 | 43 | 1013.9 |
| 20260905162148 | 89 | 257 | 0.0 | 3.0 | 0.00 | 0.00 | 0.00 | 43 | 1014.0 |
| 20260905162033 | 89 | 257 | 0.0 | 3.0 | 0.00 | 0.00 | 0.00 | 43 | 1014.0 |
| 20260905161932 | 89 | 257 | 0.0 | 3.0 | 0.00 | 0.00 | 0.00 | 44 | 1014.0 |
| 20260905161840 | 89 | 257 | 0.0 | 3.0 | 0.00 | 0.00 | 0.00 | 43 | 1013.9 |
| 20260905161722 | 89 | 257 | 1.0 | 3.0 | 0.00 | 0.00 | 0.00 | 44 | 1014.0 |
| 20260905161624 | 89 | 257 | 0.0 | 3.0 | 0.00 | 0.00 | 0.00 | 44 | 1013.9 |
| 20260905161528 | 89 | 257 | 0.0 | 0.0 | 0.00 | 0.00 | 0.00 | 44 | 1013.9 |
| 20260905161441 | 89 | 257 | 0.0 | 0.0 | 0.00 | 0.00 | 0.00 | 44 | 1013.9 |
| 20260905161324 | 89 | 257 | 0.0 | 0.0 | 0.00 | 0.00 | 0.00 | 44 | 1013.9 |
| 20260905161227 | 89 | 257 | 0.0 | 0.0 | 0.00 | 0.00 | 0.00 | 44 | 1013.9 |
| 20260905161125 | 89 | 257 | 0.0 | 0.0 | 0.00 | 0.00 | 0.00 | 44 | 1013.8 |
| 20260905161035 | 89 | 257 | 0.0 | 0.0 | 0.00 | 0.00 | 0.00 | 44 | 1013.8 |
| 20260905160918 | 89 | 257 | 0.0 | 0.0 | 0.00 | 0.00 | 0.00 | 44 | 1013.8 |
| 20260905160824 | 89 | 257 | 0.0 | 0.0 | 0.00 | 0.00 | 0.00 | 44 | 1013.8 |
| 20260905160726 | 89 | 257 | 0.0 | 0.0 | 0.00 | 0.00 | 0.00 | 44 | 1013.8 |
| 20260905160635 | 89 | 257 | 0.0 | 0.0 | 0.00 | 0.00 | 0.00 | 45 | 1013.8 |
| 20260905160517 | 89 | 257 | 0.0 | 0.0 | 0.00 | 0.00 | 0.00 | 45 | 1013.8 |
| 20260905160439 | 89 | 257 | 0.0 | 0.0 | 0.00 | 0.00 | 0.00 | 45 | 1013.8 |
| 20260905160328 | 89 | 257 | 0.0 | 0.0 | 0.00 | 0.00 | 0.00 | 45 | 1013.8 |
| 20260905160257 | 89 | 257 | 0.0 | 0.0 | 0.00 | 0.00 | 0.00 | 45 | 1013.8 |
| 20260905160142 | 89 | 257 | 0.0 | 0.0 | 0.00 | 0.00 | 0.00 | 45 | 1013.7 |
| 20260905160034 | 89 | 257 | 0.0 | 0.0 | 0.00 | 0.00 | 0.00 | 44 | 1013.7 |
| 20260905155930 | 88 | 257 | 0.0 | 0.0 | 0.00 | 0.00 | 0.00 | 45 | 1013.7 |
| 20260905155830 | 88 | 257 | 0.0 | 0.0 | 0.00 | 0.00 | 0.00 | 45 | 1013.7 |
| 20260905155740 | 88 | 257 | 0.0 | 0.0 | 0.00 | 0.00 | 0.00 | 45 | 1013.7 |
| 20260905155620 | 88 | 257 | 0.0 | 0.0 | 0.00 | 0.00 | 0.00 | 45 | 1013.7 |
| 20260905155550 | 88 | 257 | 0.0 | 0.0 | 0.00 | 0.00 | 0.00 | 46 | 1013.7 |
| 20260905155415 | 88 | 257 | 0.0 | 0.0 | 0.00 | 0.00 | 0.00 | 46 | 1013.6 |
| 20260905155318 | 88 | 257 | 0.0 | 0.0 | 0.00 | 0.00 | 0.00 | 45 | 1013.7 |
| 20260905155229 | 88 | 257 | 0.0 | 0.0 | 0.00 | 0.00 | 0.00 | 46 | 1013.7 |
| 20260905155130 | 88 | 257 | 0.0 | 3.0 | 0.00 | 0.00 | 0.00 | 46 | 1013.7 |
| 20260905155033 | 88 | 257 | 0.0 | 3.0 | 0.00 | 0.00 | 0.00 | 46 | 1013.7 |
| 20260905154921 | 88 | 257 | 0.0 | 3.0 | 0.00 | 0.00 | 0.00 | 46 | 1013.7 |
| 20260905154826 | 88 | 257 | 0.0 | 3.0 | 0.00 | 0.00 | 0.00 | 46 | 1013.7 |
| 20260905154729 | 88 | 257 | 0.0 | 3.0 | 0.00 | 0.00 | 0.00 | 46 | 1013.7 |
| 20260905154638 | 87 | 257 | 0.0 | 3.0 | 0.00 | 0.00 | 0.00 | 46 | 1013.7 |
| 20260905154521 | 87 | 257 | 0.0 | 3.0 | 0.00 | 0.00 | 0.00 | 46 | 1013.5 |
| 20260905154443 | 87 | 257 | 0.0 | 3.0 | 0.00 | 0.00 | 0.00 | 46 | 1013.6 |
| 20260905154333 | 87 | 257 | 1.0 | 3.0 | 0.00 | 0.00 | 0.00 | 46 | 1013.6 |
| 20260905154219 | 87 | 257 | 1.0 | 3.0 | 0.00 | 0.00 | 0.00 | 46 | 1013.6 |
| 20260905154140 | 87 | 257 | 0.0 | 2.0 | 0.00 | 0.00 | 0.00 | 47 | 1013.5 |
| 20260905154047 | 87 | 257 | 0.0 | 1.0 | 0.00 | 0.00 | 0.00 | 47 | 1013.5 |
| 20260905153937 | 87 | 257 | 0.0 | 1.0 | 0.00 | 0.00 | 0.00 | 47 | 1013.5 |
| 20260905153837 | 87 | 257 | 0.0 | 2.0 | 0.00 | 0.00 | 0.00 | 47 | 1013.5 |
| 20260905153718 | 87 | 257 | 0.0 | 2.0 | 0.00 | 0.00 | 0.00 | 47 | 1013.5 |
| 20260905153620 | 87 | 257 | 0.0 | 2.0 | 0.00 | 0.00 | 0.00 | 47 | 1013.6 |
| 20260905153550 | 87 | 257 | 0.0 | 2.0 | 0.00 | 0.00 | 0.00 | 47 | 1013.6 |
| 20260905153436 | 87 | 257 | 0.0 | 2.0 | 0.00 | 0.00 | 0.00 | 46 | 1013.6 |
| 20260905153317 | 87 | 257 | 0.0 | 2.0 | 0.00 | 0.00 | 0.00 | 47 | 1013.5 |
| 20260905153226 | 87 | 257 | 0.0 | 2.0 | 0.00 | 0.00 | 0.00 | 47 | 1013.5 |
| 20260905153146 | 87 | 257 | 0.0 | 2.0 | 0.00 | 0.00 | 0.00 | 46 | 1013.5 |
| 20260905153055 | 87 | 257 | 0.0 | 2.0 | 0.00 | 0.00 | 0.00 | 46 | 1013.5 |
| 20260905152933 | 87 | 257 | 0.0 | 2.0 | 0.00 | 0.00 | 0.00 | 47 | 1013.5 |
| 20260905152842 | 87 | 257 | 0.0 | 2.0 | 0.00 | 0.00 | 0.00 | 47 | 1013.5 |
| 20260905152726 | 87 | 257 | 0.0 | 0.0 | 0.00 | 0.00 | 0.00 | 47 | 1013.5 |
| 20260905152656 | 87 | 257 | 0.0 | 0.0 | 0.00 | 0.00 | 0.00 | 47 | 1013.5 |
| 20260905152518 | 87 | 257 | 0.0 | 0.0 | 0.00 | 0.00 | 0.00 | 47 | 1013.6 |
| 20260905152419 | 86 | 257 | 0.0 | 0.0 | 0.00 | 0.00 | 0.00 | 47 | 1013.7 |
| 20260905152320 | 86 | 257 | 0.0 | 0.0 | 0.00 | 0.00 | 0.00 | 47 | 1013.7 |
| 20260905152228 | 86 | 257 | 0.0 | 0.0 | 0.00 | 0.00 | 0.00 | 48 | 1013.7 |
| 20260905152137 | 86 | 257 | 0.0 | 0.0 | 0.00 | 0.00 | 0.00 | 48 | 1013.6 |
| 20260905152021 | 86 | 257 | 0.0 | 0.0 | 0.00 | 0.00 | 0.00 | 47 | 1013.7 |
| 20260905151923 | 86 | 257 | 0.0 | 0.0 | 0.00 | 0.00 | 0.00 | 47 | 1013.6 |
| 20260905151825 | 86 | 257 | 0.0 | 0.0 | 0.00 | 0.00 | 0.00 | 49 | 1013.6 |
| 20260905151735 | 86 | 257 | 0.0 | 0.0 | 0.00 | 0.00 | 0.00 | 48 | 1013.6 |
| 20260905151618 | 86 | 257 | 0.0 | 1.0 | 0.00 | 0.00 | 0.00 | 48 | 1013.6 |
| 20260905151523 | 86 | 257 | 0.0 | 3.0 | 0.00 | 0.00 | 0.00 | 48 | 1013.6 |
| 20260905151424 | 86 | 257 | 0.0 | 3.0 | 0.00 | 0.00 | 0.00 | 48 | 1013.6 |
| 20260905151334 | 86 | 257 | 0.0 | 3.0 | 0.00 | 0.00 | 0.00 | 48 | 1013.6 |
| 20260905151237 | 86 | 257 | 0.0 | 3.0 | 0.00 | 0.00 | 0.00 | 48 | 1013.5 |
| 20260905151118 | 86 | 257 | 0.0 | 3.0 | 0.00 | 0.00 | 0.00 | 48 | 1013.5 |
| 20260905151029 | 86 | 257 | 0.0 | 3.0 | 0.00 | 0.00 | 0.00 | 48 | 1013.5 |
| 20260905150950 | 85 | 257 | 0.0 | 3.0 | 0.00 | 0.00 | 0.00 | 48 | 1013.5 |
| 20260905150841 | 85 | 257 | 0.0 | 3.0 | 0.00 | 0.00 | 0.00 | 48 | 1013.5 |
| 20260905150724 | 85 | 257 | 1.0 | 3.0 | 0.00 | 0.00 | 0.00 | 48 | 1013.3 |
| 20260905150625 | 85 | 257 | 0.0 | 2.0 | 0.00 | 0.00 | 0.00 | 48 | 1013.4 |
| 20260905150555 | 85 | 257 | 0.0 | 0.0 | 0.00 | 0.00 | 0.00 | 48 | 1013.4 |
| 20260905150415 | 85 | 257 | 0.0 | 0.0 | 0.00 | 0.00 | 0.00 | 49 | 1013.2 |
| 20260905150318 | 85 | 257 | 0.0 | 0.0 | 0.00 | 0.00 | 0.00 | 48 | 1013.4 |
| 20260905150224 | 85 | 257 | 0.0 | 0.0 | 0.00 | 0.00 | 0.00 | 48 | 1013.3 |
| 20260905150132 | 85 | 257 | 0.0 | 0.0 | 0.00 | 0.00 | 0.00 | 49 | 1013.3 |
| 20260905150052 | 85 | 257 | 0.0 | 0.0 | 0.00 | 0.00 | 0.00 | 49 | 1013.3 |
| 20260905145921 | 85 | 257 | 0.0 | 0.0 | 0.00 | 0.00 | 0.00 | 49 | 1013.3 |
| 20260905145821 | 85 | 257 | 0.0 | 0.0 | 0.00 | 0.00 | 0.00 | 48 | 1013.3 |
| 20260905145732 | 85 | 257 | 0.0 | 0.0 | 0.00 | 0.00 | 0.00 | 49 | 1013.3 |
| 20260905145653 | 85 | 257 | 0.0 | 0.0 | 0.00 | 0.00 | 0.00 | 49 | 1013.3 |
| 20260905145541 | 85 | 257 | 0.0 | 0.0 | 0.00 | 0.00 | 0.00 | 49 | 1013.4 |
| 20260905145426 | 84 | 257 | 0.0 | 0.0 | 0.00 | 0.00 | 0.00 | 49 | 1013.4 |
| 20260905145336 | 84 | 257 | 0.0 | 0.0 | 0.00 | 0.00 | 0.00 | 49 | 1013.4 |
| 20260905145216 | 84 | 257 | 0.0 | 0.0 | 0.00 | 0.00 | 0.00 | 49 | 1013.4 |
| 20260905145118 | 84 | 257 | 0.0 | 0.0 | 0.00 | 0.00 | 0.00 | 50 | 1013.4 |
| 20260905145020 | 84 | 257 | 0.0 | 0.0 | 0.00 | 0.00 | 0.00 | 50 | 1013.4 |
| 20260905144931 | 84 | 257 | 0.0 | 0.0 | 0.00 | 0.00 | 0.00 | 50 | 1013.4 |
| 20260905144837 | 84 | 257 | 0.0 | 0.0 | 0.00 | 0.00 | 0.00 | 51 | 1013.4 |
| 20260905144718 | 84 | 257 | 0.0 | 0.0 | 0.00 | 0.00 | 0.00 | 51 | 1013.4 |
| 20260905144628 | 84 | 257 | 0.0 | 0.0 | 0.00 | 0.00 | 0.00 | 51 | 1013.4 |
| 20260905144529 | 84 | 257 | 0.0 | 0.0 | 0.00 | 0.00 | 0.00 | 52 | 1013.4 |
| 20260905144432 | 84 | 257 | 0.0 | 0.0 | 0.00 | 0.00 | 0.00 | 52 | 1013.4 |
| 20260905144341 | 84 | 257 | 0.0 | 0.0 | 0.00 | 0.00 | 0.00 | 52 | 1013.4 |
| 20260905144228 | 83 | 257 | 0.0 | 0.0 | 0.00 | 0.00 | 0.00 | 51 | 1013.4 |
| 20260905144130 | 83 | 257 | 0.0 | 0.0 | 0.00 | 0.00 | 0.00 | 51 | 1013.5 |
| 20260905144033 | 83 | 257 | 0.0 | 0.0 | 0.00 | 0.00 | 0.00 | 51 | 1013.4 |
| 20260905143916 | 83 | 257 | 0.0 | 2.0 | 0.00 | 0.00 | 0.00 | 51 | 1013.4 |
| 20260905143845 | 83 | 257 | 0.0 | 3.0 | 0.00 | 0.00 | 0.00 | 51 | 1013.3 |
| 20260905143724 | 83 | 257 | 0.0 | 3.0 | 0.00 | 0.00 | 0.00 | 51 | 1013.3 |
| 20260905143638 | 83 | 257 | 0.0 | 3.0 | 0.00 | 0.00 | 0.00 | 51 | 1013.3 |
| 20260905143519 | 83 | 257 | 0.0 | 3.0 | 0.00 | 0.00 | 0.00 | 51 | 1013.3 |
| 20260905143428 | 83 | 257 | 0.0 | 3.0 | 0.00 | 0.00 | 0.00 | 51 | 1013.3 |
| 20260905143330 | 83 | 257 | 0.0 | 3.0 | 0.00 | 0.00 | 0.00 | 50 | 1013.4 |
| 20260905143231 | 83 | 257 | 0.0 | 3.0 | 0.00 | 0.00 | 0.00 | 50 | 1013.4 |
| 20260905143141 | 83 | 257 | 1.0 | 3.0 | 0.00 | 0.00 | 0.00 | 50 | 1013.4 |
| 20260905143021 | 83 | 257 | 1.0 | 3.0 | 0.00 | 0.00 | 0.00 | 50 | 1013.4 |
| 20260905142956 | 83 | 257 | 0.0 | 2.0 | 0.00 | 0.00 | 0.00 | 50 | 1013.4 |
| 20260905142736 | 83 | 257 | 0.0 | 2.0 | 0.00 | 0.00 | 0.00 | 50 | 1013.3 |
| 20260905142619 | 83 | 257 | 0.0 | 5.0 | 0.00 | 0.00 | 0.00 | 50 | 1013.4 |
| 20260905142542 | 83 | 257 | 0.0 | 5.0 | 0.00 | 0.00 | 0.00 | 50 | 1013.4 |
| 20260905142430 | 83 | 257 | 0.0 | 5.0 | 0.00 | 0.00 | 0.00 | 50 | 1013.4 |
| 20260905142319 | 83 | 257 | 0.0 | 5.0 | 0.00 | 0.00 | 0.00 | 51 | 1013.3 |
| 20260905142225 | 83 | 257 | 1.0 | 5.0 | 0.00 | 0.00 | 0.00 | 50 | 1013.2 |
| 20260905142135 | 83 | 257 | 1.0 | 5.0 | 0.00 | 0.00 | 0.00 | 50 | 1013.2 |
| 20260905142035 | 83 | 257 | 1.0 | 5.0 | 0.00 | 0.00 | 0.00 | 50 | 1013.3 |
| 20260905141916 | 83 | 257 | 1.0 | 5.0 | 0.00 | 0.00 | 0.00 | 50 | 1013.2 |
| 20260905141825 | 83 | 257 | 2.0 | 5.0 | 0.00 | 0.00 | 0.00 | 50 | 1013.2 |
| 20260905141728 | 83 | 257 | 2.0 | 4.0 | 0.00 | 0.00 | 0.00 | 49 | 1013.2 |
| 20260905141628 | 83 | 257 | 2.0 | 4.0 | 0.00 | 0.00 | 0.00 | 49 | 1013.2 |
| 20260905141521 | 83 | 257 | 1.0 | 4.0 | 0.00 | 0.00 | 0.00 | 50 | 1013.1 |
| 20260905141421 | 83 | 258 | 1.0 | 4.0 | 0.00 | 0.00 | 0.00 | 50 | 1013.1 |
| 20260905141332 | 83 | 258 | 1.0 | 4.0 | 0.00 | 0.00 | 0.00 | 50 | 1013.1 |
| 20260905141233 | 83 | 258 | 1.0 | 4.0 | 0.00 | 0.00 | 0.00 | 50 | 1013.0 |
| 20260905141143 | 83 | 258 | 0.0 | 2.0 | 0.00 | 0.00 | 0.00 | 50 | 1013.0 |
| 20260905141022 | 83 | 258 | 0.0 | 2.0 | 0.00 | 0.00 | 0.00 | 50 | 1013.0 |
| 20260905140945 | 83 | 258 | 0.0 | 2.0 | 0.00 | 0.00 | 0.00 | 50 | 1013.0 |
| 20260905140836 | 83 | 258 | 0.0 | 3.0 | 0.00 | 0.00 | 0.00 | 50 | 1013.0 |
| 20260905140739 | 83 | 258 | 0.0 | 3.0 | 0.00 | 0.00 | 0.00 | 51 | 1012.9 |
| 20260905140620 | 83 | 258 | 0.0 | 3.0 | 0.00 | 0.00 | 0.00 | 51 | 1013.0 |
| 20260905140530 | 83 | 258 | 0.0 | 3.0 | 0.00 | 0.00 | 0.00 | 52 | 1013.0 |
| 20260905140433 | 83 | 258 | 0.0 | 3.0 | 0.00 | 0.00 | 0.00 | 52 | 1012.9 |
| 20260905140335 | 83 | 258 | 0.0 | 3.0 | 0.00 | 0.00 | 0.00 | 52 | 1013.0 |
| 20260905140220 | 83 | 258 | 0.0 | 3.0 | 0.00 | 0.00 | 0.00 | 52 | 1012.9 |
| 20260905140132 | 83 | 258 | 1.0 | 3.0 | 0.00 | 0.00 | 0.00 | 52 | 1012.9 |
| 20260905140045 | 83 | 258 | 1.0 | 3.0 | 0.00 | 0.00 | 0.00 | 52 | 1012.9 |
| 20260905135916 | 83 | 258 | 0.0 | 1.0 | 0.00 | 0.00 | 0.00 | 52 | 1012.9 |
| 20260905135825 | 83 | 258 | 0.0 | 1.0 | 0.00 | 0.00 | 0.00 | 52 | 1012.9 |
| 20260905135729 | 83 | 258 | 0.0 | 1.0 | 0.00 | 0.00 | 0.00 | 52 | 1012.9 |
| 20260905135635 | 83 | 258 | 0.0 | 1.0 | 0.00 | 0.00 | 0.00 | 52 | 1012.9 |
| 20260905135518 | 83 | 258 | 0.0 | 1.0 | 0.00 | 0.00 | 0.00 | 52 | 1013.0 |
| 20260905135426 | 83 | 258 | 0.0 | 1.0 | 0.00 | 0.00 | 0.00 | 52 | 1012.8 |
| 20260905135328 | 82 | 258 | 0.0 | 1.0 | 0.00 | 0.00 | 0.00 | 52 | 1012.8 |
| 20260905135230 | 82 | 258 | 0.0 | 1.0 | 0.00 | 0.00 | 0.00 | 52 | 1012.8 |
| 20260905135116 | 82 | 258 | 0.0 | 1.0 | 0.00 | 0.00 | 0.00 | 52 | 1012.7 |
| 20260905135025 | 82 | 258 | 0.0 | 1.0 | 0.00 | 0.00 | 0.00 | 52 | 1012.8 |
| 20260905134929 | 82 | 258 | 0.0 | 1.0 | 0.00 | 0.00 | 0.00 | 52 | 1012.8 |
| 20260905134839 | 82 | 258 | 0.0 | 1.0 | 0.00 | 0.00 | 0.00 | 52 | 1012.8 |
| 20260905134732 | 82 | 258 | 0.0 | 0.0 | 0.00 | 0.00 | 0.00 | 52 | 1012.8 |
| 20260905134634 | 82 | 258 | 0.0 | 0.0 | 0.00 | 0.00 | 0.00 | 52 | 1012.9 |
| 20260905134520 | 82 | 258 | 0.0 | 1.0 | 0.00 | 0.00 | 0.00 | 52 | 1012.8 |
| 20260905134431 | 82 | 258 | 0.0 | 1.0 | 0.00 | 0.00 | 0.00 | 52 | 1012.8 |
| 20260905134330 | 82 | 258 | 0.0 | 1.0 | 0.00 | 0.00 | 0.00 | 52 | 1012.9 |
| 20260905134239 | 82 | 258 | 0.0 | 1.0 | 0.00 | 0.00 | 0.00 | 51 | 1012.9 |
| 20260905134121 | 82 | 258 | 0.0 | 1.0 | 0.00 | 0.00 | 0.00 | 51 | 1012.7 |
| 20260905134023 | 82 | 258 | 0.0 | 1.0 | 0.00 | 0.00 | 0.00 | 52 | 1012.7 |
| 20260905133953 | 82 | 258 | 0.0 | 1.0 | 0.00 | 0.00 | 0.00 | 52 | 1012.7 |
| 20260905133839 | 82 | 258 | 0.0 | 1.0 | 0.00 | 0.00 | 0.00 | 52 | 1012.7 |
| 20260905133726 | 82 | 258 | 0.0 | 1.0 | 0.00 | 0.00 | 0.00 | 52 | 1012.7 |
| 20260905133628 | 82 | 146 | 0.0 | 1.0 | 0.00 | 0.00 | 0.00 | 52 | 1012.7 |
| 20260905133529 | 82 | 146 | 0.0 | 1.0 | 0.00 | 0.00 | 0.00 | 52 | 1012.7 |
| 20260905133439 | 82 | 146 | 0.0 | 1.0 | 0.00 | 0.00 | 0.00 | 52 | 1012.7 |
| 20260905133320 | 82 | 146 | 0.0 | 1.0 | 0.00 | 0.00 | 0.00 | 52 | 1012.6 |
| 20260905133222 | 82 | 250 | 0.0 | 0.0 | 0.00 | 0.00 | 0.00 | 52 | 1012.6 |
| 20260905133137 | 82 | 250 | 0.0 | 0.0 | 0.00 | 0.00 | 0.00 | 52 | 1012.6 |
| 20260905133036 | 82 | 250 | 0.0 | 0.0 | 0.00 | 0.00 | 0.00 | 51 | 1012.6 |
| 20260905132918 | 82 | 250 | 0.0 | 0.0 | 0.00 | 0.00 | 0.00 | 51 | 1012.5 |
| 20260905132821 | 82 | 250 | 0.0 | 0.0 | 0.00 | 0.00 | 0.00 | 51 | 1012.5 |
| 20260905132729 | 82 | 250 | 0.0 | 0.0 | 0.00 | 0.00 | 0.00 | 51 | 1012.5 |
| 20260905132659 | 82 | 250 | 0.0 | 0.0 | 0.00 | 0.00 | 0.00 | 51 | 1012.5 |
| 20260905132524 | 82 | 250 | 0.0 | 0.0 | 0.00 | 0.00 | 0.00 | 51 | 1012.5 |
| 20260905132424 | 82 | 250 | 0.0 | 0.0 | 0.00 | 0.00 | 0.00 | 50 | 1012.5 |
| 20260905132334 | 82 | 250 | 0.0 | 0.0 | 0.00 | 0.00 | 0.00 | 50 | 1012.5 |
| 20260905132216 | 82 | 250 | 0.0 | 0.0 | 0.00 | 0.00 | 0.00 | 50 | 1012.5 |
| 20260905132119 | 82 | 250 | 0.0 | 0.0 | 0.00 | 0.00 | 0.00 | 50 | 1012.5 |
| 20260905132021 | 82 | 250 | 0.0 | 0.0 | 0.00 | 0.00 | 0.00 | 50 | 1012.6 |
| 20260905131952 | 82 | 250 | 0.0 | 0.0 | 0.00 | 0.00 | 0.00 | 50 | 1012.6 |
| 20260905131818 | 82 | 250 | 0.0 | 0.0 | 0.00 | 0.00 | 0.00 | 50 | 1012.4 |
| 20260905131746 | 83 | 250 | 0.0 | 0.0 | 0.00 | 0.00 | 0.00 | 49 | 1012.6 |
| 20260905131646 | 83 | 250 | 0.0 | 0.0 | 0.00 | 0.00 | 0.00 | 49 | 1012.5 |
| 20260905131554 | 83 | 250 | 0.0 | 0.0 | 0.00 | 0.00 | 0.00 | 49 | 1012.5 |
| 20260905131415 | 83 | 250 | 0.0 | 2.0 | 0.00 | 0.00 | 0.00 | 48 | 1012.5 |
| 20260905131325 | 83 | 250 | 0.0 | 2.0 | 0.00 | 0.00 | 0.00 | 48 | 1012.6 |
| 20260905131228 | 83 | 250 | 0.0 | 3.0 | 0.00 | 0.00 | 0.00 | 47 | 1012.6 |
| 20260905131133 | 83 | 250 | 0.0 | 3.0 | 0.00 | 0.00 | 0.00 | 47 | 1012.6 |
| 20260905131041 | 83 | 250 | 0.0 | 3.0 | 0.00 | 0.00 | 0.00 | 47 | 1012.5 |
| 20260905130923 | 83 | 250 | 0.0 | 3.0 | 0.00 | 0.00 | 0.00 | 47 | 1012.5 |
| 20260905130826 | 83 | 250 | 0.0 | 3.0 | 0.00 | 0.00 | 0.00 | 47 | 1012.5 |
| 20260905130729 | 83 | 250 | 0.0 | 3.0 | 0.00 | 0.00 | 0.00 | 47 | 1012.5 |
| 20260905130637 | 83 | 250 | 0.0 | 3.0 | 0.00 | 0.00 | 0.00 | 47 | 1012.5 |
| 20260905130523 | 83 | 250 | 1.0 | 4.0 | 0.00 | 0.00 | 0.00 | 47 | 1012.4 |
| 20260905130446 | 83 | 250 | 1.0 | 4.0 | 0.00 | 0.00 | 0.00 | 47 | 1012.4 |
| 20260905130228 | 83 | 250 | 1.0 | 4.0 | 0.00 | 0.00 | 0.00 | 47 | 1012.4 |
| 20260905130137 | 83 | 250 | 1.0 | 4.0 | 0.00 | 0.00 | 0.00 | 47 | 1012.4 |
| 20260905130029 | 83 | 250 | 1.0 | 4.0 | 0.00 | 0.00 | 0.00 | 47 | 1012.4 |
| 20260905125919 | 83 | 250 | 1.0 | 4.0 | 0.00 | 0.00 | 0.00 | 47 | 1012.4 |
| 20260905125854 | 83 | 250 | 1.0 | 4.0 | 0.00 | 0.00 | 0.00 | 47 | 1012.4 |
| 20260905125733 | 83 | 250 | 2.0 | 4.0 | 0.00 | 0.00 | 0.00 | 47 | 1012.4 |
| 20260905125643 | 83 | 250 | 2.0 | 3.0 | 0.00 | 0.00 | 0.00 | 47 | 1012.3 |
| 20260905125523 | 83 | 250 | 1.0 | 3.0 | 0.00 | 0.00 | 0.00 | 47 | 1012.2 |
| 20260905125454 | 83 | 250 | 1.0 | 3.0 | 0.00 | 0.00 | 0.00 | 47 | 1012.2 |
| 20260905125334 | 83 | 250 | 1.0 | 3.0 | 0.00 | 0.00 | 0.00 | 47 | 1012.4 |
| 20260905125215 | 83 | 250 | 0.0 | 2.0 | 0.00 | 0.00 | 0.00 | 47 | 1012.3 |
| 20260905125129 | 83 | 250 | 0.0 | 2.0 | 0.00 | 0.00 | 0.00 | 47 | 1012.3 |
| 20260905125050 | 83 | 250 | 0.0 | 2.0 | 0.00 | 0.00 | 0.00 | 47 | 1012.2 |
| 20260905124939 | 83 | 250 | 0.0 | 2.0 | 0.00 | 0.00 | 0.00 | 47 | 1012.2 |
| 20260905124821 | 83 | 250 | 0.0 | 3.0 | 0.00 | 0.00 | 0.00 | 47 | 1012.1 |
| 20260905124724 | 83 | 250 | 1.0 | 3.0 | 0.00 | 0.00 | 0.00 | 47 | 1012.1 |
| 20260905124625 | 83 | 250 | 1.0 | 3.0 | 0.00 | 0.00 | 0.00 | 47 | 1012.2 |
| 20260905124535 | 83 | 250 | 1.0 | 3.0 | 0.00 | 0.00 | 0.00 | 47 | 1012.2 |
| 20260905124421 | 83 | 250 | 0.0 | 3.0 | 0.00 | 0.00 | 0.00 | 47 | 1012.1 |
| 20260905124323 | 83 | 250 | 0.0 | 3.0 | 0.00 | 0.00 | 0.00 | 47 | 1012.2 |
| 20260905124234 | 83 | 250 | 0.0 | 3.0 | 0.00 | 0.00 | 0.00 | 47 | 1012.2 |
| 20260905124135 | 83 | 250 | 0.0 | 3.0 | 0.00 | 0.00 | 0.00 | 47 | 1012.2 |
| 20260905124016 | 83 | 250 | 0.0 | 3.0 | 0.00 | 0.00 | 0.00 | 48 | 1012.2 |
| 20260905123921 | 83 | 250 | 0.0 | 0.0 | 0.00 | 0.00 | 0.00 | 47 | 1012.2 |
| 20260905123832 | 83 | 250 | 0.0 | 0.0 | 0.00 | 0.00 | 0.00 | 47 | 1012.2 |
| 20260905123733 | 83 | 250 | 0.0 | 0.0 | 0.00 | 0.00 | 0.00 | 47 | 1012.1 |
| 20260905123702 | 83 | 250 | 0.0 | 0.0 | 0.00 | 0.00 | 0.00 | 47 | 1012.2 |
| 20260905123522 | 83 | 250 | 0.0 | 0.0 | 0.00 | 0.00 | 0.00 | 47 | 1012.1 |
| 20260905123423 | 83 | 250 | 0.0 | 0.0 | 0.00 | 0.00 | 0.00 | 47 | 1012.1 |
| 20260905123334 | 83 | 250 | 0.0 | 0.0 | 0.00 | 0.00 | 0.00 | 47 | 1012.1 |
| 20260905123219 | 83 | 250 | 0.0 | 0.0 | 0.00 | 0.00 | 0.00 | 47 | 1012.1 |
| 20260905123121 | 83 | 250 | 0.0 | 0.0 | 0.00 | 0.00 | 0.00 | 47 | 1012.0 |
| 20260905123022 | 83 | 250 | 0.0 | 0.0 | 0.00 | 0.00 | 0.00 | 47 | 1012.0 |
| 20260905122933 | 83 | 250 | 0.0 | 0.0 | 0.00 | 0.00 | 0.00 | 47 | 1012.0 |
| 20260905122835 | 83 | 250 | 0.0 | 0.0 | 0.00 | 0.00 | 0.00 | 47 | 1011.9 |
| 20260905122717 | 83 | 250 | 0.0 | 0.0 | 0.00 | 0.00 | 0.00 | 47 | 1011.9 |
| 20260905122650 | 83 | 250 | 0.0 | 0.0 | 0.00 | 0.00 | 0.00 | 47 | 1011.9 |
| 20260905122530 | 83 | 250 | 0.0 | 0.0 | 0.00 | 0.00 | 0.00 | 47 | 1011.9 |
| 20260905122432 | 83 | 250 | 0.0 | 0.0 | 0.00 | 0.00 | 0.00 | 47 | 1011.9 |
| 20260905122341 | 83 | 250 | 0.0 | 0.0 | 0.00 | 0.00 | 0.00 | 46 | 1011.9 |
| 20260905122223 | 83 | 250 | 0.0 | 0.0 | 0.00 | 0.00 | 0.00 | 46 | 1012.0 |
| 20260905122125 | 83 | 250 | 0.0 | 0.0 | 0.00 | 0.00 | 0.00 | 47 | 1012.0 |
| 20260905122039 | 83 | 250 | 0.0 | 0.0 | 0.00 | 0.00 | 0.00 | 47 | 1012.0 |
| 20260905121919 | 83 | 250 | 0.0 | 0.0 | 0.00 | 0.00 | 0.00 | 46 | 1012.0 |
| 20260905121821 | 83 | 250 | 0.0 | 0.0 | 0.00 | 0.00 | 0.00 | 46 | 1012.0 |
| 20260905121732 | 83 | 250 | 0.0 | 0.0 | 0.00 | 0.00 | 0.00 | 46 | 1012.0 |
| 20260905121615 | 83 | 250 | 0.0 | 0.0 | 0.00 | 0.00 | 0.00 | 46 | 1012.2 |
| 20260905121518 | 83 | 250 | 0.0 | 0.0 | 0.00 | 0.00 | 0.00 | 46 | 1012.1 |
| 20260905121422 | 83 | 250 | 0.0 | 0.0 | 0.00 | 0.00 | 0.00 | 46 | 1012.0 |
| 20260905121340 | 83 | 250 | 0.0 | 0.0 | 0.00 | 0.00 | 0.00 | 46 | 1012.0 |
| 20260905121249 | 83 | 250 | 0.0 | 0.0 | 0.00 | 0.00 | 0.00 | 46 | 1012.0 |
| 20260905121129 | 83 | 250 | 0.0 | 0.0 | 0.00 | 0.00 | 0.00 | 45 | 1012.0 |
| 20260905121038 | 83 | 250 | 0.0 | 0.0 | 0.00 | 0.00 | 0.00 | 45 | 1012.1 |
| 20260905120919 | 83 | 250 | 0.0 | 0.0 | 0.00 | 0.00 | 0.00 | 46 | 1011.9 |
| 20260905120821 | 83 | 250 | 0.0 | 0.0 | 0.00 | 0.00 | 0.00 | 46 | 1011.9 |
| 20260905120752 | 83 | 250 | 0.0 | 0.0 | 0.00 | 0.00 | 0.00 | 45 | 1011.9 |
| 20260905120638 | 83 | 250 | 0.0 | 0.0 | 0.00 | 0.00 | 0.00 | 46 | 1011.9 |
| 20260905120543 | 83 | 250 | 0.0 | 0.0 | 0.00 | 0.00 | 0.00 | 46 | 1011.8 |
| 20260905120432 | 83 | 250 | 0.0 | 0.0 | 0.00 | 0.00 | 0.00 | 46 | 1011.8 |
| 20260905120334 | 83 | 250 | 0.0 | 0.0 | 0.00 | 0.00 | 0.00 | 46 | 1011.8 |
| 20260905120215 | 83 | 250 | 0.0 | 0.0 | 0.00 | 0.00 | 0.00 | 45 | 1011.8 |
| 20260905120117 | 84 | 250 | 0.0 | 0.0 | 0.00 | 0.00 | 0.00 | 45 | 1011.8 |
| 20260905120038 | 84 | 250 | 0.0 | 0.0 | 0.00 | 0.00 | 0.00 | 45 | 1011.8 |
| 20260905115933 | 84 | 250 | 0.0 | 0.0 | 0.00 | 0.00 | 0.00 | 45 | 1011.9 |
| 20260905115834 | 84 | 250 | 0.0 | 0.0 | 0.00 | 0.00 | 0.00 | 45 | 1011.9 |
| 20260905115715 | 84 | 250 | 0.0 | 0.0 | 0.00 | 0.00 | 0.00 | 45 | 1012.0 |
| 20260905115625 | 84 | 250 | 0.0 | 0.0 | 0.00 | 0.00 | 0.00 | 45 | 1011.9 |
| 20260905115528 | 84 | 250 | 0.0 | 0.0 | 0.00 | 0.00 | 0.00 | 44 | 1011.9 |
| 20260905115455 | 84 | 250 | 0.0 | 0.0 | 0.00 | 0.00 | 0.00 | 45 | 1012.0 |
| 20260905115318 | 84 | 250 | 0.0 | 0.0 | 0.00 | 0.00 | 0.00 | 45 | 1011.9 |
| 20260905115219 | 84 | 250 | 0.0 | 0.0 | 0.00 | 0.00 | 0.00 | 45 | 1011.9 |
| 20260905115130 | 84 | 250 | 0.0 | 0.0 | 0.00 | 0.00 | 0.00 | 45 | 1011.9 |
| 20260905115033 | 84 | 250 | 0.0 | 0.0 | 0.00 | 0.00 | 0.00 | 45 | 1011.8 |
| 20260905114915 | 84 | 250 | 0.0 | 0.0 | 0.00 | 0.00 | 0.00 | 45 | 1011.9 |
| 20260905114817 | 84 | 250 | 0.0 | 0.0 | 0.00 | 0.00 | 0.00 | 45 | 1011.9 |
| 20260905114732 | 84 | 250 | 0.0 | 0.0 | 0.00 | 0.00 | 0.00 | 45 | 1011.9 |
| 20260905114632 | 84 | 250 | 0.0 | 0.0 | 0.00 | 0.00 | 0.00 | 45 | 1011.8 |
| 20260905114535 | 84 | 250 | 0.0 | 0.0 | 0.00 | 0.00 | 0.00 | 45 | 1011.9 |
| 20260905114416 | 83 | 250 | 0.0 | 0.0 | 0.00 | 0.00 | 0.00 | 45 | 1011.8 |
| 20260905114325 | 83 | 250 | 0.0 | 0.0 | 0.00 | 0.00 | 0.00 | 45 | 1011.8 |
| 20260905114248 | 83 | 250 | 0.0 | 0.0 | 0.00 | 0.00 | 0.00 | 46 | 1011.8 |
| 20260905114032 | 83 | 250 | 0.0 | 0.0 | 0.00 | 0.00 | 0.00 | 46 | 1011.8 |
| 20260905113941 | 83 | 250 | 0.0 | 0.0 | 0.00 | 0.00 | 0.00 | 47 | 1011.8 |
| 20260905113819 | 83 | 250 | 0.0 | 0.0 | 0.00 | 0.00 | 0.00 | 47 | 1011.8 |
| 20260905113749 | 83 | 250 | 0.0 | 0.0 | 0.00 | 0.00 | 0.00 | 47 | 1011.8 |
| 20260905113649 | 83 | 250 | 0.0 | 0.0 | 0.00 | 0.00 | 0.00 | 47 | 1011.8 |
| 20260905113516 | 83 | 250 | 0.0 | 0.0 | 0.00 | 0.00 | 0.00 | 47 | 1011.8 |
| 20260905113447 | 83 | 250 | 0.0 | 0.0 | 0.00 | 0.00 | 0.00 | 46 | 1011.8 |
| 20260905113326 | 83 | 250 | 0.0 | 0.0 | 0.00 | 0.00 | 0.00 | 47 | 1011.8 |
| 20260905113254 | 83 | 250 | 0.0 | 0.0 | 0.00 | 0.00 | 0.00 | 47 | 1011.8 |
| 20260905113119 | 83 | 250 | 0.0 | 0.0 | 0.00 | 0.00 | 0.00 | 47 | 1011.8 |
| 20260905113049 | 83 | 250 | 0.0 | 0.0 | 0.00 | 0.00 | 0.00 | 47 | 1011.8 |
| 20260905112931 | 83 | 250 | 0.0 | 0.0 | 0.00 | 0.00 | 0.00 | 46 | 1011.8 |
| 20260905112832 | 83 | 250 | 0.0 | 0.0 | 0.00 | 0.00 | 0.00 | 46 | 1011.8 |
| 20260905112742 | 83 | 250 | 0.0 | 0.0 | 0.00 | 0.00 | 0.00 | 46 | 1011.8 |
| 20260905112623 | 83 | 250 | 0.0 | 0.0 | 0.00 | 0.00 | 0.00 | 46 | 1011.8 |
| 20260905112530 | 84 | 250 | 0.0 | 0.0 | 0.00 | 0.00 | 0.00 | 46 | 1011.8 |
| 20260905112433 | 84 | 250 | 0.0 | 0.0 | 0.00 | 0.00 | 0.00 | 46 | 1011.8 |
| 20260905112341 | 84 | 250 | 0.0 | 0.0 | 0.00 | 0.00 | 0.00 | 45 | 1011.8 |
| 20260905112223 | 84 | 250 | 0.0 | 0.0 | 0.00 | 0.00 | 0.00 | 45 | 1011.8 |
| 20260905112124 | 84 | 250 | 0.0 | 0.0 | 0.00 | 0.00 | 0.00 | 45 | 1011.9 |
| 20260905112025 | 84 | 250 | 0.0 | 0.0 | 0.00 | 0.00 | 0.00 | 45 | 1011.8 |
| 20260905111939 | 84 | 250 | 0.0 | 0.0 | 0.00 | 0.00 | 0.00 | 45 | 1011.8 |
| 20260905111820 | 84 | 250 | 0.0 | 0.0 | 0.00 | 0.00 | 0.00 | 45 | 1011.7 |
| 20260905111730 | 84 | 250 | 0.0 | 0.0 | 0.00 | 0.00 | 0.00 | 45 | 1011.7 |
| 20260905111632 | 84 | 250 | 0.0 | 0.0 | 0.00 | 0.00 | 0.00 | 45 | 1011.7 |
| 20260905111539 | 84 | 250 | 0.0 | 0.0 | 0.00 | 0.00 | 0.00 | 45 | 1011.7 |
| 20260905111421 | 84 | 250 | 0.0 | 0.0 | 0.00 | 0.00 | 0.00 | 45 | 1011.6 |
| 20260905111322 | 84 | 250 | 0.0 | 0.0 | 0.00 | 0.00 | 0.00 | 45 | 1011.7 |
| 20260905111257 | 84 | 250 | 0.0 | 0.0 | 0.00 | 0.00 | 0.00 | 45 | 1011.7 |
| 20260905111118 | 84 | 250 | 0.0 | 0.0 | 0.00 | 0.00 | 0.00 | 45 | 1011.7 |
| 20260905111019 | 85 | 250 | 0.0 | 0.0 | 0.00 | 0.00 | 0.00 | 45 | 1011.7 |
| 20260905110929 | 85 | 250 | 0.0 | 0.0 | 0.00 | 0.00 | 0.00 | 45 | 1011.7 |
| 20260905110852 | 85 | 250 | 0.0 | 0.0 | 0.00 | 0.00 | 0.00 | 45 | 1011.7 |
| 20260905110740 | 85 | 250 | 0.0 | 0.0 | 0.00 | 0.00 | 0.00 | 44 | 1011.7 |
| 20260905110641 | 85 | 250 | 0.0 | 0.0 | 0.00 | 0.00 | 0.00 | 44 | 1011.7 |
| 20260905110530 | 85 | 250 | 0.0 | 0.0 | 0.00 | 0.00 | 0.00 | 44 | 1011.7 |
| 20260905110441 | 85 | 250 | 0.0 | 0.0 | 0.00 | 0.00 | 0.00 | 44 | 1011.7 |
| 20260905110323 | 85 | 250 | 0.0 | 0.0 | 0.00 | 0.00 | 0.00 | 44 | 1011.7 |
| 20260905110224 | 85 | 250 | 0.0 | 0.0 | 0.00 | 0.00 | 0.00 | 44 | 1011.7 |
| 20260905110127 | 85 | 250 | 0.0 | 0.0 | 0.00 | 0.00 | 0.00 | 44 | 1011.7 |
| 20260905110048 | 85 | 250 | 0.0 | 0.0 | 0.00 | 0.00 | 0.00 | 44 | 1011.7 |
| 20260905105918 | 84 | 250 | 0.0 | 0.0 | 0.00 | 0.00 | 0.00 | 45 | 1011.7 |
| 20260905105823 | 84 | 250 | 0.0 | 0.0 | 0.00 | 0.00 | 0.00 | 44 | 1011.6 |
| 20260905105734 | 84 | 250 | 0.0 | 0.0 | 0.00 | 0.00 | 0.00 | 44 | 1011.6 |
| 20260905105615 | 84 | 250 | 0.0 | 0.0 | 0.00 | 0.00 | 0.00 | 44 | 1011.7 |
| 20260905105516 | 84 | 250 | 0.0 | 0.0 | 0.00 | 0.00 | 0.00 | 44 | 1011.6 |
| 20260905105417 | 84 | 250 | 0.0 | 0.0 | 0.00 | 0.00 | 0.00 | 45 | 1011.6 |
| 20260905105327 | 84 | 250 | 0.0 | 0.0 | 0.00 | 0.00 | 0.00 | 44 | 1011.6 |
| 20260905105232 | 84 | 250 | 0.0 | 0.0 | 0.00 | 0.00 | 0.00 | 45 | 1011.6 |
| 20260905105115 | 84 | 250 | 0.0 | 0.0 | 0.00 | 0.00 | 0.00 | 45 | 1011.7 |
| 20260905105017 | 84 | 250 | 0.0 | 0.0 | 0.00 | 0.00 | 0.00 | 44 | 1011.7 |
| 20260905104946 | 84 | 250 | 0.0 | 0.0 | 0.00 | 0.00 | 0.00 | 44 | 1011.7 |
| 20260905104825 | 84 | 250 | 0.0 | 0.0 | 0.00 | 0.00 | 0.00 | 44 | 1011.8 |
| 20260905104735 | 84 | 250 | 0.0 | 0.0 | 0.00 | 0.00 | 0.00 | 44 | 1011.8 |
| 20260905104622 | 84 | 250 | 0.0 | 0.0 | 0.00 | 0.00 | 0.00 | 45 | 1011.8 |
| 20260905104523 | 84 | 250 | 0.0 | 0.0 | 0.00 | 0.00 | 0.00 | 45 | 1011.8 |
| 20260905104453 | 84 | 250 | 0.0 | 0.0 | 0.00 | 0.00 | 0.00 | 44 | 1011.8 |
| 20260905104334 | 84 | 250 | 0.0 | 0.0 | 0.00 | 0.00 | 0.00 | 44 | 1011.7 |
| 20260905104216 | 84 | 250 | 0.0 | 0.0 | 0.00 | 0.00 | 0.00 | 44 | 1011.7 |
| 20260905104118 | 85 | 250 | 0.0 | 0.0 | 0.00 | 0.00 | 0.00 | 44 | 1011.6 |
| 20260905104046 | 85 | 250 | 0.0 | 0.0 | 0.00 | 0.00 | 0.00 | 44 | 1011.6 |
| 20260905103933 | 85 | 250 | 0.0 | 0.0 | 0.00 | 0.00 | 0.00 | 44 | 1011.6 |
| 20260905103815 | 85 | 250 | 0.0 | 0.0 | 0.00 | 0.00 | 0.00 | 44 | 1011.6 |
| 20260905103745 | 85 | 250 | 0.0 | 0.0 | 0.00 | 0.00 | 0.00 | 44 | 1011.6 |
| 20260905103626 | 85 | 250 | 0.0 | 0.0 | 0.00 | 0.00 | 0.00 | 44 | 1011.6 |
| 20260905103555 | 85 | 250 | 0.0 | 0.0 | 0.00 | 0.00 | 0.00 | 44 | 1011.6 |
| 20260905103443 | 85 | 250 | 0.0 | 0.0 | 0.00 | 0.00 | 0.00 | 43 | 1011.7 |
| 20260905103324 | 85 | 250 | 0.0 | 0.0 | 0.00 | 0.00 | 0.00 | 44 | 1011.7 |
| 20260905103258 | 85 | 250 | 0.0 | 0.0 | 0.00 | 0.00 | 0.00 | 44 | 1011.7 |
| 20260905103119 | 85 | 250 | 0.0 | 1.0 | 0.00 | 0.00 | 0.00 | 44 | 1011.7 |
| 20260905103020 | 85 | 250 | 0.0 | 2.0 | 0.00 | 0.00 | 0.00 | 44 | 1011.7 |
| 20260905102921 | 85 | 250 | 0.0 | 2.0 | 0.00 | 0.00 | 0.00 | 44 | 1011.7 |
| 20260905102832 | 85 | 250 | 0.0 | 2.0 | 0.00 | 0.00 | 0.00 | 43 | 1011.7 |
| 20260905102755 | 85 | 250 | 0.0 | 2.0 | 0.00 | 0.00 | 0.00 | 43 | 1011.7 |
| 20260905102618 | 85 | 250 | 0.0 | 2.0 | 0.00 | 0.00 | 0.00 | 43 | 1011.7 |
| 20260905102528 | 85 | 250 | 0.0 | 2.0 | 0.00 | 0.00 | 0.00 | 43 | 1011.7 |
| 20260905102428 | 85 | 250 | 0.0 | 2.0 | 0.00 | 0.00 | 0.00 | 43 | 1011.7 |
| 20260905102337 | 85 | 250 | 0.0 | 2.0 | 0.00 | 0.00 | 0.00 | 43 | 1011.6 |
| 20260905102219 | 85 | 250 | 0.0 | 2.0 | 0.00 | 0.00 | 0.00 | 43 | 1011.7 |
| 20260905102121 | 85 | 250 | 0.0 | 1.0 | 0.00 | 0.00 | 0.00 | 43 | 1011.7 |
| 20260905102051 | 85 | 250 | 0.0 | 1.0 | 0.00 | 0.00 | 0.00 | 43 | 1011.7 |
| 20260905101938 | 85 | 360 | 0.0 | 1.0 | 0.00 | 0.00 | 0.00 | 43 | 1011.7 |
| 20260905101823 | 86 | 360 | 0.0 | 1.0 | 0.00 | 0.00 | 0.00 | 43 | 1011.6 |
| 20260905101732 | 86 | 249 | 0.0 | 2.0 | 0.00 | 0.00 | 0.00 | 43 | 1011.6 |
| 20260905101615 | 86 | 250 | 0.0 | 2.0 | 0.00 | 0.00 | 0.00 | 43 | 1011.6 |
| 20260905101518 | 86 | 360 | 0.0 | 2.0 | 0.00 | 0.00 | 0.00 | 43 | 1011.6 |
| 20260905101420 | 86 | 250 | 0.0 | 2.0 | 0.00 | 0.00 | 0.00 | 42 | 1011.6 |
| 20260905101330 | 86 | 250 | 0.0 | 2.0 | 0.00 | 0.00 | 0.00 | 42 | 1011.6 |
| 20260905101216 | 86 | 250 | 0.0 | 2.0 | 0.00 | 0.00 | 0.00 | 42 | 1011.5 |
| 20260905101119 | 86 | 250 | 0.0 | 2.0 | 0.00 | 0.00 | 0.00 | 42 | 1011.5 |
| 20260905101020 | 86 | 250 | 0.0 | 2.0 | 0.00 | 0.00 | 0.00 | 42 | 1011.5 |
| 20260905100951 | 86 | 250 | 0.0 | 2.0 | 0.00 | 0.00 | 0.00 | 42 | 1011.5 |
| 20260905100832 | 86 | 250 | 0.0 | 2.0 | 0.00 | 0.00 | 0.00 | 42 | 1011.5 |
| 20260905100741 | 86 | 250 | 0.0 | 2.0 | 0.00 | 0.00 | 0.00 | 42 | 1011.6 |
| 20260905100628 | 86 | 250 | 0.0 | 2.0 | 0.00 | 0.00 | 0.00 | 42 | 1011.5 |
| 20260905100529 | 86 | 250 | 0.0 | 2.0 | 0.00 | 0.00 | 0.00 | 42 | 1011.4 |
| 20260905100431 | 86 | 250 | 0.0 | 2.0 | 0.00 | 0.00 | 0.00 | 42 | 1011.4 |
| 20260905100340 | 86 | 250 | 0.0 | 2.0 | 0.00 | 0.00 | 0.00 | 42 | 1011.4 |
| 20260905100222 | 86 | 250 | 1.0 | 2.0 | 0.00 | 0.00 | 0.00 | 42 | 1011.4 |
| 20260905100123 | 86 | 250 | 1.0 | 2.0 | 0.00 | 0.00 | 0.00 | 41 | 1011.4 |
| 20260905100106 | 87 | 250 | 1.0 | 2.0 | 0.00 | 0.00 | 0.00 | 41 | 1011.4 |
| 20260905095917 | 87 | 250 | 0.0 | 2.0 | 0.00 | 0.00 | 0.00 | 41 | 1011.3 |
| 20260905095828 | 87 | 250 | 0.0 | 3.0 | 0.00 | 0.00 | 0.00 | 41 | 1011.3 |
| 20260905095729 | 87 | 250 | 0.0 | 3.0 | 0.00 | 0.00 | 0.00 | 41 | 1011.4 |
| 20260905095631 | 87 | 250 | 0.0 | 3.0 | 0.00 | 0.00 | 0.00 | 41 | 1011.4 |
| 20260905095539 | 87 | 250 | 0.0 | 4.0 | 0.00 | 0.00 | 0.00 | 41 | 1011.4 |
| 20260905095421 | 87 | 250 | 0.0 | 4.0 | 0.00 | 0.00 | 0.00 | 41 | 1011.3 |
| 20260905095328 | 87 | 250 | 0.0 | 4.0 | 0.00 | 0.00 | 0.00 | 41 | 1011.3 |
| 20260905095239 | 87 | 250 | 0.0 | 4.0 | 0.00 | 0.00 | 0.00 | 41 | 1011.4 |
| 20260905095140 | 87 | 250 | 0.0 | 4.0 | 0.00 | 0.00 | 0.00 | 41 | 1011.5 |
| 20260905095041 | 87 | 250 | 1.0 | 4.0 | 0.00 | 0.00 | 0.00 | 41 | 1011.4 |
| 20260905094931 | 87 | 250 | 1.0 | 4.0 | 0.00 | 0.00 | 0.00 | 41 | 1011.4 |
| 20260905094833 | 87 | 250 | 1.0 | 4.0 | 0.00 | 0.00 | 0.00 | 41 | 1011.3 |
| 20260905094719 | 87 | 250 | 1.0 | 4.0 | 0.00 | 0.00 | 0.00 | 41 | 1011.5 |
| 20260905094621 | 87 | 250 | 0.0 | 3.0 | 0.00 | 0.00 | 0.00 | 41 | 1011.4 |
| 20260905094532 | 87 | 250 | 0.0 | 3.0 | 0.00 | 0.00 | 0.00 | 41 | 1011.4 |
| 20260905094433 | 87 | 250 | 0.0 | 3.0 | 0.00 | 0.00 | 0.00 | 41 | 1011.4 |
| 20260905094316 | 87 | 250 | 1.0 | 3.0 | 0.00 | 0.00 | 0.00 | 41 | 1011.4 |
| 20260905094218 | 87 | 250 | 1.0 | 3.0 | 0.00 | 0.00 | 0.00 | 41 | 1011.4 |
| 20260905094132 | 87 | 250 | 0.0 | 3.0 | 0.00 | 0.00 | 0.00 | 41 | 1011.4 |
| 20260905094053 | 87 | 250 | 0.0 | 2.0 | 0.00 | 0.00 | 0.00 | 41 | 1011.4 |
| 20260905093941 | 87 | 250 | 0.0 | 2.0 | 0.00 | 0.00 | 0.00 | 41 | 1011.6 |
| 20260905093820 | 87 | 250 | 0.0 | 3.0 | 0.00 | 0.00 | 0.00 | 41 | 1011.5 |
| 20260905093723 | 87 | 250 | 0.0 | 3.0 | 0.00 | 0.00 | 0.00 | 41 | 1011.6 |
| 20260905093632 | 87 | 250 | 1.0 | 3.0 | 0.00 | 0.00 | 0.00 | 41 | 1011.6 |
| 20260905093517 | 87 | 250 | 1.0 | 3.0 | 0.00 | 0.00 | 0.00 | 41 | 1011.6 |
| 20260905093420 | 87 | 250 | 1.0 | 3.0 | 0.00 | 0.00 | 0.00 | 41 | 1011.6 |
| 20260905093321 | 87 | 250 | 0.0 | 3.0 | 0.00 | 0.00 | 0.00 | 41 | 1011.5 |
| 20260905093231 | 87 | 250 | 0.0 | 3.0 | 0.00 | 0.00 | 0.00 | 41 | 1011.5 |
| 20260905093139 | 87 | 250 | 1.0 | 3.0 | 0.00 | 0.00 | 0.00 | 41 | 1011.6 |
| 20260905093040 | 87 | 250 | 1.0 | 3.0 | 0.00 | 0.00 | 0.00 | 41 | 1011.5 |
| 20260905092950 | 87 | 250 | 1.0 | 3.0 | 0.00 | 0.00 | 0.00 | 41 | 1011.5 |
| 20260905092815 | 87 | 250 | 1.0 | 3.0 | 0.00 | 0.00 | 0.00 | 41 | 1011.6 |
| 20260905092737 | 87 | 250 | 1.0 | 3.0 | 0.00 | 0.00 | 0.00 | 41 | 1011.6 |
| 20260905092645 | 87 | 250 | 0.0 | 3.0 | 0.00 | 0.00 | 0.00 | 41 | 1011.5 |
| 20260905092528 | 87 | 250 | 0.0 | 3.0 | 0.00 | 0.00 | 0.00 | 41 | 1011.5 |
| 20260905092416 | 87 | 250 | 0.0 | 3.0 | 0.00 | 0.00 | 0.00 | 41 | 1011.6 |
| 20260905092319 | 87 | 250 | 0.0 | 3.0 | 0.00 | 0.00 | 0.00 | 41 | 1011.6 |
| 20260905092220 | 87 | 250 | 0.0 | 2.0 | 0.00 | 0.00 | 0.00 | 41 | 1011.6 |
| 20260905092131 | 87 | 250 | 0.0 | 2.0 | 0.00 | 0.00 | 0.00 | 41 | 1011.6 |
| 20260905092017 | 87 | 250 | 0.0 | 2.0 | 0.00 | 0.00 | 0.00 | 41 | 1011.6 |
| 20260905091919 | 87 | 360 | 0.0 | 2.0 | 0.00 | 0.00 | 0.00 | 41 | 1011.5 |
| 20260905091849 | 87 | 360 | 0.0 | 2.0 | 0.00 | 0.00 | 0.00 | 41 | 1011.5 |
| 20260905091729 | 87 | 360 | 0.0 | 2.0 | 0.00 | 0.00 | 0.00 | 41 | 1011.4 |
| 20260905091640 | 87 | 360 | 0.0 | 3.0 | 0.00 | 0.00 | 0.00 | 41 | 1011.4 |
| 20260905091519 | 87 | 360 | 1.0 | 3.0 | 0.00 | 0.00 | 0.00 | 41 | 1011.4 |
| 20260905091427 | 87 | 360 | 0.0 | 3.0 | 0.00 | 0.00 | 0.00 | 41 | 1011.4 |
| 20260905091335 | 87 | 360 | 0.0 | 3.0 | 0.00 | 0.00 | 0.00 | 40 | 1011.4 |
| 20260905091218 | 87 | 360 | 0.0 | 3.0 | 0.00 | 0.00 | 0.00 | 41 | 1011.5 |
| 20260905091120 | 87 | 360 | 0.0 | 3.0 | 0.00 | 0.00 | 0.00 | 41 | 1011.5 |
| 20260905091029 | 87 | 360 | 0.0 | 3.0 | 0.00 | 0.00 | 0.00 | 41 | 1011.5 |
| 20260905090931 | 87 | 360 | 1.0 | 3.0 | 0.00 | 0.00 | 0.00 | 40 | 1011.5 |
| 20260905090839 | 87 | 360 | 1.0 | 3.0 | 0.00 | 0.00 | 0.00 | 40 | 1011.4 |
| 20260905090725 | 87 | 360 | 0.0 | 3.0 | 0.00 | 0.00 | 0.00 | 40 | 1011.4 |
| 20260905090628 | 87 | 360 | 1.0 | 2.0 | 0.00 | 0.00 | 0.00 | 40 | 1011.4 |
| 20260905090557 | 87 | 360 | 1.0 | 3.0 | 0.00 | 0.00 | 0.00 | 40 | 1011.4 |
| 20260905090419 | 87 | 360 | 0.0 | 3.0 | 0.00 | 0.00 | 0.00 | 40 | 1011.4 |
| 20260905090321 | 87 | 360 | 0.0 | 3.0 | 0.00 | 0.00 | 0.00 | 40 | 1011.4 |
| 20260905090223 | 87 | 360 | 0.0 | 3.0 | 0.00 | 0.00 | 0.00 | 40 | 1011.4 |
| 20260905090137 | 87 | 360 | 0.0 | 3.0 | 0.00 | 0.00 | 0.00 | 40 | 1011.4 |
| 20260905090030 | 87 | 360 | 0.0 | 3.0 | 0.00 | 0.00 | 0.00 | 40 | 1011.4 |
| 20260905085921 | 87 | 248 | 0.0 | 3.0 | 0.00 | 0.00 | 0.00 | 40 | 1011.4 |
| 20260905085851 | 87 | 248 | 1.0 | 3.0 | 0.00 | 0.00 | 0.00 | 40 | 1011.4 |
| 20260905085733 | 87 | 249 | 1.0 | 3.0 | 0.00 | 0.00 | 0.00 | 40 | 1011.4 |
| 20260905085614 | 87 | 249 | 1.0 | 3.0 | 0.00 | 0.00 | 0.00 | 40 | 1011.4 |
| 20260905085529 | 87 | 249 | 1.0 | 3.0 | 0.00 | 0.00 | 0.00 | 40 | 1011.4 |
| 20260905085432 | 87 | 249 | 1.0 | 3.0 | 0.00 | 0.00 | 0.00 | 40 | 1011.4 |
| 20260905085400 | 87 | 249 | 1.0 | 3.0 | 0.00 | 0.00 | 0.00 | 40 | 1011.4 |
| 20260905085222 | 87 | 249 | 1.0 | 3.0 | 0.00 | 0.00 | 0.00 | 40 | 1011.4 |
| 20260905085143 | 87 | 249 | 0.0 | 2.0 | 0.00 | 0.00 | 0.00 | 40 | 1011.4 |
| 20260905085032 | 87 | 250 | 0.0 | 2.0 | 0.00 | 0.00 | 0.00 | 40 | 1011.4 |
| 20260905084934 | 87 | 250 | 0.0 | 3.0 | 0.00 | 0.00 | 0.00 | 40 | 1011.5 |
| 20260905084846 | 88 | 250 | 0.0 | 4.0 | 0.00 | 0.00 | 0.00 | 40 | 1011.4 |
| 20260905084727 | 88 | 250 | 0.0 | 4.0 | 0.00 | 0.00 | 0.00 | 40 | 1011.4 |
| 20260905084629 | 88 | 250 | 0.0 | 4.0 | 0.00 | 0.00 | 0.00 | 40 | 1011.4 |
| 20260905084539 | 88 | 250 | 0.0 | 4.0 | 0.00 | 0.00 | 0.00 | 40 | 1011.4 |
| 20260905084439 | 88 | 250 | 0.0 | 4.0 | 0.00 | 0.00 | 0.00 | 40 | 1011.3 |
| 20260905084328 | 88 | 250 | 1.0 | 4.0 | 0.00 | 0.00 | 0.00 | 40 | 1011.3 |
| 20260905084230 | 88 | 250 | 1.0 | 4.0 | 0.00 | 0.00 | 0.00 | 40 | 1011.4 |
| 20260905084116 | 88 | 250 | 2.0 | 5.0 | 0.00 | 0.00 | 0.00 | 40 | 1011.4 |
| 20260905084017 | 88 | 250 | 2.0 | 6.0 | 0.00 | 0.00 | 0.00 | 40 | 1011.4 |
| 20260905083928 | 88 | 250 | 2.0 | 6.0 | 0.00 | 0.00 | 0.00 | 40 | 1011.4 |
| 20260905083850 | 88 | 250 | 2.0 | 6.0 | 0.00 | 0.00 | 0.00 | 40 | 1011.3 |
| 20260905083736 | 88 | 250 | 2.0 | 7.0 | 0.00 | 0.00 | 0.00 | 39 | 1011.3 |
| 20260905083617 | 88 | 250 | 2.0 | 7.0 | 0.00 | 0.00 | 0.00 | 39 | 1011.4 |
| 20260905083518 | 88 | 250 | 2.0 | 7.0 | 0.00 | 0.00 | 0.00 | 39 | 1011.3 |
| 20260905083433 | 88 | 250 | 2.0 | 7.0 | 0.00 | 0.00 | 0.00 | 39 | 1011.3 |
| 20260905083335 | 88 | 250 | 3.0 | 7.0 | 0.00 | 0.00 | 0.00 | 39 | 1011.4 |
| 20260905083217 | 88 | 250 | 2.0 | 7.0 | 0.00 | 0.00 | 0.00 | 39 | 1011.4 |
| 20260905083117 | 88 | 250 | 2.0 | 7.0 | 0.00 | 0.00 | 0.00 | 39 | 1011.4 |
| 20260905083028 | 88 | 250 | 4.0 | 7.0 | 0.00 | 0.00 | 0.00 | 39 | 1011.4 |
| 20260905082929 | 88 | 250 | 4.0 | 7.0 | 0.00 | 0.00 | 0.00 | 39 | 1011.3 |
| 20260905082843 | 88 | 250 | 3.0 | 7.0 | 0.00 | 0.00 | 0.00 | 40 | 1011.3 |
| 20260905082725 | 88 | 249 | 3.0 | 7.0 | 0.00 | 0.00 | 0.00 | 39 | 1011.3 |
| 20260905082646 | 88 | 249 | 3.0 | 7.0 | 0.00 | 0.00 | 0.00 | 39 | 1011.3 |
| 20260905082554 | 88 | 249 | 3.0 | 7.0 | 0.00 | 0.00 | 0.00 | 40 | 1011.3 |
| 20260905082501 | 88 | 249 | 3.0 | 7.0 | 0.00 | 0.00 | 0.00 | 40 | 1011.3 |
| 20260905082323 | 88 | 248 | 2.0 | 7.0 | 0.00 | 0.00 | 0.00 | 40 | 1011.3 |
| 20260905082225 | 88 | 248 | 2.0 | 7.0 | 0.00 | 0.00 | 0.00 | 40 | 1011.3 |
| 20260905082137 | 88 | 248 | 2.0 | 7.0 | 0.00 | 0.00 | 0.00 | 40 | 1011.3 |
| 20260905082019 | 88 | 248 | 3.0 | 7.0 | 0.00 | 0.00 | 0.00 | 40 | 1011.3 |
| 20260905081921 | 88 | 248 | 3.0 | 7.0 | 0.00 | 0.00 | 0.00 | 40 | 1011.3 |
| 20260905081824 | 88 | 248 | 3.0 | 7.0 | 0.00 | 0.00 | 0.00 | 40 | 1011.3 |
| 20260905081735 | 88 | 248 | 3.0 | 6.0 | 0.00 | 0.00 | 0.00 | 40 | 1011.3 |
| 20260905081654 | 88 | 248 | 2.0 | 6.0 | 0.00 | 0.00 | 0.00 | 40 | 1011.4 |
| 20260905081518 | 88 | 244 | 2.0 | 6.0 | 0.00 | 0.00 | 0.00 | 40 | 1011.4 |
| 20260905081429 | 88 | 244 | 1.0 | 6.0 | 0.00 | 0.00 | 0.00 | 40 | 1011.4 |
| 20260905081332 | 88 | 244 | 2.0 | 6.0 | 0.00 | 0.00 | 0.00 | 40 | 1011.5 |
| 20260905081235 | 88 | 243 | 3.0 | 6.0 | 0.00 | 0.00 | 0.00 | 40 | 1011.5 |
| 20260905081117 | 88 | 243 | 3.0 | 6.0 | 0.00 | 0.00 | 0.00 | 40 | 1011.4 |
| 20260905081047 | 88 | 243 | 2.0 | 5.0 | 0.00 | 0.00 | 0.00 | 40 | 1011.4 |
| 20260905080956 | 88 | 243 | 1.0 | 5.0 | 0.00 | 0.00 | 0.00 | 40 | 1011.4 |
| 20260905080821 | 88 | 243 | 1.0 | 5.0 | 0.00 | 0.00 | 0.00 | 40 | 1011.5 |
| 20260905080722 | 89 | 243 | 2.0 | 4.0 | 0.00 | 0.00 | 0.00 | 40 | 1011.5 |
| 20260905080633 | 89 | 243 | 2.0 | 4.0 | 0.00 | 0.00 | 0.00 | 39 | 1011.5 |
| 20260905080539 | 89 | 243 | 2.0 | 4.0 | 0.00 | 0.00 | 0.00 | 39 | 1011.5 |
| 20260905080421 | 89 | 243 | 1.0 | 5.0 | 0.00 | 0.00 | 0.00 | 39 | 1011.6 |
| 20260905080323 | 89 | 243 | 2.0 | 5.0 | 0.00 | 0.00 | 0.00 | 39 | 1011.5 |
| 20260905080225 | 89 | 243 | 1.0 | 5.0 | 0.00 | 0.00 | 0.00 | 39 | 1011.4 |
| 20260905080140 | 89 | 243 | 1.0 | 5.0 | 0.00 | 0.00 | 0.00 | 39 | 1011.4 |
| 20260905080034 | 89 | 243 | 1.0 | 5.0 | 0.00 | 0.00 | 0.00 | 39 | 1011.4 |
| 20260905075924 | 89 | 243 | 1.0 | 5.0 | 0.00 | 0.00 | 0.00 | 39 | 1011.4 |
| 20260905075833 | 89 | 243 | 1.0 | 5.0 | 0.00 | 0.00 | 0.00 | 39 | 1011.4 |
| 20260905075734 | 89 | 243 | 1.0 | 5.0 | 0.00 | 0.00 | 0.00 | 39 | 1011.5 |
| 20260905075621 | 89 | 243 | 1.0 | 5.0 | 0.00 | 0.00 | 0.00 | 39 | 1011.4 |
| 20260905075522 | 89 | 243 | 1.0 | 4.0 | 0.00 | 0.00 | 0.00 | 39 | 1011.5 |
| 20260905075432 | 89 | 243 | 2.0 | 4.0 | 0.00 | 0.00 | 0.00 | 39 | 1011.5 |
| 20260905075332 | 89 | 243 | 1.0 | 4.0 | 0.00 | 0.00 | 0.00 | 39 | 1011.4 |
| 20260905075234 | 89 | 243 | 1.0 | 3.0 | 0.00 | 0.00 | 0.00 | 39 | 1011.4 |
| 20260905075116 | 89 | 243 | 1.0 | 3.0 | 0.00 | 0.00 | 0.00 | 39 | 1011.4 |
| 20260905075031 | 89 | 242 | 1.0 | 3.0 | 0.00 | 0.00 | 0.00 | 39 | 1011.4 |
| 20260905074933 | 89 | 242 | 0.0 | 3.0 | 0.00 | 0.00 | 0.00 | 39 | 1011.4 |
| 20260905074816 | 89 | 242 | 1.0 | 3.0 | 0.00 | 0.00 | 0.00 | 39 | 1011.4 |
| 20260905074744 | 89 | 242 | 1.0 | 3.0 | 0.00 | 0.00 | 0.00 | 39 | 1011.4 |
| 20260905074627 | 89 | 241 | 1.0 | 3.0 | 0.00 | 0.00 | 0.00 | 39 | 1011.4 |
| 20260905074528 | 89 | 241 | 1.0 | 3.0 | 0.00 | 0.00 | 0.00 | 39 | 1011.3 |
| 20260905074437 | 89 | 241 | 1.0 | 3.0 | 0.00 | 0.00 | 0.00 | 39 | 1011.4 |
| 20260905074322 | 89 | 241 | 1.0 | 3.0 | 0.00 | 0.00 | 0.00 | 39 | 1011.4 |
| 20260905074222 | 89 | 241 | 0.0 | 3.0 | 0.00 | 0.00 | 0.00 | 39 | 1011.4 |
| 20260905074133 | 89 | 241 | 0.0 | 3.0 | 0.00 | 0.00 | 0.00 | 39 | 1011.4 |
| 20260905074015 | 89 | 241 | 0.0 | 1.0 | 0.00 | 0.00 | 0.00 | 39 | 1011.4 |
| 20260905073917 | 89 | 241 | 0.0 | 1.0 | 0.00 | 0.00 | 0.00 | 38 | 1011.4 |
| 20260905073828 | 89 | 241 | 0.0 | 1.0 | 0.00 | 0.00 | 0.00 | 38 | 1011.4 |
| 20260905073733 | 89 | 241 | 0.0 | 1.0 | 0.00 | 0.00 | 0.00 | 38 | 1011.4 |
| 20260905073616 | 90 | 241 | 0.0 | 1.0 | 0.00 | 0.00 | 0.00 | 38 | 1011.5 |
| 20260905073518 | 90 | 241 | 0.0 | 1.0 | 0.00 | 0.00 | 0.00 | 38 | 1011.4 |
| 20260905073428 | 90 | 241 | 0.0 | 1.0 | 0.00 | 0.00 | 0.00 | 38 | 1011.4 |
| 20260905073330 | 90 | 241 | 0.0 | 2.0 | 0.00 | 0.00 | 0.00 | 38 | 1011.4 |
| 20260905073217 | 90 | 241 | 0.0 | 2.0 | 0.00 | 0.00 | 0.00 | 38 | 1011.5 |
| 20260905073118 | 90 | 241 | 0.0 | 2.0 | 0.00 | 0.00 | 0.00 | 38 | 1011.5 |
| 20260905073028 | 90 | 241 | 0.0 | 2.0 | 0.00 | 0.00 | 0.00 | 38 | 1011.5 |
| 20260905072949 | 90 | 241 | 0.0 | 2.0 | 0.00 | 0.00 | 0.00 | 38 | 1011.5 |
| 20260905072837 | 90 | 241 | 0.0 | 2.0 | 0.00 | 0.00 | 0.00 | 38 | 1011.4 |
| 20260905072739 | 89 | 241 | 0.0 | 2.0 | 0.00 | 0.00 | 0.00 | 38 | 1011.4 |
| 20260905072620 | 90 | 241 | 0.0 | 2.0 | 0.00 | 0.00 | 0.00 | 38 | 1011.3 |
| 20260905072534 | 90 | 241 | 0.0 | 2.0 | 0.00 | 0.00 | 0.00 | 38 | 1011.3 |
| 20260905072456 | 90 | 241 | 0.0 | 2.0 | 0.00 | 0.00 | 0.00 | 38 | 1011.3 |
| 20260905072344 | 90 | 241 | 0.0 | 2.0 | 0.00 | 0.00 | 0.00 | 38 | 1011.3 |
| 20260905072254 | 90 | 241 | 0.0 | 2.0 | 0.00 | 0.00 | 0.00 | 38 | 1011.3 |
| 20260905072134 | 90 | 241 | 0.0 | 2.0 | 0.00 | 0.00 | 0.00 | 38 | 1011.3 |
| 20260905072016 | 90 | 241 | 1.0 | 2.0 | 0.00 | 0.00 | 0.00 | 38 | 1011.3 |
| 20260905071916 | 90 | 241 | 0.0 | 2.0 | 0.00 | 0.00 | 0.00 | 38 | 1011.3 |
| 20260905071829 | 90 | 241 | 0.0 | 2.0 | 0.00 | 0.00 | 0.00 | 38 | 1011.3 |
| 20260905071731 | 90 | 241 | 0.0 | 2.0 | 0.00 | 0.00 | 0.00 | 38 | 1011.3 |
| 20260905071634 | 90 | 241 | 0.0 | 2.0 | 0.00 | 0.00 | 0.00 | 38 | 1011.3 |
| 20260905071516 | 90 | 241 | 0.0 | 4.0 | 0.00 | 0.00 | 0.00 | 38 | 1011.3 |
| 20260905071425 | 90 | 241 | 0.0 | 4.0 | 0.00 | 0.00 | 0.00 | 38 | 1011.4 |
| 20260905071328 | 90 | 241 | 0.0 | 4.0 | 0.00 | 0.00 | 0.00 | 38 | 1011.4 |
| 20260905071234 | 90 | 241 | 0.0 | 4.0 | 0.00 | 0.00 | 0.00 | 38 | 1011.3 |
| 20260905071116 | 90 | 241 | 0.0 | 4.0 | 0.00 | 0.00 | 0.00 | 38 | 1011.3 |
| 20260905071025 | 90 | 241 | 1.0 | 5.0 | 0.00 | 0.00 | 0.00 | 38 | 1011.4 |
| 20260905070925 | 90 | 241 | 1.0 | 5.0 | 0.00 | 0.00 | 0.00 | 38 | 1011.4 |
| 20260905070834 | 90 | 241 | 1.0 | 5.0 | 0.00 | 0.00 | 0.00 | 38 | 1011.4 |
| 20260905070716 | 90 | 241 | 0.0 | 5.0 | 0.00 | 0.00 | 0.00 | 38 | 1011.4 |
| 20260905070621 | 91 | 241 | 0.0 | 5.0 | 0.00 | 0.00 | 0.00 | 38 | 1011.4 |
| 20260905070523 | 91 | 241 | 1.0 | 5.0 | 0.00 | 0.00 | 0.00 | 37 | 1011.3 |
| 20260905070433 | 91 | 241 | 1.0 | 5.0 | 0.00 | 0.00 | 0.00 | 37 | 1011.3 |
| 20260905070334 | 91 | 241 | 1.0 | 5.0 | 0.00 | 0.00 | 0.00 | 38 | 1011.3 |
| 20260905070217 | 91 | 241 | 2.0 | 5.0 | 0.00 | 0.00 | 0.00 | 37 | 1011.3 |
| 20260905070118 | 91 | 241 | 1.0 | 5.0 | 0.00 | 0.00 | 0.00 | 37 | 1011.3 |
| 20260905070100 | 91 | 240 | 1.0 | 4.0 | 0.00 | 0.00 | 0.00 | 37 | 1011.3 |
| 20260905065940 | 91 | 240 | 1.0 | 4.0 | 0.00 | 0.00 | 0.00 | 37 | 1011.3 |
| 20260905065823 | 91 | 240 | 1.0 | 5.0 | 0.00 | 0.00 | 0.00 | 37 | 1011.2 |
| 20260905065745 | 91 | 240 | 2.0 | 5.0 | 0.00 | 0.00 | 0.00 | 37 | 1011.2 |
| 20260905065633 | 91 | 240 | 1.0 | 5.0 | 0.00 | 0.00 | 0.00 | 37 | 1011.2 |
| 20260905065555 | 91 | 240 | 1.0 | 5.0 | 0.00 | 0.00 | 0.00 | 37 | 1011.2 |
| 20260905065415 | 91 | 240 | 2.0 | 5.0 | 0.00 | 0.00 | 0.00 | 37 | 1011.2 |
| 20260905065330 | 91 | 240 | 1.0 | 5.0 | 0.00 | 0.00 | 0.00 | 37 | 1011.2 |
| 20260905065233 | 91 | 240 | 2.0 | 5.0 | 0.00 | 0.00 | 0.00 | 37 | 1011.1 |
| 20260905065142 | 91 | 240 | 2.0 | 5.0 | 0.00 | 0.00 | 0.00 | 37 | 1011.1 |
| 20260905065016 | 91 | 240 | 1.0 | 5.0 | 0.00 | 0.00 | 0.00 | 37 | 1011.1 |
| 20260905064924 | 91 | 240 | 1.0 | 5.0 | 0.00 | 0.00 | 0.00 | 37 | 1011.1 |
| 20260905064828 | 91 | 240 | 1.0 | 5.0 | 0.00 | 0.00 | 0.00 | 37 | 1011.1 |
| 20260905064741 | 91 | 240 | 1.0 | 5.0 | 0.00 | 0.00 | 0.00 | 37 | 1011.0 |
| 20260905064623 | 91 | 240 | 2.0 | 5.0 | 0.00 | 0.00 | 0.00 | 37 | 1011.0 |
| 20260905064524 | 91 | 240 | 1.0 | 5.0 | 0.00 | 0.00 | 0.00 | 37 | 1011.1 |
| 20260905064428 | 91 | 242 | 1.0 | 4.0 | 0.00 | 0.00 | 0.00 | 37 | 1011.1 |
| 20260905064330 | 91 | 242 | 1.0 | 4.0 | 0.00 | 0.00 | 0.00 | 36 | 1011.0 |
| 20260905064234 | 91 | 242 | 1.0 | 4.0 | 0.00 | 0.00 | 0.00 | 36 | 1011.0 |
| 20260905064119 | 91 | 240 | 1.0 | 4.0 | 0.00 | 0.00 | 0.00 | 36 | 1011.1 |
| 20260905064049 | 91 | 240 | 0.0 | 4.0 | 0.00 | 0.00 | 0.00 | 36 | 1011.1 |
| 20260905063930 | 91 | 240 | 1.0 | 4.0 | 0.00 | 0.00 | 0.00 | 36 | 1011.1 |
| 20260905063837 | 91 | 240 | 1.0 | 4.0 | 0.00 | 0.00 | 0.00 | 36 | 1011.1 |
| 20260905063720 | 91 | 240 | 0.0 | 4.0 | 0.00 | 0.00 | 0.00 | 36 | 1011.1 |
| 20260905063622 | 91 | 239 | 0.0 | 4.0 | 0.00 | 0.00 | 0.00 | 36 | 1011.1 |
| 20260905063531 | 92 | 239 | 0.0 | 6.0 | 0.00 | 0.00 | 0.00 | 36 | 1011.1 |
| 20260905063416 | 92 | 360 | 0.0 | 6.0 | 0.00 | 0.00 | 0.00 | 35 | 1011.1 |
| 20260905063319 | 92 | 360 | 0.0 | 6.0 | 0.00 | 0.00 | 0.00 | 35 | 1011.1 |
| 20260905063220 | 92 | 360 | 1.0 | 6.0 | 0.00 | 0.00 | 0.00 | 35 | 1011.1 |
| 20260905063131 | 92 | 360 | 1.0 | 6.0 | 0.00 | 0.00 | 0.00 | 35 | 1011.1 |
| 20260905063033 | 92 | 360 | 1.0 | 6.0 | 0.00 | 0.00 | 0.00 | 35 | 1011.1 |
| 20260905062941 | 92 | 360 | 1.0 | 6.0 | 0.00 | 0.00 | 0.00 | 35 | 1011.1 |
| 20260905062843 | 92 | 360 | 1.0 | 6.0 | 0.00 | 0.00 | 0.00 | 35 | 1011.1 |
| 20260905062735 | 92 | 360 | 1.0 | 6.0 | 0.00 | 0.00 | 0.00 | 35 | 1011.1 |
| 20260905062617 | 92 | 360 | 1.0 | 5.0 | 0.00 | 0.00 | 0.00 | 35 | 1011.1 |
| 20260905062520 | 92 | 360 | 1.0 | 5.0 | 0.00 | 0.00 | 0.00 | 35 | 1011.1 |
| 20260905062422 | 92 | 360 | 1.0 | 5.0 | 0.00 | 0.00 | 0.00 | 35 | 1011.0 |
| 20260905062332 | 92 | 360 | 0.0 | 5.0 | 0.00 | 0.00 | 0.00 | 35 | 1011.0 |
| 20260905062219 | 92 | 360 | 1.0 | 5.0 | 0.00 | 0.00 | 0.00 | 35 | 1011.0 |
| 20260905062121 | 92 | 360 | 1.0 | 5.0 | 0.00 | 0.00 | 0.00 | 35 | 1010.8 |
| 20260905062023 | 92 | 360 | 1.0 | 5.0 | 0.00 | 0.00 | 0.00 | 35 | 1010.9 |
| 20260905061934 | 92 | 360 | 2.0 | 5.0 | 0.00 | 0.00 | 0.00 | 35 | 1010.9 |
| 20260905061816 | 92 | 360 | 3.0 | 5.0 | 0.00 | 0.00 | 0.00 | 35 | 1011.0 |
| 20260905061719 | 92 | 360 | 2.0 | 6.0 | 0.00 | 0.00 | 0.00 | 34 | 1011.0 |
| 20260905061627 | 92 | 360 | 1.0 | 6.0 | 0.00 | 0.00 | 0.00 | 35 | 1010.9 |
| 20260905061533 | 92 | 360 | 1.0 | 6.0 | 0.00 | 0.00 | 0.00 | 34 | 1010.9 |
| 20260905061416 | 92 | 360 | 0.0 | 6.0 | 0.00 | 0.00 | 0.00 | 34 | 1010.8 |
| 20260905061345 | 92 | 360 | 0.0 | 6.0 | 0.00 | 0.00 | 0.00 | 34 | 1010.9 |
| 20260905061226 | 92 | 360 | 0.0 | 7.0 | 0.00 | 0.00 | 0.00 | 34 | 1010.8 |
| 20260905061135 | 92 | 360 | 0.0 | 7.0 | 0.00 | 0.00 | 0.00 | 34 | 1010.8 |
| 20260905061037 | 93 | 360 | 2.0 | 8.0 | 0.00 | 0.00 | 0.00 | 34 | 1010.8 |
| 20260905060917 | 93 | 360 | 2.0 | 8.0 | 0.00 | 0.00 | 0.00 | 34 | 1010.8 |
| 20260905060831 | 93 | 360 | 2.0 | 8.0 | 0.00 | 0.00 | 0.00 | 33 | 1010.8 |
| 20260905060733 | 93 | 360 | 2.0 | 8.0 | 0.00 | 0.00 | 0.00 | 33 | 1010.8 |
| 20260905060642 | 93 | 360 | 2.0 | 8.0 | 0.00 | 0.00 | 0.00 | 33 | 1010.8 |
| 20260905060524 | 93 | 360 | 4.0 | 8.0 | 0.00 | 0.00 | 0.00 | 33 | 1010.8 |
| 20260905060426 | 93 | 360 | 4.0 | 8.0 | 0.00 | 0.00 | 0.00 | 33 | 1010.8 |
| 20260905060355 | 93 | 360 | 3.0 | 8.0 | 0.00 | 0.00 | 0.00 | 33 | 1010.8 |
| 20260905060219 | 93 | 360 | 3.0 | 10.0 | 0.00 | 0.00 | 0.00 | 33 | 1010.8 |
| 20260905060120 | 93 | 360 | 3.0 | 10.0 | 0.00 | 0.00 | 0.00 | 33 | 1010.8 |
| 20260905060035 | 93 | 360 | 4.0 | 10.0 | 0.00 | 0.00 | 0.00 | 33 | 1010.8 |
| 20260905055932 | 93 | 360 | 4.0 | 10.0 | 0.00 | 0.00 | 0.00 | 33 | 1010.8 |
| 20260905055834 | 93 | 360 | 3.0 | 10.0 | 0.00 | 0.00 | 0.00 | 33 | 1010.8 |
| 20260905055715 | 93 | 360 | 3.0 | 10.0 | 0.00 | 0.00 | 0.00 | 33 | 1010.9 |
| 20260905055649 | 93 | 360 | 3.0 | 10.0 | 0.00 | 0.00 | 0.00 | 33 | 1010.9 |
| 20260905055529 | 93 | 360 | 4.0 | 10.0 | 0.00 | 0.00 | 0.00 | 33 | 1010.9 |
| 20260905055439 | 93 | 360 | 3.0 | 10.0 | 0.00 | 0.00 | 0.00 | 33 | 1010.9 |
| 20260905055341 | 93 | 360 | 2.0 | 11.0 | 0.00 | 0.00 | 0.00 | 33 | 1010.9 |
| 20260905055229 | 93 | 360 | 2.0 | 11.0 | 0.00 | 0.00 | 0.00 | 33 | 1010.9 |
| 20260905055129 | 93 | 360 | 2.0 | 11.0 | 0.00 | 0.00 | 0.00 | 33 | 1010.9 |
| 20260905055038 | 93 | 360 | 2.0 | 11.0 | 0.00 | 0.00 | 0.00 | 33 | 1010.9 |
| 20260905054920 | 93 | 360 | 3.0 | 11.0 | 0.00 | 0.00 | 0.00 | 33 | 1010.9 |
| 20260905054823 | 93 | 360 | 4.0 | 11.0 | 0.00 | 0.00 | 0.00 | 33 | 1010.9 |
| 20260905054733 | 93 | 360 | 4.0 | 11.0 | 0.00 | 0.00 | 0.00 | 33 | 1010.9 |
| 20260905054616 | 93 | 360 | 5.0 | 11.0 | 0.00 | 0.00 | 0.00 | 32 | 1010.9 |
| 20260905054538 | 93 | 360 | 3.0 | 11.0 | 0.00 | 0.00 | 0.00 | 32 | 1011.0 |
| 20260905054425 | 93 | 360 | 3.0 | 8.0 | 0.00 | 0.00 | 0.00 | 32 | 1011.0 |
| 20260905054327 | 93 | 360 | 3.0 | 8.0 | 0.00 | 0.00 | 0.00 | 32 | 1010.8 |
| 20260905054220 | 93 | 360 | 4.0 | 7.0 | 0.00 | 0.00 | 0.00 | 32 | 1010.9 |
| 20260905054122 | 93 | 360 | 3.0 | 7.0 | 0.00 | 0.00 | 0.00 | 32 | 1010.8 |
| 20260905054022 | 93 | 360 | 3.0 | 7.0 | 0.00 | 0.00 | 0.00 | 32 | 1010.8 |
| 20260905053933 | 93 | 360 | 3.0 | 7.0 | 0.00 | 0.00 | 0.00 | 32 | 1010.8 |
| 20260905053834 | 93 | 360 | 3.0 | 7.0 | 0.00 | 0.00 | 0.00 | 32 | 1010.8 |
| 20260905053716 | 93 | 360 | 2.0 | 8.0 | 0.00 | 0.00 | 0.00 | 32 | 1010.8 |
| 20260905053622 | 93 | 360 | 2.0 | 8.0 | 0.00 | 0.00 | 0.00 | 32 | 1010.8 |
| 20260905053531 | 93 | 360 | 2.0 | 8.0 | 0.00 | 0.00 | 0.00 | 31 | 1010.8 |
| 20260905053433 | 93 | 360 | 3.0 | 8.0 | 0.00 | 0.00 | 0.00 | 31 | 1010.9 |
| 20260905053342 | 93 | 360 | 3.0 | 9.0 | 0.00 | 0.00 | 0.00 | 31 | 1010.8 |
| 20260905053224 | 93 | 360 | 3.0 | 10.0 | 0.00 | 0.00 | 0.00 | 31 | 1010.8 |
| 20260905053127 | 93 | 360 | 3.0 | 10.0 | 0.00 | 0.00 | 0.00 | 31 | 1010.8 |
| 20260905053029 | 93 | 360 | 2.0 | 10.0 | 0.00 | 0.00 | 0.00 | 31 | 1010.8 |
| 20260905052915 | 93 | 360 | 3.0 | 10.0 | 0.00 | 0.00 | 0.00 | 31 | 1010.7 |
| 20260905052824 | 93 | 360 | 3.0 | 10.0 | 0.00 | 0.00 | 0.00 | 31 | 1010.7 |
| 20260905052726 | 93 | 360 | 2.0 | 10.0 | 0.00 | 0.00 | 0.00 | 31 | 1010.7 |
| 20260905052636 | 93 | 360 | 3.0 | 10.0 | 0.00 | 0.00 | 0.00 | 31 | 1010.6 |
| 20260905052544 | 93 | 360 | 4.0 | 10.0 | 0.00 | 0.00 | 0.00 | 31 | 1010.7 |
| 20260905052444 | 93 | 360 | 3.0 | 7.0 | 0.00 | 0.00 | 0.00 | 31 | 1010.7 |
| 20260905052334 | 93 | 360 | 2.0 | 6.0 | 0.00 | 0.00 | 0.00 | 31 | 1010.7 |
| 20260905052219 | 93 | 360 | 2.0 | 6.0 | 0.00 | 0.00 | 0.00 | 31 | 1010.7 |
| 20260905052141 | 93 | 360 | 3.0 | 6.0 | 0.00 | 0.00 | 0.00 | 31 | 1010.7 |
| 20260905052028 | 93 | 360 | 3.0 | 6.0 | 0.00 | 0.00 | 0.00 | 31 | 1010.6 |
| 20260905051931 | 93 | 360 | 2.0 | 6.0 | 0.00 | 0.00 | 0.00 | 31 | 1010.6 |
| 20260905051833 | 93 | 360 | 2.0 | 6.0 | 0.00 | 0.00 | 0.00 | 31 | 1010.7 |
| 20260905051741 | 93 | 360 | 2.0 | 6.0 | 0.00 | 0.00 | 0.00 | 31 | 1010.7 |
| 20260905051628 | 93 | 360 | 2.0 | 6.0 | 0.00 | 0.00 | 0.00 | 31 | 1010.6 |
| 20260905051531 | 93 | 360 | 2.0 | 7.0 | 0.00 | 0.00 | 0.00 | 32 | 1010.6 |
| 20260905051432 | 93 | 360 | 2.0 | 7.0 | 0.00 | 0.00 | 0.00 | 31 | 1010.6 |
| 20260905051341 | 93 | 360 | 2.0 | 8.0 | 0.00 | 0.00 | 0.00 | 31 | 1010.6 |
| 20260905051222 | 93 | 360 | 2.0 | 8.0 | 0.00 | 0.00 | 0.00 | 31 | 1010.6 |
| 20260905051123 | 93 | 360 | 2.0 | 8.0 | 0.00 | 0.00 | 0.00 | 31 | 1010.6 |
| 20260905051033 | 93 | 360 | 2.0 | 8.0 | 0.00 | 0.00 | 0.00 | 31 | 1010.6 |
| 20260905050920 | 93 | 360 | 3.0 | 8.0 | 0.00 | 0.00 | 0.00 | 31 | 1010.7 |
| 20260905050821 | 93 | 360 | 3.0 | 8.0 | 0.00 | 0.00 | 0.00 | 31 | 1010.7 |
| 20260905050723 | 93 | 360 | 3.0 | 8.0 | 0.00 | 0.00 | 0.00 | 31 | 1010.7 |
| 20260905050653 | 93 | 360 | 2.0 | 8.0 | 0.00 | 0.00 | 0.00 | 31 | 1010.7 |
| 20260905050520 | 93 | 360 | 0.0 | 4.0 | 0.00 | 0.00 | 0.00 | 32 | 1010.6 |
| 20260905050422 | 93 | 360 | 1.0 | 4.0 | 0.00 | 0.00 | 0.00 | 31 | 1010.6 |
| 20260905050329 | 93 | 360 | 1.0 | 4.0 | 0.00 | 0.00 | 0.00 | 31 | 1010.7 |
| 20260905050238 | 93 | 360 | 1.0 | 5.0 | 0.00 | 0.00 | 0.00 | 31 | 1010.7 |
| 20260905050141 | 93 | 360 | 0.0 | 5.0 | 0.00 | 0.00 | 0.00 | 31 | 1010.7 |
| 20260905050041 | 93 | 360 | 1.0 | 5.0 | 0.00 | 0.00 | 0.00 | 31 | 1010.7 |
| 20260905045933 | 93 | 360 | 1.0 | 5.0 | 0.00 | 0.00 | 0.00 | 31 | 1010.8 |
| 20260905045835 | 93 | 360 | 1.0 | 5.0 | 0.00 | 0.00 | 0.00 | 31 | 1010.7 |
| 20260905045720 | 93 | 360 | 1.0 | 5.0 | 0.00 | 0.00 | 0.00 | 31 | 1010.6 |
| 20260905045631 | 93 | 360 | 1.0 | 5.0 | 0.00 | 0.00 | 0.00 | 31 | 1010.6 |
| 20260905045553 | 93 | 360 | 1.0 | 5.0 | 0.00 | 0.00 | 0.00 | 31 | 1010.7 |
| 20260905045440 | 93 | 360 | 1.0 | 5.0 | 0.00 | 0.00 | 0.00 | 31 | 1010.5 |
| 20260905045321 | 93 | 360 | 1.0 | 4.0 | 0.00 | 0.00 | 0.00 | 31 | 1010.6 |
| 20260905045223 | 94 | 360 | 1.0 | 4.0 | 0.00 | 0.00 | 0.00 | 31 | 1010.6 |
| 20260905045134 | 94 | 360 | 1.0 | 4.0 | 0.00 | 0.00 | 0.00 | 31 | 1010.6 |
| 20260905045020 | 94 | 360 | 1.0 | 5.0 | 0.00 | 0.00 | 0.00 | 31 | 1010.6 |
| 20260905044922 | 94 | 360 | 1.0 | 6.0 | 0.00 | 0.00 | 0.00 | 31 | 1010.5 |
| 20260905044824 | 94 | 360 | 1.0 | 6.0 | 0.00 | 0.00 | 0.00 | 31 | 1010.5 |
| 20260905044755 | 94 | 360 | 2.0 | 6.0 | 0.00 | 0.00 | 0.00 | 31 | 1010.5 |
| 20260905044616 | 94 | 360 | 2.0 | 6.0 | 0.00 | 0.00 | 0.00 | 31 | 1010.5 |
| 20260905044524 | 94 | 360 | 1.0 | 6.0 | 0.00 | 0.00 | 0.00 | 31 | 1010.5 |
| 20260905044426 | 94 | 360 | 2.0 | 6.0 | 0.00 | 0.00 | 0.00 | 31 | 1010.5 |
| 20260905044340 | 94 | 360 | 2.0 | 6.0 | 0.00 | 0.00 | 0.00 | 31 | 1010.5 |
| 20260905044221 | 94 | 360 | 3.0 | 6.0 | 0.00 | 0.00 | 0.00 | 31 | 1010.6 |
| 20260905044122 | 94 | 360 | 3.0 | 6.0 | 0.00 | 0.00 | 0.00 | 30 | 1010.5 |
| 20260905044053 | 94 | 360 | 2.0 | 6.0 | 0.00 | 0.00 | 0.00 | 30 | 1010.5 |
| 20260905043933 | 94 | 360 | 2.0 | 6.0 | 0.00 | 0.00 | 0.00 | 31 | 1010.6 |
| 20260905043834 | 94 | 360 | 1.0 | 5.0 | 0.00 | 0.00 | 0.00 | 30 | 1010.6 |
| 20260905043720 | 94 | 360 | 1.0 | 5.0 | 0.00 | 0.00 | 0.00 | 31 | 1010.5 |
| 20260905043630 | 94 | 360 | 2.0 | 5.0 | 0.00 | 0.00 | 0.00 | 31 | 1010.5 |
| 20260905043533 | 94 | 360 | 2.0 | 5.0 | 0.00 | 0.00 | 0.00 | 30 | 1010.6 |
| 20260905043502 | 94 | 360 | 2.0 | 4.0 | 0.00 | 0.00 | 0.00 | 31 | 1010.5 |
| 20260905043323 | 94 | 360 | 2.0 | 4.0 | 0.00 | 0.00 | 0.00 | 30 | 1010.6 |
| 20260905043223 | 94 | 360 | 2.0 | 4.0 | 0.00 | 0.00 | 0.00 | 30 | 1010.6 |
| 20260905043139 | 94 | 360 | 1.0 | 3.0 | 0.00 | 0.00 | 0.00 | 30 | 1010.6 |
| 20260905043040 | 94 | 360 | 1.0 | 3.0 | 0.00 | 0.00 | 0.00 | 30 | 1010.6 |
| 20260905042922 | 94 | 360 | 0.0 | 3.0 | 0.00 | 0.00 | 0.00 | 30 | 1010.5 |
| 20260905042852 | 94 | 360 | 0.0 | 3.0 | 0.00 | 0.00 | 0.00 | 30 | 1010.5 |
| 20260905042733 | 94 | 360 | 1.0 | 3.0 | 0.00 | 0.00 | 0.00 | 30 | 1010.5 |
| 20260905042615 | 94 | 360 | 1.0 | 3.0 | 0.00 | 0.00 | 0.00 | 30 | 1010.5 |
| 20260905042521 | 95 | 360 | 1.0 | 3.0 | 0.00 | 0.00 | 0.00 | 30 | 1010.6 |
| 20260905042430 | 95 | 360 | 1.0 | 3.0 | 0.00 | 0.00 | 0.00 | 30 | 1010.6 |
| 20260905042359 | 95 | 360 | 1.0 | 4.0 | 0.00 | 0.00 | 0.00 | 30 | 1010.5 |
| 20260905042240 | 95 | 360 | 1.0 | 5.0 | 0.00 | 0.00 | 0.00 | 30 | 1010.5 |
| 20260905042121 | 95 | 360 | 0.0 | 6.0 | 0.00 | 0.00 | 0.00 | 30 | 1010.5 |
| 20260905042051 | 95 | 360 | 1.0 | 6.0 | 0.00 | 0.00 | 0.00 | 30 | 1010.5 |
| 20260905041933 | 95 | 360 | 1.0 | 6.0 | 0.00 | 0.00 | 0.00 | 30 | 1010.5 |
| 20260905041816 | 95 | 360 | 1.0 | 6.0 | 0.00 | 0.00 | 0.00 | 30 | 1010.4 |
| 20260905041728 | 95 | 360 | 1.0 | 6.0 | 0.00 | 0.00 | 0.00 | 30 | 1010.4 |
| 20260905041632 | 95 | 360 | 1.0 | 6.0 | 0.00 | 0.00 | 0.00 | 30 | 1010.4 |
| 20260905041541 | 95 | 360 | 2.0 | 6.0 | 0.00 | 0.00 | 0.00 | 29 | 1010.4 |
| 20260905041422 | 95 | 360 | 2.0 | 6.0 | 0.00 | 0.00 | 0.00 | 29 | 1010.3 |
| 20260905041324 | 95 | 360 | 1.0 | 4.0 | 0.00 | 0.00 | 0.00 | 29 | 1010.4 |
| 20260905041234 | 95 | 360 | 1.0 | 4.0 | 0.00 | 0.00 | 0.00 | 30 | 1010.4 |
| 20260905041120 | 95 | 360 | 1.0 | 4.0 | 0.00 | 0.00 | 0.00 | 29 | 1010.4 |
| 20260905041021 | 95 | 360 | 1.0 | 4.0 | 0.00 | 0.00 | 0.00 | 29 | 1010.3 |
| 20260905040949 | 95 | 360 | 1.0 | 4.0 | 0.00 | 0.00 | 0.00 | 29 | 1010.3 |
| 20260905040831 | 95 | 360 | 1.0 | 4.0 | 0.00 | 0.00 | 0.00 | 29 | 1010.3 |
| 20260905040734 | 96 | 360 | 0.0 | 5.0 | 0.00 | 0.00 | 0.00 | 29 | 1010.3 |
| 20260905040616 | 96 | 360 | 1.0 | 5.0 | 0.00 | 0.00 | 0.00 | 29 | 1010.4 |
| 20260905040531 | 96 | 360 | 1.0 | 5.0 | 0.00 | 0.00 | 0.00 | 29 | 1010.4 |
| 20260905040431 | 96 | 360 | 0.0 | 5.0 | 0.00 | 0.00 | 0.00 | 29 | 1010.4 |
| 20260905040331 | 96 | 360 | 0.0 | 5.0 | 0.00 | 0.00 | 0.00 | 29 | 1010.4 |
| 20260905040240 | 96 | 360 | 0.0 | 5.0 | 0.00 | 0.00 | 0.00 | 29 | 1010.3 |
| 20260905040121 | 96 | 360 | 1.0 | 5.0 | 0.00 | 0.00 | 0.00 | 29 | 1010.4 |
| 20260905040103 | 96 | 360 | 1.0 | 5.0 | 0.00 | 0.00 | 0.00 | 29 | 1010.4 |
| 20260905035917 | 96 | 360 | 2.0 | 5.0 | 0.00 | 0.00 | 0.00 | 29 | 1010.3 |
| 20260905035840 | 96 | 360 | 3.0 | 5.0 | 0.00 | 0.00 | 0.00 | 29 | 1010.4 |
| 20260905035747 | 96 | 360 | 3.0 | 6.0 | 0.00 | 0.00 | 0.00 | 29 | 1010.4 |
| 20260905035626 | 96 | 360 | 2.0 | 6.0 | 0.00 | 0.00 | 0.00 | 29 | 1010.3 |
| 20260905035537 | 96 | 360 | 2.0 | 7.0 | 0.00 | 0.00 | 0.00 | 29 | 1010.3 |
| 20260905035418 | 96 | 360 | 1.0 | 7.0 | 0.00 | 0.00 | 0.00 | 29 | 1010.3 |
| 20260905035320 | 96 | 360 | 1.0 | 7.0 | 0.00 | 0.00 | 0.00 | 29 | 1010.3 |
| 20260905035224 | 96 | 360 | 2.0 | 7.0 | 0.00 | 0.00 | 0.00 | 29 | 1010.3 |
| 20260905035132 | 96 | 360 | 2.0 | 7.0 | 0.00 | 0.00 | 0.00 | 29 | 1010.3 |
| 20260905035101 | 96 | 360 | 3.0 | 7.0 | 0.00 | 0.00 | 0.00 | 29 | 1010.2 |
| 20260905034923 | 96 | 360 | 3.0 | 9.0 | 0.00 | 0.00 | 0.00 | 29 | 1010.2 |
| 20260905034824 | 96 | 360 | 3.0 | 9.0 | 0.00 | 0.00 | 0.00 | 29 | 1010.2 |
| 20260905034725 | 96 | 360 | 3.0 | 9.0 | 0.00 | 0.00 | 0.00 | 29 | 1010.2 |
| 20260905034635 | 96 | 360 | 2.0 | 9.0 | 0.00 | 0.00 | 0.00 | 29 | 1010.2 |
| 20260905034521 | 96 | 360 | 3.0 | 10.0 | 0.00 | 0.00 | 0.00 | 29 | 1010.1 |
| 20260905034421 | 96 | 360 | 3.0 | 10.0 | 0.00 | 0.00 | 0.00 | 29 | 1010.1 |
| 20260905034331 | 96 | 360 | 3.0 | 10.0 | 0.00 | 0.00 | 0.00 | 29 | 1010.1 |
| 20260905034233 | 96 | 360 | 4.0 | 10.0 | 0.00 | 0.00 | 0.00 | 29 | 1010.1 |
| 20260905034135 | 96 | 360 | 4.0 | 10.0 | 0.00 | 0.00 | 0.00 | 29 | 1010.1 |
| 20260905034017 | 96 | 360 | 3.0 | 10.0 | 0.00 | 0.00 | 0.00 | 29 | 1010.1 |
| 20260905033931 | 96 | 360 | 3.0 | 10.0 | 0.00 | 0.00 | 0.00 | 29 | 1010.1 |
| 20260905033833 | 96 | 360 | 3.0 | 10.0 | 0.00 | 0.00 | 0.00 | 29 | 1010.1 |
| 20260905033801 | 96 | 360 | 3.0 | 10.0 | 0.00 | 0.00 | 0.00 | 29 | 1010.1 |
| 20260905033622 | 97 | 360 | 4.0 | 10.0 | 0.00 | 0.00 | 0.00 | 29 | 1010.1 |
| 20260905033543 | 97 | 360 | 3.0 | 9.0 | 0.00 | 0.00 | 0.00 | 29 | 1010.1 |
| 20260905033431 | 97 | 360 | 3.0 | 9.0 | 0.00 | 0.00 | 0.00 | 29 | 1010.1 |
| 20260905033341 | 97 | 360 | 4.0 | 9.0 | 0.00 | 0.00 | 0.00 | 29 | 1010.1 |
| 20260905033245 | 97 | 360 | 4.0 | 9.0 | 0.00 | 0.00 | 0.00 | 29 | 1010.0 |
| 20260905033155 | 97 | 360 | 4.0 | 9.0 | 0.00 | 0.00 | 0.00 | 29 | 1010.0 |
| 20260905033016 | 97 | 360 | 4.0 | 10.0 | 0.00 | 0.00 | 0.00 | 29 | 1010.0 |
| 20260905032919 | 97 | 360 | 4.0 | 10.0 | 0.00 | 0.00 | 0.00 | 29 | 1009.9 |
| 20260905032821 | 97 | 360 | 4.0 | 10.0 | 0.00 | 0.00 | 0.00 | 29 | 1010.0 |
| 20260905032731 | 97 | 360 | 4.0 | 10.0 | 0.00 | 0.00 | 0.00 | 29 | 1010.0 |
| 20260905032617 | 97 | 360 | 3.0 | 10.0 | 0.00 | 0.00 | 0.00 | 29 | 1009.9 |
| 20260905032520 | 97 | 360 | 2.0 | 10.0 | 0.00 | 0.00 | 0.00 | 29 | 1009.9 |
| 20260905032428 | 97 | 360 | 3.0 | 10.0 | 0.00 | 0.00 | 0.00 | 29 | 1009.9 |
| 20260905032331 | 97 | 360 | 4.0 | 10.0 | 0.00 | 0.00 | 0.00 | 29 | 1009.9 |
| 20260905032233 | 97 | 360 | 4.0 | 10.0 | 0.00 | 0.00 | 0.00 | 30 | 1009.9 |
| 20260905032139 | 97 | 360 | 4.0 | 8.0 | 0.00 | 0.00 | 0.00 | 30 | 1009.9 |
| 20260905032020 | 97 | 360 | 5.0 | 8.0 | 0.00 | 0.00 | 0.00 | 30 | 1009.8 |
| 20260905031924 | 96 | 360 | 4.0 | 7.0 | 0.00 | 0.00 | 0.00 | 30 | 1009.8 |
| 20260905031827 | 97 | 360 | 3.0 | 6.0 | 0.00 | 0.00 | 0.00 | 30 | 1009.9 |
| 20260905031715 | 97 | 360 | 2.0 | 6.0 | 0.00 | 0.00 | 0.00 | 30 | 1009.8 |
| 20260905031618 | 96 | 360 | 2.0 | 6.0 | 0.00 | 0.00 | 0.00 | 30 | 1009.8 |
| 20260905031547 | 97 | 360 | 3.0 | 6.0 | 0.00 | 0.00 | 0.00 | 30 | 1009.8 |
| 20260905031427 | 97 | 360 | 2.0 | 6.0 | 0.00 | 0.00 | 0.00 | 31 | 1009.8 |
| 20260905031357 | 97 | 360 | 2.0 | 6.0 | 0.00 | 0.00 | 0.00 | 30 | 1009.8 |
| 20260905031221 | 97 | 360 | 1.0 | 6.0 | 0.00 | 0.00 | 0.00 | 31 | 1009.9 |
| 20260905031124 | 97 | 360 | 2.0 | 5.0 | 0.00 | 0.00 | 0.00 | 31 | 1009.8 |
| 20260905031033 | 97 | 360 | 2.0 | 6.0 | 0.00 | 0.00 | 0.00 | 30 | 1009.8 |
| 20260905030915 | 97 | 360 | 2.0 | 8.0 | 0.00 | 0.00 | 0.00 | 30 | 1009.8 |
| 20260905030816 | 97 | 360 | 2.0 | 8.0 | 0.00 | 0.00 | 0.00 | 30 | 1009.8 |
| 20260905030726 | 97 | 360 | 2.0 | 8.0 | 0.00 | 0.00 | 0.00 | 30 | 1009.8 |
| 20260905030649 | 97 | 360 | 2.0 | 8.0 | 0.00 | 0.00 | 0.00 | 30 | 1009.8 |
| 20260905030519 | 97 | 360 | 2.0 | 8.0 | 0.00 | 0.00 | 0.00 | 30 | 1009.8 |
| 20260905030421 | 97 | 360 | 2.0 | 8.0 | 0.00 | 0.00 | 0.00 | 30 | 1009.8 |
| 20260905030324 | 97 | 360 | 4.0 | 8.0 | 0.00 | 0.00 | 0.00 | 30 | 1009.7 |
| 20260905030234 | 97 | 360 | 4.0 | 8.0 | 0.00 | 0.00 | 0.00 | 30 | 1009.7 |
| 20260905030115 | 97 | 360 | 4.0 | 8.0 | 0.00 | 0.00 | 0.00 | 30 | 1009.7 |
| 20260905030030 | 97 | 360 | 4.0 | 8.0 | 0.00 | 0.00 | 0.00 | 30 | 1009.7 |
| 20260905025931 | 97 | 360 | 4.0 | 7.0 | 0.00 | 0.00 | 0.00 | 30 | 1009.6 |
| 20260905025832 | 97 | 360 | 4.0 | 7.0 | 0.00 | 0.00 | 0.00 | 30 | 1009.6 |
| 20260905025801 | 97 | 360 | 3.0 | 7.0 | 0.00 | 0.00 | 0.00 | 30 | 1009.7 |
| 20260905025621 | 97 | 360 | 1.0 | 7.0 | 0.00 | 0.00 | 0.00 | 30 | 1009.6 |
| 20260905025522 | 97 | 360 | 2.0 | 7.0 | 0.00 | 0.00 | 0.00 | 30 | 1009.5 |
| 20260905025432 | 97 | 360 | 3.0 | 7.0 | 0.00 | 0.00 | 0.00 | 30 | 1009.5 |
| 20260905025316 | 97 | 360 | 4.0 | 7.0 | 0.00 | 0.00 | 0.00 | 30 | 1009.5 |
| 20260905025245 | 97 | 360 | 3.0 | 7.0 | 0.00 | 0.00 | 0.00 | 30 | 1009.5 |
| 20260905025126 | 97 | 360 | 3.0 | 9.0 | 0.00 | 0.00 | 0.00 | 30 | 1009.5 |
| 20260905025035 | 97 | 360 | 3.0 | 9.0 | 0.00 | 0.00 | 0.00 | 30 | 1009.5 |
| 20260905024916 | 97 | 360 | 2.0 | 9.0 | 0.00 | 0.00 | 0.00 | 30 | 1009.4 |
| 20260905024820 | 97 | 360 | 3.0 | 9.0 | 0.00 | 0.00 | 0.00 | 30 | 1009.4 |
| 20260905024720 | 97 | 360 | 4.0 | 9.0 | 0.00 | 0.00 | 0.00 | 30 | 1009.3 |
| 20260905024630 | 97 | 360 | 4.0 | 9.0 | 0.00 | 0.00 | 0.00 | 30 | 1009.3 |
| 20260905024541 | 97 | 360 | 3.0 | 9.0 | 0.00 | 0.00 | 0.00 | 30 | 1009.3 |
| 20260905024424 | 97 | 360 | 4.0 | 9.0 | 0.00 | 0.00 | 0.00 | 30 | 1009.3 |
| 20260905024345 | 98 | 360 | 4.0 | 9.0 | 0.00 | 0.00 | 0.00 | 29 | 1009.2 |
| 20260905024234 | 97 | 360 | 3.0 | 9.0 | 0.00 | 0.00 | 0.00 | 29 | 1009.2 |
| 20260905024116 | 98 | 360 | 4.0 | 8.0 | 0.00 | 0.00 | 0.00 | 29 | 1009.2 |
| 20260905024020 | 98 | 360 | 4.0 | 8.0 | 0.00 | 0.00 | 0.00 | 29 | 1009.2 |
| 20260905023924 | 98 | 360 | 4.0 | 8.0 | 0.00 | 0.00 | 0.00 | 29 | 1009.3 |
| 20260905023834 | 98 | 360 | 4.0 | 8.0 | 0.00 | 0.00 | 0.00 | 29 | 1009.3 |
| 20260905023717 | 98 | 360 | 3.0 | 8.0 | 0.00 | 0.00 | 0.00 | 29 | 1009.3 |
| 20260905023619 | 98 | 360 | 4.0 | 8.0 | 0.00 | 0.00 | 0.00 | 29 | 1009.2 |
| 20260905023547 | 98 | 360 | 4.0 | 8.0 | 0.00 | 0.00 | 0.00 | 29 | 1009.1 |
| 20260905023428 | 98 | 360 | 4.0 | 8.0 | 0.00 | 0.00 | 0.00 | 29 | 1009.1 |
| 20260905023337 | 98 | 360 | 3.0 | 8.0 | 0.00 | 0.00 | 0.00 | 29 | 1009.2 |
| 20260905023223 | 98 | 360 | 3.0 | 8.0 | 0.00 | 0.00 | 0.00 | 28 | 1009.1 |
| 20260905023125 | 98 | 360 | 2.0 | 8.0 | 0.00 | 0.00 | 0.00 | 28 | 1009.1 |
| 20260905023055 | 98 | 360 | 1.0 | 7.0 | 0.00 | 0.00 | 0.00 | 28 | 1009.1 |
| 20260905023002 | 98 | 360 | 2.0 | 10.0 | 0.00 | 0.00 | 0.00 | 28 | 1009.1 |
| 20260905022843 | 98 | 360 | 3.0 | 11.0 | 0.00 | 0.00 | 0.00 | 28 | 1009.1 |
| 20260905022724 | 98 | 360 | 4.0 | 11.0 | 0.00 | 0.00 | 0.00 | 28 | 1009.1 |
| 20260905022633 | 98 | 224 | 4.0 | 11.0 | 0.00 | 0.00 | 0.00 | 28 | 1009.1 |
| 20260905022520 | 98 | 222 | 4.0 | 11.0 | 0.00 | 0.00 | 0.00 | 28 | 1009.2 |
| 20260905022421 | 98 | 217 | 2.0 | 11.0 | 0.00 | 0.00 | 0.00 | 28 | 1009.1 |
| 20260905022349 | 98 | 216 | 2.0 | 11.0 | 0.00 | 0.00 | 0.00 | 28 | 1009.2 |
| 20260905022231 | 98 | 215 | 5.0 | 11.0 | 0.00 | 0.00 | 0.00 | 28 | 1009.2 |
| 20260905022200 | 98 | 215 | 5.0 | 11.0 | 0.00 | 0.00 | 0.00 | 28 | 1009.1 |
| 20260905022020 | 98 | 231 | 4.0 | 9.0 | 0.00 | 0.00 | 0.00 | 27 | 1009.1 |
| 20260905021929 | 98 | 233 | 5.0 | 9.0 | 0.00 | 0.00 | 0.00 | 27 | 1009.1 |
| 20260905021815 | 98 | 221 | 4.0 | 9.0 | 0.00 | 0.00 | 0.00 | 27 | 1009.1 |
| 20260905021717 | 98 | 234 | 4.0 | 8.0 | 0.00 | 0.00 | 0.00 | 27 | 1009.1 |
| 20260905021618 | 98 | 245 | 4.0 | 8.0 | 0.00 | 0.00 | 0.00 | 27 | 1009.1 |
| 20260905021527 | 98 | 238 | 4.0 | 8.0 | 0.00 | 0.00 | 0.00 | 27 | 1009.1 |
| 20260905021431 | 99 | 235 | 4.0 | 8.0 | 0.00 | 0.00 | 0.00 | 27 | 1009.1 |
| 20260905021331 | 98 | 233 | 3.0 | 8.0 | 0.00 | 0.00 | 0.00 | 27 | 1009.1 |
| 20260905021217 | 99 | 234 | 3.0 | 8.0 | 0.00 | 0.00 | 0.00 | 27 | 1009.1 |
| 20260905021127 | 99 | 235 | 4.0 | 8.0 | 0.00 | 0.00 | 0.00 | 27 | 1009.1 |
| 20260905021030 | 99 | 233 | 4.0 | 8.0 | 0.00 | 0.00 | 0.00 | 26 | 1009.1 |
| 20260905020931 | 99 | 235 | 4.0 | 8.0 | 0.00 | 0.00 | 0.00 | 26 | 1009.1 |
| 20260905020840 | 99 | 236 | 4.0 | 8.0 | 0.00 | 0.00 | 0.00 | 26 | 1009.1 |
| 20260905020722 | 99 | 233 | 3.0 | 7.0 | 0.00 | 0.00 | 0.00 | 26 | 1009.0 |
| 20260905020628 | 99 | 232 | 3.0 | 7.0 | 0.00 | 0.00 | 0.00 | 26 | 1009.2 |
| 20260905020530 | 99 | 231 | 3.0 | 9.0 | 0.00 | 0.00 | 0.00 | 26 | 1009.2 |
| 20260905020439 | 99 | 231 | 2.0 | 11.0 | 0.00 | 0.00 | 0.00 | 26 | 1009.0 |
| 20260905020321 | 99 | 231 | 2.0 | 11.0 | 0.00 | 0.00 | 0.00 | 25 | 1008.9 |
| 20260905020223 | 99 | 229 | 3.0 | 11.0 | 0.00 | 0.00 | 0.00 | 25 | 1008.9 |
| 20260905020132 | 99 | 226 | 3.0 | 11.0 | 0.00 | 0.00 | 0.00 | 25 | 1008.9 |
| 20260905020030 | 99 | 230 | 3.0 | 11.0 | 0.00 | 0.00 | 0.00 | 25 | 1008.9 |
| 20260905015919 | 99 | 229 | 3.0 | 11.0 | 0.00 | 0.00 | 0.00 | 25 | 1008.9 |
| 20260905015830 | 99 | 219 | 4.0 | 11.0 | 0.00 | 0.00 | 0.00 | 25 | 1008.9 |
| 20260905015733 | 99 | 270 | 4.0 | 11.0 | 0.00 | 0.00 | 0.00 | 25 | 1008.9 |
| 20260905015634 | 99 | 257 | 5.0 | 11.0 | 0.00 | 0.00 | 0.00 | 25 | 1008.8 |
| 20260905015516 | 99 | 254 | 5.0 | 11.0 | 0.00 | 0.00 | 0.00 | 25 | 1008.8 |
| 20260905015430 | 99 | 238 | 4.0 | 11.0 | 0.00 | 0.00 | 0.00 | 25 | 1008.8 |
| 20260905015351 | 99 | 234 | 4.0 | 11.0 | 0.00 | 0.00 | 0.00 | 25 | 1008.9 |
| 20260905015238 | 99 | 236 | 5.0 | 11.0 | 0.00 | 0.00 | 0.00 | 25 | 1008.9 |
| 20260905015116 | 99 | 228 | 6.0 | 11.0 | 0.00 | 0.00 | 0.00 | 25 | 1008.9 |
| 20260905015047 | 99 | 250 | 6.0 | 11.0 | 0.00 | 0.00 | 0.00 | 25 | 1008.8 |
| 20260905014927 | 100 | 229 | 6.0 | 11.0 | 0.00 | 0.00 | 0.00 | 25 | 1008.8 |
| 20260905014857 | 100 | 229 | 5.0 | 11.0 | 0.00 | 0.00 | 0.00 | 25 | 1008.8 |